Date StartTime U_cm/s V_cm/s W_cm/s Ustd_cm/s Vstd_cm/s Wstd_cm/s Uvar_(cm/s)^2 Vvar_(cm/s)^2 Wvar_(cm/s)^2 KE_(m/s)^2 TurbulentKE_(m/s)^2 HorizWindSpeed_cm/s FrictionSpeec_cm/s DragCoef SpeedOfSound_m/s SonicTemperature_C Pressure_mb 
09/21/2014  00:00:00       50.936       -9.840       37.250       60.123       59.287       44.900     3614.730     3514.950     2015.997        0.661        0.457       51.878       41.553        0.642      345.385       22.878      862.042
09/21/2014  00:01:00       60.525     -113.971        9.408       60.202       74.969       41.216     3624.233     5620.346     1698.762        1.384        0.547      129.045       40.781        0.100      345.351       22.816      862.047
09/21/2014  00:02:00       65.913     -166.945        5.855       56.915       93.064       46.845     3239.352     8660.998     2194.466        2.317        0.705      179.486       44.950        0.063      345.332       22.784      862.049
09/21/2014  00:03:00       31.848      -79.760       23.001       65.399       95.220       66.003     4277.023     9066.853     4356.337        1.280        0.885       85.883       62.589        0.531      345.288       22.710      862.069
09/21/2014  00:04:00       34.606      -29.002       40.930       57.733       89.315       53.592     3333.084     7977.221     2872.137        0.895        0.709       45.152       66.549        2.172      345.272       22.683      862.086
09/21/2014  00:05:00       26.142      -54.161       24.521       48.429       91.750       57.254     2345.402     8418.016     3278.030        0.913        0.702       60.140       62.208        1.070      345.250       22.645      862.093
09/21/2014  00:06:00      120.557      -76.306       21.836       72.042       84.597       56.246     5190.071     7156.584     3163.567        1.817        0.776      142.676       65.663        0.212      345.237       22.622      862.091
09/21/2014  00:07:00       58.430        0.001       41.265       50.879       62.367       39.707     2588.648     3889.695     1576.676        0.658        0.403       58.430       38.414        0.432      345.226       22.605      862.060
09/21/2014  00:08:00       16.284      -57.270       15.089       31.732       43.447       28.227     1006.897     1887.604      796.736        0.373        0.185       59.540       26.660        0.200      345.213       22.585      862.037
09/21/2014  00:09:00       39.521        9.587       73.515       57.462       79.180       63.478     3301.913     6269.402     4029.458        1.033        0.680       40.667       66.165        2.647      345.181       22.527      862.039
09/21/2014  00:10:00       53.389        3.608      105.455       94.650      130.170       88.961     8958.557    16944.110     7914.069        2.389        1.691       53.511       90.896        2.885      345.124       22.430      862.076
09/21/2014  00:11:00      112.163      -63.354       30.987      114.764      120.026       90.821    13170.736    14406.175     8248.402        2.668        1.791      128.819       82.445        0.410      345.071       22.340      862.103
09/21/2014  00:12:00      293.744     -266.707      -15.060      168.848      189.737      112.666    28509.735    36000.031    12693.596       11.741        3.860      396.760      132.201        0.111      345.008       22.231      862.117
09/21/2014  00:13:00      265.855     -240.437      -25.218      122.381      159.583       79.007    14977.052    25466.760     6242.065        8.790        2.334      358.454       88.032        0.060      344.985       22.190      862.135
09/21/2014  00:14:00      178.428     -135.417      -11.342       86.773      106.641       49.949     7529.514    11372.370     2494.946        3.585        1.070      223.996       52.225        0.054      344.996       22.207      862.153
09/21/2014  00:15:00       79.303      -36.398       26.658       74.554       95.412       47.416     5558.316     9103.359     2248.313        1.261        0.845       87.257       55.645        0.407      344.983       22.189      862.158
09/21/2014  00:16:00      139.909     -152.990      -16.541       84.024       86.838       48.434     7060.027     7540.886     2345.835        3.010        0.847      207.317       62.568        0.091      344.963       22.152      862.158
09/21/2014  00:17:00       83.627       38.359       82.552       81.838       93.172       71.918     6697.416     8681.083     5172.216        1.791        1.028       92.005       70.548        0.588      344.956       22.143      862.126
09/21/2014  00:18:00       91.559      -95.254       39.942       79.675      131.186       77.302     6348.153    17209.690     5975.564        2.429        1.477      132.122       83.575        0.400      344.959       22.146      862.130
09/21/2014  00:19:00       55.785      -87.087       14.638       77.921       89.887       58.573     6071.645     8079.644     3430.749        1.424        0.879      103.422       65.870        0.406      344.937       22.108      862.124
09/21/2014  00:20:00      115.938     -143.298      -27.748       71.541       66.947       42.951     5118.072     4481.855     1844.748        2.309        0.572      184.325       38.582        0.044      344.939       22.111      862.113
09/21/2014  00:21:00       54.132     -123.565      -15.525       49.951       48.097       34.863     2495.109     2313.342     1215.398        1.223        0.301      134.902       15.900        0.014      344.919       22.077      862.101
09/21/2014  00:22:00       80.507     -172.305       -5.537       61.207       47.400       39.526     3746.243     2246.781     1562.313        2.188        0.378      190.185       28.046        0.022      344.968       22.162      862.074
09/21/2014  00:23:00       31.580      -60.871        6.954       47.513       78.914       42.970     2257.512     6227.370     1846.442        0.754        0.517       68.575       49.668        0.525      344.919       22.079      862.046
09/21/2014  00:24:00       20.746       -6.190       41.552       57.025       68.335       58.058     3251.827     4669.652     3370.691        0.674        0.565       21.650       55.180        6.496      344.882       22.017      862.022
09/21/2014  00:25:00       32.598      -70.307        0.052       65.378       75.557       43.028     4274.324     5708.853     1851.397        0.892        0.592       77.496       31.949        0.170      344.963       22.154      862.014
09/21/2014  00:26:00       48.747     -121.943       -1.960       78.308       56.679       49.119     6132.124     3212.538     2412.720        1.450        0.588      131.325       38.594        0.086      344.967       22.161      861.992
09/21/2014  00:27:00       84.301      -71.671       -5.634       68.730       51.561       33.836     4723.791     2658.550     1144.846        1.040        0.426      110.650       27.216        0.060      344.956       22.143      861.988
09/21/2014  00:28:00      -29.761      -39.125        4.338       70.632       74.601       46.094     4988.892     5565.314     2124.690        0.755        0.634       49.157       48.507        0.974      344.940       22.114      861.964
09/21/2014  00:29:00      -84.524      -50.877      -15.771       44.270       40.888       28.283     1959.806     1671.833      799.939        0.721        0.222       98.655       29.243        0.088      344.955       22.141      861.980
09/21/2014  00:30:00       -3.148      -94.199       13.032       92.518       66.028       51.434     8559.623     4359.707     2645.504        1.231        0.778       94.252       31.615        0.113      345.049       22.301      861.970
09/21/2014  00:31:00      -77.097     -103.140       -3.710       50.319       58.309       36.388     2531.955     3399.918     1324.070        1.192        0.363      128.771       23.881        0.034      345.095       22.381      861.962
09/21/2014  00:32:00      -83.115      -77.670        2.677       59.235       40.466       25.881     3508.797     1637.466      669.844        0.938        0.291      113.757       25.573        0.051      345.092       22.377      861.945
09/21/2014  00:33:00      -49.310      -38.635        5.759       54.207       26.015       24.451     2938.428      676.762      597.833        0.408        0.211       62.644       21.695        0.120      345.053       22.309      861.933
09/21/2014  00:34:00      -91.082      -40.413        6.684       59.015       34.744       21.140     3482.728     1207.118      446.896        0.755        0.257       99.645       20.718        0.043      345.098       22.387      861.903
09/21/2014  00:35:00      -65.170     -129.627        2.802       51.228       41.325       28.856     2624.307     1707.792      832.653        1.311        0.258      145.087       17.902        0.015      345.149       22.472      861.898
09/21/2014  00:36:00     -118.407     -145.308        5.525       67.762       77.638       40.175     4591.729     6027.710     1614.020        2.370        0.612      187.442       25.927        0.019      345.164       22.497      861.891
09/21/2014  00:37:00      -99.899      -92.915        4.933       49.729       41.364       35.875     2472.995     1710.984     1287.036        1.205        0.274      136.430       18.471        0.018      345.142       22.461      861.874
09/21/2014  00:38:00      -86.045      -82.237       -5.144       42.590       38.590       28.468     1813.924     1489.216      810.416        0.915        0.206      119.024       23.336        0.038      345.112       22.415      861.853
09/21/2014  00:39:00     -104.075     -103.029       -4.328       69.867       54.925       26.712     4881.359     3016.799      713.540        1.504        0.431      146.446       24.670        0.028      345.114       22.415      861.841
09/21/2014  00:40:00      -60.545      -42.031       -9.191       40.591       42.229       22.137     1647.610     1783.321      490.049        0.472        0.196       73.704       16.500        0.050      345.072       22.338      861.816
09/21/2014  00:41:00      -61.140      -36.972        3.395       68.331       41.824       25.912     4669.113     1749.208      671.455        0.610        0.354       71.450       29.443        0.170      345.028       22.266      861.826
09/21/2014  00:42:00      -14.975      -41.475       20.728       43.754       59.123       35.196     1914.384     3495.477     1238.741        0.451        0.332       44.096       29.337        0.443      345.065       22.330      861.806
09/21/2014  00:43:00      -79.098     -115.142       -6.488       53.322       55.706       36.515     2843.251     3103.109     1333.370        1.342        0.364      139.693       32.378        0.054      345.117       22.418      861.801
09/21/2014  00:44:00     -107.706     -134.908       -7.539      112.464       62.363       40.489    12648.050     3889.102     1639.326        2.401        0.909      172.629       29.848        0.030      345.188       22.536      861.791
09/21/2014  00:45:00      -32.447      -77.656       -0.223       44.086       79.752       27.192     1943.595     6360.322      739.395        0.806        0.452       84.162       23.979        0.081      345.201       22.562      861.784
09/21/2014  00:46:00      -87.572     -121.521        1.834       59.920       73.581       35.389     3590.434     5414.091     1252.395        1.635        0.513      149.787       33.336        0.050      345.204       22.567      861.785
09/21/2014  00:47:00      -87.887      -85.742       -1.030       47.369       62.949       28.052     2243.794     3962.555      786.934        1.103        0.350      122.783       27.095        0.049      345.147       22.469      861.799
09/21/2014  00:48:00      -16.012      -76.953        3.333       58.047       62.675       50.286     3369.440     3928.151     2528.639        0.801        0.491       78.601       49.201        0.392      345.256       22.657      861.791
09/21/2014  00:49:00      -93.960     -165.778       -0.227       57.152       93.565       35.199     3266.321     8754.383     1238.976        2.478        0.663      190.554       37.890        0.040      345.257       22.653      861.793
09/21/2014  00:50:00      -10.041      -70.631        4.062       47.043       43.779       31.454     2213.086     1916.563      989.381        0.511        0.256       71.341       20.007        0.079      345.214       22.587      861.802
09/21/2014  00:51:00       65.835      -47.271        4.881       53.999       55.332       35.260     2915.898     3061.643     1243.279        0.691        0.361       81.048       32.709        0.163      345.166       22.502      861.816
09/21/2014  00:52:00       30.182       -9.806       26.522       47.670       66.955       31.562     2272.391     4483.026      996.159        0.473        0.388       31.735       37.406        1.389      345.135       22.448      861.833
09/21/2014  00:53:00       26.246      -48.532      -15.008       18.467       35.918       16.916      341.021     1290.085      286.139        0.259        0.096       55.174        7.894        0.020      345.165       22.500      861.862
09/21/2014  00:54:00       28.071        1.677       21.974       27.994       29.544       18.123      783.687      872.823      328.458        0.163        0.099       28.121       17.418        0.384      345.138       22.454      861.910
09/21/2014  00:55:00       54.812      -56.855       13.019       42.867       54.124       28.168     1837.602     2929.404      793.417        0.598        0.278       78.973       30.224        0.146      345.178       22.523      861.951
09/21/2014  00:56:00       70.843      -44.716       15.816       38.813       39.060       27.096     1506.445     1525.694      734.167        0.552        0.188       83.775       26.408        0.099      345.166       22.501      861.981
09/21/2014  00:57:00       67.681      -72.252       -2.880       43.047       26.147       16.376     1853.068      683.688      268.177        0.631        0.140       99.001       12.507        0.016      345.183       22.527      861.980
09/21/2014  00:58:00       54.190      -77.171      -16.406       54.666       43.439       22.276     2988.342     1886.945      496.230        0.727        0.269       94.297       22.937        0.059      345.185       22.535      861.995
09/21/2014  00:59:00       -2.268        5.324       23.969       25.953       32.658       22.049      673.580     1066.560      486.170        0.142        0.111        5.786       22.534       15.165      345.125       22.434      862.000
09/21/2014  01:00:00       31.701      -53.454        3.359       27.124       44.659       28.582      735.707     1994.429      816.939        0.371        0.177       62.148       29.086        0.219      345.163       22.496      862.004
09/21/2014  01:01:00       40.879       13.709       45.113       44.253       38.501       26.116     1958.287     1482.299      682.070        0.401        0.206       43.117       24.988        0.336      345.083       22.362      862.020
09/21/2014  01:02:00       72.045      -89.805      -15.313       46.930       45.778       26.239     2202.392     2095.646      688.509        0.924        0.249      115.132       25.087        0.047      345.178       22.523      862.039
09/21/2014  01:03:00       84.774      -75.954        2.433       72.744       84.189       44.502     5291.756     7087.839     1980.386        1.366        0.718      113.823       57.578        0.256      345.150       22.472      862.042
09/21/2014  01:04:00       22.888      -13.541       45.721       43.885       53.133       41.983     1925.889     2823.116     1762.577        0.465        0.326       26.594       41.571        2.443      345.165       22.501      862.064
09/21/2014  01:05:00       30.111      -37.915       29.145       45.012       60.973       37.151     2026.067     3717.684     1380.223        0.516        0.356       48.417       46.557        0.925      345.164       22.500      862.085
09/21/2014  01:06:00       75.799      -42.748       19.082       78.275       81.958       36.360     6126.951     6717.165     1322.079        1.105        0.708       87.022       47.631        0.300      345.090       22.373      862.082
09/21/2014  01:07:00       84.532      -93.022       10.154       63.007       82.676       38.784     3969.849     6835.253     1504.182        1.410        0.615      125.693       46.788        0.139      345.073       22.341      862.067
09/21/2014  01:08:00       85.368      -66.085       12.153       55.584       87.805       45.354     3089.597     7709.660     2056.978        1.233        0.643      107.958       59.529        0.304      345.041       22.287      862.091
09/21/2014  01:09:00       91.231     -154.368       -2.879       71.527       65.170       36.412     5116.142     4247.117     1325.850        2.142        0.534      179.312       36.601        0.042      345.117       22.417      862.098
09/21/2014  01:10:00       94.533      -56.861       21.598       88.436       92.377       61.813     7820.993     8533.430     3820.795        1.640        1.009      110.316       71.893        0.425      345.091       22.373      862.078
09/21/2014  01:11:00        7.511       74.242      103.756       37.618       60.785       39.675     1415.081     3694.872     1574.103        1.151        0.334       74.621       42.575        0.326      345.063       22.328      862.097
09/21/2014  01:12:00       53.769      -84.061       11.883       47.272       77.994       37.595     2234.595     6083.035     1413.389        0.991        0.487       99.786       46.254        0.215      345.093       22.379      862.112
09/21/2014  01:13:00       56.166      -64.096        9.378       47.172       63.216       45.451     2225.201     3996.296     2065.769        0.782        0.414       85.223       40.671        0.228      345.055       22.313      862.141
09/21/2014  01:14:00       65.797      -24.561       40.291       72.622       90.090       52.029     5273.926     8116.281     2707.038        1.132        0.805       70.232       61.637        0.770      345.058       22.317      862.156
09/21/2014  01:15:00       45.183      -37.321       35.461       53.314      116.122       50.381     2842.343    13484.397     2538.253        1.177        0.943       58.604       63.492        1.174      345.063       22.326      862.158
09/21/2014  01:16:00       69.207       61.311       76.605       46.166       53.795       35.188     2131.273     2893.909     1238.169        1.034        0.313       92.459       34.303        0.138      345.015       22.244      862.181
09/21/2014  01:17:00       26.569       16.017       33.832       47.874       59.648       39.068     2291.882     3557.884     1526.292        0.474        0.369       31.024       26.249        0.716      344.969       22.165      862.175
09/21/2014  01:18:00       65.089      -46.319       15.403       63.989       61.888       36.336     4094.605     3830.118     1320.319        0.793        0.462       79.888       30.424        0.145      344.906       22.056      862.188
09/21/2014  01:19:00       46.460       -6.407       39.533       58.903       64.379       38.945     3469.571     4144.622     1516.733        0.644        0.457       46.900       45.872        0.957      344.894       22.038      862.190
09/21/2014  01:20:00       59.698      -98.637       -0.055       40.093       54.307       39.252     1607.429     2949.215     1540.724        0.969        0.305      115.296       31.724        0.076      344.931       22.099      862.191
09/21/2014  01:21:00       69.242      -36.041       27.432       76.334       83.016       47.776     5826.830     6891.692     2282.547        1.092        0.750       78.060       56.064        0.516      344.970       22.165      862.180
09/21/2014  01:22:00        8.064       51.250       70.460       42.852       39.136       29.987     1836.264     1531.621      899.240        0.596        0.213       51.880       28.025        0.292      344.937       22.110      862.167
09/21/2014  01:23:00       92.869       63.218       56.111       51.444       36.143       27.235     2646.497     1306.311      741.735        1.023        0.235      112.344       11.902        0.011      344.894       22.039      862.164
09/21/2014  01:24:00       61.991       62.089       50.899       54.299       34.618       39.003     2948.344     1198.372     1521.246        0.798        0.283       87.738       29.905        0.116      344.940       22.117      862.158
09/21/2014  01:25:00       -3.379       43.686       75.081       24.047       40.419       25.615      578.241     1633.673      656.123        0.521        0.143       43.816       20.949        0.229      344.939       22.115      862.162
09/21/2014  01:26:00       70.734      -10.095       46.233       71.450       73.798       65.424     5105.089     5446.087     4280.243        1.103        0.742       71.451       61.128        0.732      344.916       22.074      862.158
09/21/2014  01:27:00       18.009      -30.275       27.904       51.313       57.712       47.567     2633.026     3330.691     2262.617        0.512        0.411       35.226       35.931        1.040      344.918       22.078      862.144
09/21/2014  01:28:00       43.637      -68.991       10.364       59.248       82.795       36.187     3510.351     6855.062     1309.477        0.922        0.584       81.633       42.462        0.271      344.925       22.089      862.131
09/21/2014  01:29:00       60.666      -54.322       23.056       51.502       90.318       50.641     2652.489     8157.304     2564.504        1.027        0.669       81.432       60.967        0.561      344.980       22.186      862.146
09/21/2014  01:30:00       81.491      -22.146       35.638       74.849       71.200       51.630     5602.349     5069.468     2665.612        1.087        0.667       84.446       53.797        0.406      344.948       22.128      862.163
09/21/2014  01:31:00       73.726      -42.841       13.291       53.150       66.888       34.496     2824.975     4473.986     1190.008        0.797        0.424       85.269       35.091        0.169      344.925       22.090      862.166
09/21/2014  01:32:00       40.048     -115.651        9.719       45.435       77.380       44.801     2064.320     5987.677     2007.136        1.256        0.503      122.389       44.168        0.130      344.935       22.105      862.162
09/21/2014  01:33:00       24.356       -0.194       42.174       40.316       63.342       37.858     1625.349     4012.165     1433.208        0.472        0.354       24.357       30.538        1.572      344.867       21.992      862.176
09/21/2014  01:34:00       74.889      -39.768       44.835       72.381       85.614       52.085     5239.075     7329.830     2712.818        1.224        0.764       84.793       62.647        0.546      344.885       22.021      862.174
09/21/2014  01:35:00      159.028     -179.655      -27.166       68.253       70.605       53.702     4658.447     4985.015     2883.883        3.541        0.626      239.929       50.368        0.044      344.934       22.100      862.184
09/21/2014  01:36:00       67.085      -51.374       46.656       99.451      138.498       89.219     9890.566    19181.583     7960.021        2.317        1.852       84.496      109.681        1.685      344.944       22.121      862.184
09/21/2014  01:37:00       90.943      -72.122       34.662       77.515      127.992       79.190     6008.637    16382.005     6271.087        2.166        1.433      116.070       93.515        0.649      344.972       22.169      862.216
09/21/2014  01:38:00      109.141      -26.919       79.829       85.785       99.291       66.244     7359.142     9858.795     4388.312        2.030        1.080      112.412       69.075        0.378      344.911       22.064      862.235
09/21/2014  01:39:00      103.493     -128.111       -7.447       76.717       74.194       53.192     5885.455     5504.680     2829.367        2.070        0.711      164.691       58.196        0.125      344.912       22.065      862.251
09/21/2014  01:40:00       79.983      -67.778       18.187       67.877       86.384       57.335     4607.299     7462.119     3287.293        1.334        0.768      104.839       63.184        0.363      344.867       21.991      862.275
09/21/2014  01:41:00       44.537      -50.747       17.227       47.171       78.664       43.344     2225.121     6188.018     1878.684        0.757        0.515       67.519       54.868        0.660      344.855       21.970      862.298
09/21/2014  01:42:00       34.932        4.606       33.886       29.715       36.687       34.913      882.955     1345.938     1218.905        0.292        0.172       35.234       12.603        0.128      344.792       21.864      862.313
09/21/2014  01:43:00      104.656     -122.742       -4.321       78.885       79.686       37.032     6222.914     6349.875     1371.371        1.999        0.697      161.302       47.723        0.088      344.842       21.945      862.315
09/21/2014  01:44:00       54.701      -64.463       17.082       57.153       81.489       43.663     3266.502     6640.504     1906.450        0.962        0.591       84.544       57.299        0.459      344.847       21.956      862.305
09/21/2014  01:45:00       41.991       -3.765       46.795       40.018       39.710       28.590     1601.454     1576.864      817.374        0.398        0.200       42.159       26.098        0.383      344.795       21.866      862.296
09/21/2014  01:46:00      128.125      -63.452       22.581       59.582       45.626       38.247     3549.958     2081.761     1462.854        1.402        0.355      142.976       33.746        0.056      344.885       22.021      862.285
09/21/2014  01:47:00       44.642      -15.776       29.885       52.360       78.867       46.577     2741.595     6220.011     2169.449        0.713        0.557       47.348       48.936        1.068      344.884       22.021      862.273
09/21/2014  01:48:00       99.527      -83.233       10.516       63.531       61.207       40.414     4036.225     3746.324     1633.288        1.318        0.471      129.744       39.703        0.094      344.875       22.003      862.278
09/21/2014  01:49:00      100.610     -150.140      -20.028       59.539       81.947       54.168     3544.854     6715.359     2934.199        2.313        0.660      180.733       48.156        0.071      344.887       22.022      862.286
09/21/2014  01:50:00       83.991     -101.208        2.645       59.799       95.439       36.465     3575.921     9108.597     1329.721        1.566        0.701      131.520       51.094        0.151      344.855       21.968      862.299
09/21/2014  01:51:00       52.691       51.301       60.988       48.817       41.383       27.971     2383.117     1712.538      782.387        0.700        0.244       73.540       14.941        0.041      344.787       21.855      862.301
09/21/2014  01:52:00       35.447       74.937       83.457       55.884       52.141       30.123     3123.034     2718.709      907.411        1.029        0.337       82.898       30.001        0.131      344.753       21.795      862.301
09/21/2014  01:53:00       22.730       33.423       56.952       35.847       39.747       21.379     1285.032     1579.846      457.058        0.410        0.166       40.420       21.139        0.274      344.725       21.747      862.303
09/21/2014  01:54:00        4.321       39.567       60.793       26.726       35.619       23.826      714.287     1268.716      567.696        0.391        0.128       39.802       24.248        0.371      344.726       21.748      862.303
09/21/2014  01:55:00       -4.483       23.501       44.116       19.264       20.691       13.858      371.105      428.105      192.031        0.175        0.050       23.925        9.946        0.173      344.763       21.812      862.285
09/21/2014  01:56:00       46.201      -48.702        0.352       37.256       31.994       18.768     1388.020     1023.642      352.247        0.363        0.138       67.130       20.302        0.091      344.757       21.800      862.283
09/21/2014  01:57:00       53.712      -40.950        6.628       44.012       44.692       26.501     1937.018     1997.341      702.322        0.462        0.232       67.542       32.283        0.228      344.736       21.765      862.296
09/21/2014  01:58:00       49.008      -20.425       17.774       38.150       32.264       25.518     1455.456     1040.942      651.181        0.314        0.157       53.094       25.749        0.235      344.720       21.738      862.304
09/21/2014  01:59:00       74.692      -80.699        2.623       27.460       33.912       22.475      754.059     1150.003      505.128        0.725        0.120      109.960       16.228        0.022      344.775       21.832      862.307
09/21/2014  02:00:00       61.902     -114.963       -5.077       27.178       34.962       18.007      738.656     1222.325      324.268        0.968        0.114      130.570        7.279        0.003      344.762       21.810      862.299
09/21/2014  02:01:00       47.720      -39.546        7.274       33.540       24.040       23.436     1124.938      577.945      549.237        0.307        0.113       61.976       17.909        0.084      344.745       21.781      862.295
09/21/2014  02:02:00       64.770      -50.403        0.909       34.264       29.141       22.847     1174.038      849.184      521.964        0.464        0.127       82.070       15.423        0.035      344.737       21.765      862.290
09/21/2014  02:03:00       45.669       19.072       31.403       31.603       32.841       22.757      998.740     1078.503      517.863        0.301        0.130       49.491       23.362        0.223      344.694       21.695      862.290
09/21/2014  02:04:00       23.672        7.067       15.448       25.354       15.452       10.758      642.821      238.776      115.741        0.092        0.050       24.705        6.715        0.074      344.698       21.701      862.297
09/21/2014  02:05:00       86.820       45.873       13.819       31.325       18.684       18.674      981.254      349.074      348.709        0.576        0.084       98.194       10.398        0.011      344.719       21.737      862.304
09/21/2014  02:06:00       71.252       56.594       28.708       34.912       29.032       27.158     1218.864      842.886      737.546        0.595        0.140       90.993       18.700        0.042      344.670       21.654      862.313
09/21/2014  02:07:00      101.787       58.427       26.198       33.153       22.586       23.748     1099.106      510.122      563.958        0.832        0.109      117.364       21.368        0.033      344.668       21.650      862.311
09/21/2014  02:08:00       92.800       42.102        4.250       25.503       22.492       20.243      650.402      505.887      409.767        0.598        0.078      101.904       15.220        0.022      344.643       21.608      862.306
09/21/2014  02:09:00       57.747       40.875       21.666       24.791       13.886       19.712      614.587      192.826      388.547        0.334        0.060       70.749       15.305        0.047      344.581       21.501      862.300
09/21/2014  02:10:00       63.017       42.522       21.897       15.425       15.058       12.291      237.925      226.752      151.058        0.344        0.031       76.022        9.164        0.015      344.536       21.424      862.287
09/21/2014  02:11:00       49.169       29.954        0.576       29.150       25.444       11.022      849.719      647.400      121.481        0.247        0.081       57.575       14.790        0.066      344.540       21.432      862.281
09/21/2014  02:12:00       30.490       29.021       18.229       29.883       24.324       15.828      893.019      591.681      250.527        0.192        0.087       42.093       13.554        0.104      344.534       21.420      862.272
09/21/2014  02:13:00       92.598       42.596       18.604       31.563       39.833       28.567      996.254     1586.704      816.066        0.707        0.170      101.926       20.261        0.040      344.608       21.548      862.249
09/21/2014  02:14:00       45.018       12.565       27.160       43.298       39.366       29.718     1874.760     1549.647      883.175        0.361        0.215       46.738       31.526        0.455      344.557       21.461      862.236
09/21/2014  02:15:00       57.845       29.578       35.995       36.519       32.878       29.980     1333.605     1080.934      898.791        0.441        0.166       64.968       25.177        0.150      344.559       21.463      862.220
09/21/2014  02:16:00       15.577       19.643       28.770       33.189       32.379       25.383     1101.478     1048.396      644.297        0.212        0.140       25.070       19.829        0.626      344.602       21.537      862.198
09/21/2014  02:17:00       56.992       24.506       37.230       53.570       37.766       33.371     2869.764     1426.287     1113.599        0.532        0.270       62.038       28.371        0.209      344.584       21.507      862.182
09/21/2014  02:18:00       81.488       51.443       14.308       34.952       31.372       26.267     1221.664      984.193      689.978        0.619        0.145       96.367       18.818        0.038      344.590       21.517      862.172
09/21/2014  02:19:00       73.780       50.201       27.192       23.555       25.348       25.895      554.837      642.531      670.528        0.529        0.093       89.239       13.492        0.023      344.518       21.395      862.174
09/21/2014  02:20:00      125.801       59.726       16.471       30.515       23.588       21.607      931.178      556.389      466.874        1.081        0.098      139.259       12.809        0.008      344.490       21.344      862.169
09/21/2014  02:21:00      116.054       65.953       16.036       24.683       26.609       19.122      609.269      708.023      365.653        0.988        0.084      133.485       11.505        0.007      344.457       21.291      862.158
09/21/2014  02:22:00      120.326       68.224       19.845       32.860       22.819       19.002     1079.780      520.719      361.085        1.074        0.098      138.321       14.241        0.011      344.439       21.259      862.142
09/21/2014  02:23:00       99.029       62.571       25.781       26.094       18.702       17.012      680.919      349.783      289.423        0.785        0.066      117.140       14.140        0.015      344.441       21.260      862.119
09/21/2014  02:24:00      106.898       53.033       13.781       29.101       24.658       21.201      846.855      608.017      449.484        0.817        0.095      119.330       17.510        0.022      344.455       21.286      862.108
09/21/2014  02:25:00      114.881       52.686        2.345       23.300       21.141       17.560      542.894      446.926      308.370        0.864        0.065      126.386       12.943        0.010      344.430       21.243      862.105
09/21/2014  02:26:00      122.492       50.737        2.102       41.168       31.316       29.019     1694.768      980.678      842.078        1.055        0.176      132.584       18.538        0.020      344.420       21.225      862.113
09/21/2014  02:27:00      104.066       69.329       17.452       42.792       44.209       38.347     1831.130     1954.430     1470.496        1.060        0.263      125.045       30.211        0.058      344.335       21.080      862.120
09/21/2014  02:28:00      100.468       75.250       45.526       37.955       30.843       31.785     1440.555      951.315     1010.296        1.061        0.170      125.525       22.683        0.033      344.309       21.036      862.115
09/21/2014  02:29:00       58.563       55.446       60.356       47.458       35.938       23.297     2252.261     1291.568      542.754        0.712        0.204       80.646       17.849        0.049      344.266       20.962      862.111
09/21/2014  02:30:00      161.525       89.516       37.143       40.291       39.313       39.563     1623.377     1545.522     1565.211        2.011        0.237      184.671       18.825        0.010      344.319       21.053      862.111
09/21/2014  02:31:00      112.006       64.882        8.991       58.635       38.124       31.007     3438.057     1453.427      961.463        1.134        0.293      129.442        6.393        0.002      344.215       20.873      862.109
09/21/2014  02:32:00      113.777       71.374       17.194       55.209       43.569       33.842     3048.082     1898.266     1145.250        1.221        0.305      134.311       23.784        0.031      344.183       20.820      862.102
09/21/2014  02:33:00      123.603       52.663       16.180       36.478       30.743       29.591     1330.667      945.147      875.605        1.073        0.158      134.354       21.870        0.026      344.132       20.734      862.100
09/21/2014  02:34:00      148.579       94.829       29.560       41.325       42.768       30.833     1707.735     1829.093      950.669        1.821        0.224      176.262       21.695        0.015      344.178       20.813      862.098
09/21/2014  02:35:00      100.085       63.926       33.044       45.464       45.110       36.925     2066.969     2034.881     1363.456        1.033        0.273      118.758       32.053        0.073      344.118       20.709      862.072
09/21/2014  02:36:00      132.330       97.592       11.410       39.441       35.548       35.835     1555.623     1263.689     1284.148        1.563        0.205      164.424       24.219        0.022      344.123       20.718      862.058
09/21/2014  02:37:00      139.775       87.690       21.224       53.739       37.091       37.981     2887.857     1375.748     1442.547        1.669        0.285      165.005       20.300        0.015      344.133       20.735      862.048
09/21/2014  02:38:00       97.500       73.069       11.838       44.654       40.578       36.425     1993.940     1646.571     1326.761        0.998        0.248      121.842       28.707        0.056      344.073       20.633      862.039
09/21/2014  02:39:00      160.305      101.379       22.894       65.958       50.607       38.898     4350.517     2561.117     1513.070        2.246        0.421      189.672       29.986        0.025      344.091       20.662      862.029
09/21/2014  02:40:00      101.361       69.551       14.723       52.403       44.647       27.224     2746.057     1993.314      741.159        1.040        0.274      122.929       12.753        0.011      343.999       20.508      862.024
09/21/2014  02:41:00      125.312       89.141        7.472       48.572       37.411       30.735     2359.276     1399.561      944.620        1.420        0.235      153.783       20.604        0.018      343.979       20.471      862.028
09/21/2014  02:42:00      127.085       87.062       20.754       51.972       37.089       33.342     2701.064     1375.580     1111.705        1.467        0.259      154.047       24.122        0.025      343.950       20.423      862.012
09/21/2014  02:43:00      115.229       55.326       17.852       58.080       36.356       36.343     3373.251     1321.724     1320.822        1.134        0.301      127.822       24.477        0.037      343.935       20.398      861.993
09/21/2014  02:44:00      128.908       86.017       15.953       46.236       47.283       50.599     2137.747     2235.642     2560.226        1.560        0.347      154.972       38.513        0.062      343.924       20.377      861.981
09/21/2014  02:45:00      180.046      118.384       31.514       37.630       28.159       27.444     1416.015      792.927      753.158        2.519        0.148      215.479       15.447        0.005      343.960       20.438      861.980
09/21/2014  02:46:00      105.905       81.511       19.101       49.094       35.061       31.067     2410.213     1229.298      965.133        1.141        0.230      133.641       18.590        0.019      343.939       20.405      861.984
09/21/2014  02:47:00       70.011       40.472       15.638       37.200       27.106       18.908     1383.858      734.729      357.507        0.463        0.124       80.867       14.377        0.032      343.908       20.351      861.969
09/21/2014  02:48:00      101.010       50.640       14.491       39.271       33.072       32.716     1542.234     1093.749     1070.345        0.834        0.185      112.993       15.528        0.019      343.918       20.367      861.948
09/21/2014  02:49:00       72.161       50.086        7.761       24.529       23.124       23.543      601.648      534.724      554.285        0.473        0.085       87.839       17.574        0.040      343.860       20.270      861.932
09/21/2014  02:50:00      137.497       99.409       18.956       48.896       36.861       28.635     2390.867     1358.759      819.982        1.686        0.228      169.669       17.067        0.010      343.895       20.328      861.916
09/21/2014  02:51:00       67.501       36.268       24.619       40.330       31.826       25.513     1626.534     1012.875      650.901        0.488        0.165       76.627       15.685        0.042      343.899       20.336      861.900
09/21/2014  02:52:00      116.960       51.276       32.821       46.134       41.016       31.861     2128.308     1682.280     1015.116        1.110        0.241      127.706       23.289        0.033      343.865       20.277      861.883
09/21/2014  02:53:00      121.973       47.115       22.020       48.412       33.204       29.343     2343.686     1102.473      861.015        1.094        0.215      130.757       21.912        0.028      343.866       20.280      861.880
09/21/2014  02:54:00       96.904       22.819        5.382       56.360       38.473       30.497     3176.449     1480.208      930.080        0.776        0.279       99.554       30.486        0.094      343.897       20.333      861.893
09/21/2014  02:55:00       99.068       74.146       38.154       36.462       39.152       35.965     1329.461     1532.883     1293.455        1.046        0.208      123.742       15.984        0.017      343.831       20.221      861.896
09/21/2014  02:56:00      111.562       81.286       35.304       94.844       58.610       55.317     8995.354     3435.137     3059.948        1.789        0.775      138.034       35.160        0.065      343.816       20.194      861.904
09/21/2014  02:57:00       87.999       45.768       44.703       77.079       42.893       40.025     5941.098     1839.849     1602.004        1.061        0.469       99.189       30.890        0.097      343.885       20.311      861.925
09/21/2014  02:58:00       40.885       66.237       75.132       55.047       46.100       30.266     3030.161     2125.201      916.055        0.889        0.304       77.839       25.436        0.107      343.933       20.393      861.932
09/21/2014  02:59:00       61.818       99.001       84.779       79.974       52.255       49.265     6395.910     2730.536     2427.038        1.618        0.578      116.716       42.352        0.132      343.904       20.343      861.919
09/21/2014  03:00:00        8.777      -26.647       36.812       37.955       50.921       35.428     1440.557     2592.932     1255.150        0.371        0.264       28.055       29.663        1.118      343.967       20.452      861.931
09/21/2014  03:01:00       17.725       24.327       54.223       33.185       45.448       33.372     1101.266     2065.508     1113.668        0.406        0.214       30.099       29.887        0.986      343.894       20.327      861.940
09/21/2014  03:02:00       33.853      -11.549       70.244       34.622       47.169       35.638     1198.705     2224.874     1270.047        0.545        0.235       35.768       30.485        0.726      343.864       20.276      861.968
09/21/2014  03:03:00       39.266      -26.465       22.806       39.156       36.008       30.575     1533.231     1296.557      934.823        0.326        0.188       47.352       26.363        0.310      343.848       20.249      861.983
09/21/2014  03:04:00       70.485      -33.018       15.048       36.238       56.994       37.030     1313.201     3248.358     1371.220        0.611        0.297       77.835       41.296        0.281      343.884       20.309      861.980
09/21/2014  03:05:00       41.706       29.109       42.935       45.591       37.173       32.475     2078.500     1381.849     1054.639        0.447        0.226       50.860       32.087        0.398      343.874       20.294      861.992
09/21/2014  03:06:00       39.237       -0.840       39.952       40.827       48.869       31.279     1666.829     2388.194      978.390        0.408        0.252       39.246       35.399        0.814      343.932       20.392      861.986
09/21/2014  03:07:00       48.657        3.706       30.117       34.131       32.372       30.311     1164.902     1047.916      918.764        0.321        0.157       48.798       26.125        0.287      343.963       20.443      861.983
09/21/2014  03:08:00        8.731       -6.708       11.573       15.471       14.958       12.374      239.342      223.746      153.127        0.044        0.031       11.011        9.097        0.683      343.975       20.466      861.982
09/21/2014  03:09:00       52.080       -9.478       24.588       29.849       61.522       36.259      890.954     3785.015     1314.727        0.470        0.300       52.936       41.793        0.623      344.024       20.549      861.962
09/21/2014  03:10:00      107.849       32.747       43.916       67.324       52.298       34.452     4532.581     2735.032     1186.967        1.154        0.423      112.711       36.224        0.103      344.046       20.586      861.935
09/21/2014  03:11:00       53.710       17.465       38.585       59.432       45.929       41.233     3532.134     2109.455     1700.120        0.601        0.367       56.478       41.111        0.530      344.073       20.633      861.928
09/21/2014  03:12:00       46.574       23.065       21.981       38.612       27.755       21.273     1490.894      770.367      452.545        0.295        0.136       51.973       12.979        0.062      344.026       20.553      861.925
09/21/2014  03:13:00       31.814      -79.941        3.069       32.716       41.905       32.126     1070.363     1756.022     1032.080        0.563        0.193       86.039       21.515        0.063      344.063       20.617      861.938
09/21/2014  03:14:00       13.734      -84.478        3.364       33.016       28.977       22.413     1090.035      839.649      502.327        0.488        0.122       85.587       13.218        0.024      344.132       20.735      861.933
09/21/2014  03:15:00       33.675      -74.213       -1.233       59.973       63.492       40.056     3596.747     4031.213     1604.480        0.794        0.462       81.496       25.015        0.094      344.132       20.734      861.936
09/21/2014  03:16:00       34.510      -37.553        1.855       50.145       83.187       32.721     2514.480     6920.017     1070.654        0.655        0.525       51.002       43.526        0.728      344.127       20.726      861.936
09/21/2014  03:17:00       73.239      -41.200       19.969       60.107       65.765       45.316     3612.872     4325.052     2053.569        0.872        0.500       84.032       39.500        0.221      344.083       20.650      861.935
09/21/2014  03:18:00      117.666     -154.961        5.139       81.186      115.397       61.288     6591.151    13316.562     3756.275        3.077        1.183      194.572       66.314        0.116      344.050       20.594      861.909
09/21/2014  03:19:00       23.489      -31.233       43.962       53.739       94.899       52.767     2887.902     9005.888     2784.375        0.907        0.734       39.079       54.804        1.967      343.998       20.506      861.907
09/21/2014  03:20:00      -15.823       59.628       73.828       43.653       51.095       43.335     1905.556     2610.742     1877.928        0.782        0.320       61.692       32.131        0.271      343.963       20.446      861.921
09/21/2014  03:21:00       23.196       -7.737       55.963       47.911       50.800       44.276     2295.445     2580.619     1960.335        0.528        0.342       24.453       29.177        1.424      343.980       20.475      861.930
09/21/2014  03:22:00       65.496       77.737      105.539       70.190       79.252       50.941     4926.592     6280.956     2594.958        1.763        0.690      101.650       51.780        0.259      343.939       20.403      861.930
09/21/2014  03:23:00      114.164      -65.919       67.641      111.763      180.286      116.945    12490.897    32503.193    13676.185        4.030        2.934      131.829      126.051        0.914      343.917       20.364      861.915
09/21/2014  03:24:00      160.071     -116.257       11.486      136.207      132.573       70.045    18552.345    17575.724     4906.250        4.014        2.052      197.834       74.364        0.141      343.895       20.328      861.920
09/21/2014  03:25:00      113.209     -190.375       17.316       87.994      153.635       82.392     7743.025    23603.584     6788.403        4.374        1.907      221.492       96.221        0.189      343.907       20.347      861.918
09/21/2014  03:26:00       71.911       28.855       71.531       65.841       67.266       41.956     4334.972     4524.648     1760.333        1.087        0.531       77.485       44.187        0.325      343.864       20.276      861.917
09/21/2014  03:27:00       73.233       33.122       88.754       95.200      112.018       67.515     9062.985    12548.126     4558.256        2.025        1.308       80.374       81.560        1.030      343.873       20.290      861.896
09/21/2014  03:28:00      124.978      -43.325       75.106      117.217      163.793       87.043    13739.773    26828.204     7576.489        3.563        2.407      132.275      113.815        0.740      343.864       20.272      861.860
09/21/2014  03:29:00       98.597      -39.814       34.423       93.515      105.232       56.206     8745.148    11073.814     3159.157        1.773        1.149      106.332       69.915        0.432      343.844       20.240      861.860
09/21/2014  03:30:00       94.511     -121.974       -6.873       83.457      123.558       57.306     6965.101    15266.640     3284.016        2.468        1.276      154.305       58.455        0.144      343.849       20.248      861.860
09/21/2014  03:31:00      229.331      -63.052       38.029      127.445      147.322       87.202    16242.116    21703.815     7604.250        5.177        2.278      237.841       93.182        0.153      343.827       20.209      861.845
09/21/2014  03:32:00       73.596       66.983      124.885      108.564      112.909       80.650    11786.210    12748.418     6504.498        2.826        1.552       99.514       91.880        0.852      343.852       20.251      861.855
09/21/2014  03:33:00       79.880       47.236       87.283       95.942       70.548       67.024     9204.962     4977.065     4492.209        1.745        0.934       92.801       55.872        0.362      343.899       20.332      861.869
09/21/2014  03:34:00       67.225     -120.697        9.063       57.337       81.951       52.839     3287.492     6715.894     2791.916        1.598        0.640      138.155       50.183        0.132      343.835       20.225      861.877
09/21/2014  03:35:00       50.252      -64.749       36.271       57.878      103.204       55.608     3349.907    10651.131     3092.240        1.256        0.855       81.962       55.646        0.461      343.836       20.226      861.877
09/21/2014  03:36:00       69.831      -34.651       43.495       66.294       76.444       43.427     4394.868     5843.722     1885.919        1.004        0.606       77.956       45.307        0.338      343.817       20.197      861.870
09/21/2014  03:37:00       52.002      -19.600       27.372       36.621       83.749       42.557     1341.094     7013.851     1811.099        0.700        0.508       55.574       51.156        0.847      343.816       20.194      861.854
09/21/2014  03:38:00       38.277       43.002       62.857       30.159       32.193       30.259      909.586     1036.410      915.580        0.506        0.143       57.570       23.833        0.171      343.790       20.152      861.853
09/21/2014  03:39:00       97.570       72.793       78.712       82.734       72.117       62.240     6844.933     5200.851     3873.820        1.846        0.796      121.732       49.508        0.165      343.755       20.089      861.828
09/21/2014  03:40:00      100.134        6.605       30.458       77.549       59.728       50.854     6013.770     3567.478     2586.120        1.158        0.608      100.352       34.582        0.119      343.732       20.050      861.810
09/21/2014  03:41:00       80.035       84.238       69.070       60.944       61.988       49.237     3714.210     3842.521     2424.284        1.412        0.499      116.197       30.230        0.068      343.731       20.049      861.800
09/21/2014  03:42:00       10.296       -2.740       44.411       39.575       53.242       26.373     1566.190     2834.746      695.530        0.359        0.255       10.655       16.244        2.324      343.743       20.070      861.788
09/21/2014  03:43:00       70.307      -71.070       17.486       65.867       85.387       50.195     4338.402     7290.896     2519.555        1.222        0.707       99.970       59.865        0.359      343.733       20.052      861.779
09/21/2014  03:44:00       71.605      -23.690       30.518       56.108       42.399       36.503     3148.117     1797.699     1332.494        0.645        0.314       75.422       34.208        0.206      343.727       20.041      861.762
09/21/2014  03:45:00       45.325       53.339       63.780       55.256       34.047       41.024     3053.200     1159.178     1682.960        0.743        0.295       69.996       29.607        0.179      343.716       20.023      861.760
09/21/2014  03:46:00       88.047       59.554       78.039       75.998       41.519       45.385     5775.772     1723.867     2059.817        1.347        0.478      106.296       37.500        0.124      343.704       20.003      861.780
09/21/2014  03:47:00      104.306      111.987       87.675       85.658       50.224       44.342     7337.353     2522.487     1966.229        2.146        0.591      153.039       41.961        0.075      343.695       19.988      861.788
09/21/2014  03:48:00      160.466       66.431       69.372       85.952       68.912       61.495     7387.796     4748.839     3781.655        2.544        0.796      173.674       59.464        0.117      343.720       20.028      861.781
09/21/2014  03:49:00       99.437       31.102       44.472       77.544       67.724       47.196     6013.025     4586.571     2227.473        1.283        0.641      104.187       35.235        0.114      343.720       20.030      861.781
09/21/2014  03:50:00       81.022       49.892       74.547       85.297       98.307       47.849     7275.561     9664.262     2289.486        1.692        0.961       95.151       50.513        0.282      343.758       20.094      861.768
09/21/2014  03:51:00      120.870       74.595       57.988      120.628       95.312       59.964    14551.001     9084.419     3595.697        2.538        1.362      142.036       45.466        0.102      343.755       20.087      861.766
09/21/2014  03:52:00      128.100       83.200       65.376       79.214       63.113       49.785     6274.795     3983.303     2478.523        2.017        0.637      152.748       46.271        0.092      343.725       20.037      861.767
09/21/2014  03:53:00       98.326       71.084       69.186       78.617       65.223       39.988     6180.618     4254.032     1599.038        1.577        0.602      121.330       28.716        0.056      343.757       20.092      861.768
09/21/2014  03:54:00       63.795       72.980       72.363       57.832       46.684       38.212     3344.536     2179.423     1460.172        1.081        0.349       96.932       24.322        0.063      343.721       20.031      861.773
09/21/2014  03:55:00      122.584       76.389       63.843       68.372       39.347       35.592     4674.715     1548.161     1266.771        1.621        0.374      144.437       33.090        0.052      343.676       19.954      861.784
09/21/2014  03:56:00      153.221       32.430       52.431       93.316       72.629       55.315     8707.960     5274.950     3059.773        2.216        0.852      156.615       45.150        0.083      343.718       20.024      861.782
09/21/2014  03:57:00      138.481       34.754       55.458       64.085       54.112       47.822     4106.879     2928.080     2286.920        1.639        0.466      142.775       33.946        0.057      343.698       19.991      861.795
09/21/2014  03:58:00      105.018       88.386       69.740       71.098       50.097       50.952     5054.918     2509.670     2596.094        1.693        0.508      137.262       43.949        0.103      343.683       19.966      861.799
09/21/2014  03:59:00       95.609       43.505       60.981       69.169       68.262       44.960     4784.328     4659.700     2021.383        1.311        0.573      105.041       37.257        0.126      343.673       19.949      861.790
09/21/2014  04:00:00      135.717       61.400       81.327       95.772       94.077       73.774     9172.224     8850.543     5442.602        2.613        1.173      148.960       59.427        0.159      343.722       20.030      861.797
09/21/2014  04:01:00      148.524       79.729       66.192       65.562       67.520       47.921     4298.416     4558.884     2296.393        2.197        0.558      168.571       36.040        0.046      343.737       20.056      861.798
09/21/2014  04:02:00       80.973       60.165       63.072       60.146       49.271       40.688     3617.564     2427.636     1655.512        1.093        0.385      100.878       29.305        0.084      343.704       20.002      861.803
09/21/2014  04:03:00      113.769       69.406       50.832       77.230       46.202       45.852     5964.534     2134.627     2102.378        1.527        0.510      133.269       33.420        0.063      343.715       20.021      861.796
09/21/2014  04:04:00      130.764      128.862      104.202       91.677       84.317       63.083     8404.732     7109.430     3979.408        3.202        0.975      183.588       43.054        0.055      343.780       20.130      861.790
09/21/2014  04:05:00       84.425       47.283       73.153       87.923       79.284       53.432     7730.496     6285.911     2854.939        1.579        0.844       96.764       58.012        0.359      343.796       20.158      861.800
09/21/2014  04:06:00       43.805       39.821       44.008       49.305       45.144       34.092     2430.936     2037.979     1162.245        0.554        0.282       59.200       21.020        0.126      343.755       20.090      861.816
09/21/2014  04:07:00       81.430       49.807       25.774       33.772       28.997       25.200     1140.562      840.852      635.045        0.620        0.131       95.455       15.076        0.025      343.668       19.942      861.837
09/21/2014  04:08:00      112.005       63.626       40.632       52.196       41.898       30.722     2724.417     1755.439      943.862        1.183        0.271      128.816       20.921        0.026      343.680       19.963      861.850
09/21/2014  04:09:00       74.505       48.655       29.519       35.087       31.847       35.601     1231.105     1014.230     1267.410        0.615        0.176       88.985       17.614        0.039      343.661       19.930      861.864
09/21/2014  04:10:00       37.193       10.454       20.432       34.526       48.783       27.368     1192.033     2379.809      748.991        0.311        0.216       38.635       26.471        0.469      343.655       19.919      861.877
09/21/2014  04:11:00       37.169       18.828       18.119       27.820       28.544       18.103      773.976      814.780      327.729        0.199        0.096       41.666       20.960        0.253      343.685       19.969      861.877
09/21/2014  04:12:00       46.619       51.467       -4.219       28.312       15.516       17.469      801.570      240.749      305.161        0.309        0.067       69.441       12.595        0.033      343.644       19.899      861.880
09/21/2014  04:13:00        5.040       39.572       -1.236       22.131       18.724       12.439      489.788      350.575      154.739        0.129        0.050       39.892       10.832        0.074      343.614       19.849      861.879
09/21/2014  04:14:00       17.705       12.017        9.377       28.924       21.451       12.952      836.570      460.166      167.762        0.100        0.073       21.398        9.131        0.182      343.555       19.748      861.893
09/21/2014  04:15:00       -9.038        1.099        2.340       27.371       19.484       12.730      749.195      379.631      162.066        0.069        0.065        9.104        8.914        0.959      343.630       19.876      861.900
09/21/2014  04:16:00      -49.635      -14.363       -5.259       16.665       13.608       12.725      277.728      185.186      161.916        0.166        0.031       51.672        6.883        0.018      343.594       19.814      861.905
09/21/2014  04:17:00      -55.707      -16.081       -5.911       16.619       12.506       10.639      276.177      156.408      113.179        0.197        0.027       57.982        8.143        0.020      343.595       19.817      861.907
09/21/2014  04:18:00      -48.395      -14.163       -4.135       19.665       20.759        9.611      386.712      430.928       92.371        0.173        0.046       50.425        8.698        0.030      343.584       19.798      861.913
09/21/2014  04:19:00      -55.923      -22.540       -4.333       22.613       14.257       12.654      511.344      203.273      160.136        0.226        0.044       60.295        9.733        0.026      343.574       19.780      861.912
09/21/2014  04:20:00      -60.860      -34.345       -6.325       15.709       18.802       11.804      246.780      353.514      139.338        0.283        0.037       69.882        7.452        0.011      343.570       19.775      861.920
09/21/2014  04:21:00      -42.807      -10.353        4.669       27.623       19.799       13.542      763.024      392.013      183.397        0.165        0.067       44.041       15.108        0.118      343.523       19.695      861.931
09/21/2014  04:22:00      -42.378      -11.399        0.002       22.850       17.871       12.169      522.102      319.383      148.090        0.146        0.049       43.884       13.103        0.089      343.555       19.748      861.943
09/21/2014  04:23:00      -39.031        4.599        4.198       35.065       19.757       11.946     1229.552      390.341      142.697        0.166        0.088       39.301       17.568        0.200      343.543       19.729      861.953
09/21/2014  04:24:00      -69.149       -2.264       -3.609       18.793       31.598       12.383      353.172      998.452      153.328        0.315        0.075       69.186        8.481        0.015      343.576       19.785      861.961
09/21/2014  04:25:00     -103.878      -62.001       -7.616       29.078       18.795       13.912      845.512      353.267      193.553        0.804        0.070      120.974        9.169        0.006      343.491       19.641      861.969
09/21/2014  04:26:00     -125.025      -55.056      -10.977       28.342       41.918       15.560      803.271     1757.110      242.113        1.079        0.140      136.611       11.614        0.007      343.438       19.550      861.975
09/21/2014  04:27:00      -66.313       -6.977       -9.526       22.963       30.577       11.409      527.293      934.965      130.159        0.306        0.080       66.679        7.679        0.013      343.405       19.492      861.974
09/21/2014  04:28:00      -41.382       -4.154       -8.191       29.583       14.650       10.038      875.158      214.632      100.764        0.149        0.060       41.590        9.073        0.048      343.416       19.509      861.979
09/21/2014  04:29:00       -1.207      -15.124        1.694       15.933        9.147        8.684      253.848       83.660       75.420        0.032        0.021       15.172        9.433        0.387      343.436       19.544      861.976
09/21/2014  04:30:00       10.878      -26.598       18.058       18.931       20.523       16.157      358.390      421.207      261.061        0.110        0.052       28.736       10.647        0.137      343.423       19.523      861.971
09/21/2014  04:31:00       -8.901      -63.806       -7.231       14.441       14.372       12.028      208.551      206.543      144.677        0.238        0.028       64.424        7.729        0.014      343.434       19.541      861.975
09/21/2014  04:32:00      -17.317      -51.413      -11.351       26.812       19.039       18.369      718.888      362.487      337.417        0.225        0.071       54.251       14.259        0.069      343.493       19.643      861.978
09/21/2014  04:33:00      -35.705      -13.943       -8.583        9.021        9.178        8.400       81.372       84.244       70.566        0.089        0.012       38.331        4.579        0.014      343.529       19.706      861.972
09/21/2014  04:34:00      -60.352      -24.487      -12.159       25.226       36.734       18.327      636.329     1349.400      335.871        0.336        0.116       65.131       20.451        0.099      343.459       19.584      861.972
09/21/2014  04:35:00     -101.372      -25.082      -14.879       12.266       11.171        8.842      150.450      124.794       78.181        0.574        0.018      104.429        1.450        0.000      343.368       19.430      861.974
09/21/2014  04:36:00      -99.789      -29.935       -6.177       23.214       30.934       15.058      538.900      956.912      226.749        0.631        0.086      104.182        9.650        0.009      343.342       19.385      861.973
09/21/2014  04:37:00      -90.661      -17.310       -6.957       26.100       25.643       14.270      681.195      657.583      203.632        0.505        0.077       92.299       10.148        0.012      343.267       19.258      861.974
09/21/2014  04:38:00     -112.756      -31.266       -7.479       24.316       28.284       15.270      591.259      799.993      233.175        0.769        0.081      117.011       14.097        0.015      343.240       19.212      861.979
09/21/2014  04:39:00     -114.932      -18.933      -10.573       15.481       29.760       17.178      239.650      885.634      295.081        0.755        0.071      116.480        6.890        0.003      343.265       19.255      861.980
09/21/2014  04:40:00      -91.231      -23.508       -9.540       26.300       34.062       16.456      691.692     1160.204      270.816        0.554        0.106       94.211       10.256        0.012      343.262       19.249      861.984
09/21/2014  04:41:00     -113.526      -41.500        0.181       38.218       35.681       19.648     1460.641     1273.141      386.042        0.886        0.156      120.873       20.806        0.030      343.248       19.225      861.983
09/21/2014  04:42:00      -95.950      -27.345        0.175       38.316       44.011       19.844     1468.149     1936.965      393.775        0.688        0.190       99.770       17.805        0.032      343.272       19.268      861.988
09/21/2014  04:43:00      -84.073      -17.177       -1.593       44.502       35.143       18.663     1980.411     1235.014      348.324        0.546        0.178       85.810       15.147        0.031      343.233       19.201      861.991
09/21/2014  04:44:00      -70.508        6.657       -9.840       23.654       22.375       15.798      559.530      500.630      249.584        0.321        0.065       70.821       10.548        0.022      343.194       19.134      861.995
09/21/2014  04:45:00      -87.144       -2.224       -2.603       24.732       28.923       14.133      611.679      836.518      199.732        0.463        0.082       87.172       12.121        0.019      343.208       19.157      861.996
09/21/2014  04:46:00      -86.464        0.404       -9.050       24.330       17.778       14.798      591.953      316.066      218.981        0.434        0.056       86.464       11.894        0.019      343.174       19.100      861.994
09/21/2014  04:47:00     -100.318       -0.326      -11.908       19.087       20.826       10.712      364.306      433.702      114.746        0.556        0.046      100.318        8.781        0.008      343.142       19.045      861.996
09/21/2014  04:48:00      -74.224      -33.302       -2.713       18.583       28.891       16.564      345.329      834.698      274.363        0.404        0.073       81.353        8.973        0.012      343.136       19.037      861.992
09/21/2014  04:49:00      -82.706      -25.914       -0.505       27.168       25.677       15.739      738.117      659.333      247.717        0.458        0.082       86.670        6.111        0.005      343.134       19.031      861.988
09/21/2014  04:50:00      -77.252      -18.121        3.628       39.189       38.948       21.619     1535.742     1516.943      467.385        0.491        0.176       79.349       20.472        0.067      343.123       19.015      861.983
09/21/2014  04:51:00      -87.441      -19.582        3.916       40.679       36.496       22.156     1654.765     1331.938      490.871        0.576        0.174       89.607       21.554        0.058      343.057       18.900      861.973
09/21/2014  04:52:00      -91.880      -12.297       -1.694       46.671       27.933       18.731     2178.136      780.269      350.835        0.595        0.165       92.699       22.601        0.059      343.051       18.891      861.958
09/21/2014  04:53:00     -125.341      -33.817      -10.806       24.256       28.403       17.109      588.361      806.708      292.719        0.933        0.084      129.822       12.305        0.009      343.152       19.064      861.946
09/21/2014  04:54:00     -111.536      -29.531       -4.594       31.228       25.714       17.067      975.158      661.205      291.266        0.763        0.096      115.379       16.119        0.020      343.130       19.026      861.935
09/21/2014  04:55:00      -89.712      -10.816       -8.102       19.321       19.687       13.290      373.317      387.562      176.612        0.458        0.047       90.362       10.350        0.013      343.136       19.035      861.930
09/21/2014  04:56:00      -85.759       -9.840       -9.757       16.247       16.695       12.340      263.981      278.715      152.281        0.412        0.035       86.321       10.637        0.015      343.179       19.108      861.934
09/21/2014  04:57:00      -78.043        4.193       -7.077       18.445       16.695       11.203      340.202      278.729      125.507        0.345        0.037       78.155        8.973        0.013      343.145       19.051      861.940
09/21/2014  04:58:00      -63.772        3.387       -5.678       12.294       15.784       12.554      151.138      249.131      157.609        0.233        0.028       63.862        6.753        0.011      343.181       19.113      861.954
09/21/2014  04:59:00      -44.338       -2.134        1.433       15.420       15.058        8.983      237.766      226.745       80.701        0.126        0.027       44.390        4.738        0.011      343.246       19.222      861.962
09/21/2014  05:00:00      -34.906      -18.528       -2.287       10.839       15.239        6.807      117.474      232.241       46.332        0.098        0.020       39.519        3.204        0.007      343.241       19.215      861.963
09/21/2014  05:01:00      -48.858        3.398       -7.306       14.177       14.291        8.731      200.999      204.245       76.222        0.147        0.024       48.976        7.376        0.023      343.247       19.225      861.967
09/21/2014  05:02:00      -62.030      -22.966       -6.801       20.055       20.381        9.762      402.211      415.367       95.297        0.267        0.046       66.145        7.046        0.011      343.182       19.113      861.962
09/21/2014  05:03:00      -71.041       -2.480       -7.032       20.178       19.917       13.122      407.159      396.705      172.176        0.304        0.049       71.084        5.883        0.007      343.142       19.046      861.951
09/21/2014  05:04:00      -62.984        0.715       -8.030       24.366       22.014       15.233      593.707      484.624      232.051        0.267        0.066       62.988       13.641        0.047      343.104       18.980      861.946
09/21/2014  05:05:00      -82.112       -0.194       -8.743       32.766       19.672       14.244     1073.587      386.973      202.879        0.424        0.083       82.112       14.088        0.029      343.109       18.989      861.934
09/21/2014  05:06:00      -73.650       17.143      -10.724       39.525       25.184       15.544     1562.260      634.220      241.631        0.414        0.122       75.619       12.743        0.028      343.098       18.972      861.922
09/21/2014  05:07:00     -124.841       42.453      -12.766       23.958       16.149       13.683      573.988      260.801      187.223        0.929        0.051      131.862        4.421        0.001      343.154       19.067      861.910
09/21/2014  05:08:00      -94.975       25.342       -6.801       25.004       18.958       15.933      625.195      359.402      253.858        0.547        0.062       98.298        8.006        0.007      343.102       18.976      861.898
09/21/2014  05:09:00      -59.492       16.853       -4.117       25.591       19.466       10.658      654.918      378.936      113.602        0.249        0.057       61.833        8.353        0.018      343.169       19.093      861.896
09/21/2014  05:10:00      -45.715        1.845       -6.676       13.662       13.638        7.708      186.661      186.005       59.415        0.128        0.022       45.753        5.515        0.015      343.199       19.143      861.897
09/21/2014  05:11:00      -37.496       -7.328       -6.796       16.851       12.243       11.799      283.962      149.886      139.223        0.104        0.029       38.205        2.639        0.005      343.192       19.130      861.904
09/21/2014  05:12:00      -34.904       -2.820        0.651       14.282       15.992       10.116      203.976      255.748      102.330        0.089        0.028       35.018        7.943        0.051      343.147       19.054      861.917
09/21/2014  05:13:00      -63.832       14.070       -8.776       17.644       15.089       10.945      311.306      227.693      119.786        0.250        0.033       65.365        6.611        0.010      343.194       19.134      861.921
09/21/2014  05:14:00      -63.795       26.767       -6.562       20.598       16.703       13.130      424.283      278.994      172.406        0.285        0.044       69.183       11.575        0.028      343.199       19.142      861.921
09/21/2014  05:15:00      -92.395       52.127      -20.715       17.380       19.602       12.560      302.057      384.224      157.763        0.626        0.042      106.085        8.497        0.006      343.222       19.180      861.920
09/21/2014  05:16:00     -109.933       61.721      -22.357       27.416       27.359       18.303      751.623      748.516      335.011        0.911        0.092      126.075       14.320        0.013      343.111       18.993      861.914
09/21/2014  05:17:00     -105.697       28.120      -12.622       39.240       26.766       21.907     1539.742      716.443      479.930        0.743        0.137      109.374       22.929        0.044      343.112       18.995      861.902
09/21/2014  05:18:00      -43.316        4.214      -13.686       17.754       37.813       14.200      315.217     1429.846      201.626        0.201        0.097       43.521       11.678        0.072      343.073       18.928      861.894
09/21/2014  05:19:00      -75.055       18.758      -13.269       29.897       21.487       11.593      893.833      461.684      134.391        0.383        0.074       77.363       10.158        0.017      343.071       18.925      861.881
09/21/2014  05:20:00      -57.595       10.766       -7.338       20.616       17.032       12.727      425.036      290.079      161.979        0.218        0.044       58.592       10.507        0.032      343.074       18.931      861.871
09/21/2014  05:21:00      -60.859      -20.494       -4.766       21.740       25.914       13.498      472.627      671.522      182.206        0.274        0.066       64.217       13.585        0.045      343.050       18.891      861.862
09/21/2014  05:22:00      -41.335       -7.994       -4.302       26.903       16.702       11.928      723.750      278.957      142.268        0.147        0.057       42.101        5.214        0.015      343.012       18.823      861.868
09/21/2014  05:23:00      -33.512        1.061       -4.235       22.533       29.356       14.159      507.752      861.763      200.472        0.136        0.078       33.529       13.026        0.151      342.982       18.773      861.885
09/21/2014  05:24:00      -70.067      -39.672       -7.428       39.415       18.820       11.033     1553.540      354.195      121.731        0.428        0.101       80.519        8.442        0.011      342.935       18.693      861.893
09/21/2014  05:25:00      -74.366      -25.882       -3.245       56.058       16.823       14.211     3142.530      283.011      201.945        0.492        0.181       78.741       16.796        0.046      342.885       18.608      861.895
09/21/2014  05:26:00      -65.445      -52.090       -3.003       33.310       33.841       21.779     1109.584     1145.246      474.320        0.487        0.136       83.644       21.943        0.069      342.876       18.593      861.889
09/21/2014  05:27:00      -91.665      -53.248       -9.104       39.259       31.831       26.355     1541.299     1013.196      694.582        0.728        0.162      106.008       20.514        0.037      342.902       18.635      861.885
09/21/2014  05:28:00     -114.621      -62.021      -10.803       30.426       35.653       22.712      925.764     1271.168      515.851        0.991        0.136      130.325       13.264        0.010      342.885       18.608      861.889
09/21/2014  05:29:00      -90.313      -24.910       -1.144       27.321       27.817       15.280      746.429      773.774      233.468        0.527        0.088       93.685        9.344        0.010      342.925       18.676      861.897
09/21/2014  05:30:00      -53.966      -23.459        0.763       21.077       18.468       14.128      444.230      341.049      199.587        0.222        0.049       58.845       12.894        0.048      342.960       18.736      861.909
09/21/2014  05:31:00      -41.023      -28.685        3.498       33.044       15.082       15.036     1091.891      227.455      226.078        0.203        0.077       50.057       14.841        0.088      343.010       18.822      861.920
09/21/2014  05:32:00      -58.753      -32.362       -4.233       23.584       16.673       14.102      556.209      277.977      198.879        0.277        0.052       67.076       10.840        0.026      342.996       18.796      861.933
09/21/2014  05:33:00      -76.372      -47.954       -0.260       21.314       16.429       14.342      454.292      269.896      205.681        0.453        0.046       90.179       10.657        0.014      343.045       18.881      861.944
09/21/2014  05:34:00      -51.286      -28.731        4.903       26.907       17.372       12.910      723.999      301.792      166.666        0.234        0.060       58.785       14.179        0.058      343.055       18.898      861.961
09/21/2014  05:35:00      -30.454      -16.296        7.515       28.527       15.891       12.050      813.775      252.534      145.207        0.123        0.061       34.540       14.888        0.186      343.042       18.877      861.974
09/21/2014  05:36:00      -41.310       -6.746       -3.721       22.169       18.556       11.798      491.465      344.314      139.192        0.137        0.049       41.857       11.958        0.082      342.928       18.682      861.987
09/21/2014  05:37:00      -72.881       12.589       -7.876       20.441       16.424       10.312      417.827      269.757      106.336        0.316        0.040       73.960        8.530        0.013      342.962       18.739      862.001
09/21/2014  05:38:00      -70.830        8.656       -3.070       17.987       14.932       11.152      323.549      222.951      124.366        0.289        0.034       71.357        7.736        0.012      342.987       18.783      862.015
09/21/2014  05:39:00      -96.215       -3.168      -16.216       21.516       22.302       15.405      462.926      497.358      237.300        0.536        0.060       96.267       13.612        0.020      342.991       18.789      862.030
09/21/2014  05:40:00      -92.797       -3.292       -7.095       20.919       21.882       12.536      437.587      478.820      157.146        0.487        0.054       92.855       10.283        0.012      342.967       18.748      862.044
09/21/2014  05:41:00     -123.062      -17.631      -16.061       19.977       17.701       17.388      399.064      313.322      302.329        0.836        0.051      124.318       12.617        0.010      342.943       18.706      862.057
09/21/2014  05:42:00     -100.017      -38.304      -15.892       20.410       23.503       14.496      416.570      552.406      210.127        0.645        0.059      107.101       10.299        0.009      342.939       18.700      862.072
09/21/2014  05:43:00      -95.720      -11.201       -8.958       35.375       30.704       21.514     1251.412      942.715      462.867        0.601        0.133       96.373       16.605        0.030      342.864       18.572      862.076
09/21/2014  05:44:00     -101.923      -13.755       -2.766       35.734       24.680       19.910     1276.938      609.119      396.411        0.643        0.114      102.847       18.039        0.031      342.774       18.419      862.075
09/21/2014  05:45:00      -70.485        1.312       -0.089       37.179       28.847       19.502     1382.284      832.178      380.309        0.378        0.130       70.497       18.460        0.069      342.787       18.441      862.074
09/21/2014  05:46:00      -94.943      -39.773       -9.803       16.521       18.446       13.925      272.955      340.240      193.895        0.575        0.040      102.937        8.355        0.007      342.818       18.494      862.072
09/21/2014  05:47:00      -59.810       -5.408       -4.322       21.739       19.781       11.865      472.600      391.275      140.774        0.231        0.050       60.054       11.752        0.038      342.820       18.499      862.071
09/21/2014  05:48:00      -67.021        0.719       -3.430       12.206       18.142        9.717      148.978      329.126       94.413        0.254        0.029       67.025        3.982        0.004      342.877       18.594      862.073
09/21/2014  05:49:00      -61.598       -9.832       -7.213       12.874       16.448        8.613      165.731      270.536       74.177        0.223        0.026       62.377        3.265        0.003      342.914       18.658      862.068
09/21/2014  05:50:00      -60.176       -7.225       -8.785       16.648       11.023        9.896      277.171      121.505       97.932        0.212        0.025       60.608        6.215        0.011      342.913       18.655      862.068
09/21/2014  05:51:00      -51.006      -34.258       -2.610       14.002       17.231       12.500      196.050      296.915      156.255        0.222        0.032       61.443        3.975        0.004      342.942       18.704      862.069
09/21/2014  05:52:00      -64.835       -5.646       -5.690       30.812       19.083       14.646      949.365      364.158      214.510        0.290        0.076       65.080       13.906        0.046      342.917       18.662      862.068
09/21/2014  05:53:00      -84.395       -4.639       -2.476       33.064       19.444       19.728     1093.246      378.052      389.177        0.450        0.093       84.523       16.126        0.036      342.895       18.623      862.072
09/21/2014  05:54:00     -103.262       -6.754       -9.842       27.099       15.716       14.607      734.339      246.982      213.357        0.600        0.060      103.483       14.880        0.021      342.871       18.585      862.069
09/21/2014  05:55:00      -93.688      -19.762       -9.506       13.100       18.275       11.414      171.598      333.960      130.284        0.495        0.032       95.750        8.677        0.008      342.816       18.490      862.071
09/21/2014  05:56:00     -116.854       -8.930      -11.912       31.770       19.482       14.300     1009.357      379.548      204.499        0.773        0.080      117.194       14.082        0.014      342.887       18.610      862.072
09/21/2014  05:57:00      -99.288       -4.264       -9.887       34.876       24.908       19.282     1216.342      620.428      371.809        0.609        0.110       99.380       19.265        0.038      342.824       18.505      862.079
09/21/2014  05:58:00      -84.033       -0.768      -10.268       25.769       25.652       15.543      664.020      658.027      241.581        0.437        0.078       84.036        5.436        0.004      342.842       18.537      862.093
09/21/2014  05:59:00      -76.580        8.844       -6.723       31.450       36.089       15.815      989.081     1302.422      250.118        0.426        0.127       77.089       11.044        0.021      342.849       18.547      862.102
09/21/2014  06:00:00      -91.410      -20.766       -3.302       31.664       32.246       16.329     1002.582     1039.791      266.629        0.555        0.115       93.739       14.129        0.023      342.819       18.496      862.117
09/21/2014  06:01:00     -112.603       -1.288       -6.722       38.607       36.505       19.064     1490.478     1332.607      363.419        0.796        0.159      112.610       17.863        0.025      342.716       18.318      862.125
09/21/2014  06:02:00     -112.591      -15.682      -18.347       32.431       27.713       17.989     1051.781      768.021      323.608        0.770        0.107      113.678       17.559        0.024      342.729       18.341      862.136
09/21/2014  06:03:00      -91.619      -31.969       -7.207       29.544       33.303       16.787      872.833     1109.112      281.787        0.587        0.113       97.036       14.246        0.022      342.736       18.354      862.144
09/21/2014  06:04:00      -81.005       20.942      -14.620       29.464       24.121       11.112      868.140      581.801      123.484        0.439        0.079       83.668       10.389        0.015      342.819       18.496      862.152
09/21/2014  06:05:00      -95.696       -6.015      -11.933       17.959       20.186       11.608      322.525      407.491      134.740        0.510        0.043       95.885        6.928        0.005      342.845       18.538      862.157
09/21/2014  06:06:00      -84.129       10.646       -8.800       26.768       24.031       12.394      716.527      577.470      153.602        0.436        0.072       84.800        9.347        0.012      342.871       18.584      862.152
09/21/2014  06:07:00      -49.850        1.551       -8.827       25.223       19.405       11.097      636.209      376.546      123.137        0.185        0.057       49.875        8.644        0.030      342.877       18.595      862.151
09/21/2014  06:08:00      -47.463       38.751       -1.926       26.270       30.080       21.544      690.128      904.785      464.125        0.291        0.103       61.273       19.984        0.106      343.000       18.804      862.150
09/21/2014  06:09:00      -88.816       71.177      -14.586       35.545       28.080       19.592     1263.428      788.460      383.860        0.780        0.122      113.818       21.244        0.035      343.115       19.001      862.142
09/21/2014  06:10:00      -76.641       24.617       -1.262       37.210       36.453       15.716     1384.554     1328.841      246.998        0.472        0.148       80.497       17.862        0.049      343.051       18.891      862.142
09/21/2014  06:11:00      -72.697       34.993       -5.851       35.253       18.101       16.708     1242.791      327.634      279.162        0.420        0.092       80.681       16.342        0.041      343.121       19.010      862.147
09/21/2014  06:12:00      -50.905       43.415      -13.338       26.779       23.734       15.553      717.135      563.322      241.904        0.309        0.076       66.904       14.095        0.044      343.084       18.947      862.149
09/21/2014  06:13:00      -69.823       45.608      -16.012       16.234       20.429       19.210      263.529      417.345      369.038        0.413        0.052       83.398       13.450        0.026      343.073       18.927      862.156
09/21/2014  06:14:00      -44.105       13.610       -8.222       20.391       13.035       12.137      415.775      169.906      147.297        0.147        0.037       46.157        6.240        0.018      343.067       18.918      862.166
09/21/2014  06:15:00      -59.289       22.111       -9.485       23.433       20.012       13.143      549.111      400.469      172.729        0.261        0.056       63.278       10.721        0.029      343.069       18.921      862.176
09/21/2014  06:16:00      -46.806       17.550       -6.403       19.731       22.298       12.958      389.310      497.212      167.909        0.180        0.053       49.988       13.156        0.069      343.072       18.926      862.188
09/21/2014  06:17:00      -57.665       33.344      -12.673       23.609       32.426       13.943      557.407     1051.446      194.415        0.320        0.090       66.612       14.710        0.049      343.133       19.030      862.201
09/21/2014  06:18:00      -57.518       43.381       -8.262       28.200       36.408       19.762      795.256     1325.513      390.543        0.388        0.126       72.043       16.573        0.053      343.147       19.053      862.209
09/21/2014  06:19:00      -84.539       53.101      -21.646       21.870       27.518       15.178      478.282      757.253      230.373        0.595        0.073       99.833       15.647        0.025      343.193       19.133      862.215
09/21/2014  06:20:00     -110.958       61.826      -20.916       18.424       16.624       13.126      339.429      276.353      172.300        0.868        0.039      127.020        8.886        0.005      343.278       19.278      862.222
09/21/2014  06:21:00     -119.011       60.111      -25.904       22.737       24.772       16.838      516.949      613.662      283.526        0.993        0.071      133.330       13.837        0.011      343.307       19.327      862.221
09/21/2014  06:22:00     -114.321       84.881      -27.244       21.740       25.906       15.083      472.635      671.114      227.486        1.119        0.069      142.387       12.679        0.008      343.181       19.112      862.231
09/21/2014  06:23:00      -80.952       72.240      -18.253       37.375       30.995       18.805     1396.876      960.706      353.615        0.741        0.136      108.498       17.168        0.025      343.196       19.139      862.241
09/21/2014  06:24:00      -76.586       83.866      -19.681       28.797       24.252       22.345      829.249      588.171      499.297        0.760        0.096      113.574       18.033        0.025      343.160       19.076      862.256
09/21/2014  06:25:00      -90.473       80.738      -24.543       23.456       27.295       17.255      550.194      744.995      297.725        0.845        0.080      121.260       11.874        0.010      343.211       19.162      862.266
09/21/2014  06:26:00      -88.089       73.045      -22.706       23.611       23.836       14.695      557.492      568.135      215.951        0.748        0.067      114.435       15.806        0.019      343.233       19.200      862.283
09/21/2014  06:27:00      -22.658       72.199      -15.358       40.010       36.919       17.830     1600.797     1363.001      317.909        0.462        0.164       75.671       10.825        0.020      343.193       19.132      862.298
09/21/2014  06:28:00      -28.175      130.637      -21.063       35.240       59.453       19.471     1241.867     3534.614      379.121        1.173        0.258      133.640       24.773        0.034      343.220       19.180      862.300
09/21/2014  06:29:00      -45.357      170.487      -33.127       26.112       44.193       19.911      681.858     1953.027      396.449        1.763        0.152      176.417       23.915        0.018      343.232       19.199      862.302
09/21/2014  06:30:00      -25.412      148.815      -26.259       31.574       27.428       16.315      996.938      752.313      266.188        1.275        0.101      150.969       13.300        0.008      343.222       19.181      862.293
09/21/2014  06:31:00      -23.860      139.951      -25.315       26.813       29.762       15.930      718.954      885.766      253.759        1.133        0.093      141.970       12.361        0.008      343.262       19.251      862.284
09/21/2014  06:32:00      -42.075      120.434      -21.361       35.648       45.762       18.356     1270.781     2094.177      336.944        1.022        0.185      127.572       20.100        0.025      343.265       19.254      862.272
09/21/2014  06:33:00      -46.679      140.080      -22.834       32.761       52.941       23.199     1073.314     2802.790      538.196        1.337        0.221      147.652       27.390        0.034      343.286       19.291      862.260
09/21/2014  06:34:00      -74.804       81.619      -15.961       54.034       58.475       22.681     2919.624     3419.381      514.429        0.968        0.343      110.713       22.824        0.043      343.361       19.419      862.250
09/21/2014  06:35:00      -58.883       53.970      -13.384       32.697       47.585       25.899     1069.065     2264.344      670.764        0.528        0.200       79.875       20.234        0.064      343.347       19.395      862.243
09/21/2014  06:36:00      -88.974       89.766      -28.294       36.945       32.432       26.990     1364.950     1051.819      728.484        0.996        0.157      126.390       25.647        0.041      343.251       19.232      862.246
09/21/2014  06:37:00      -79.910       76.142      -26.960       46.209       30.810       16.268     2135.276      949.265      264.647        0.813        0.167      110.377       15.366        0.019      343.242       19.217      862.245
09/21/2014  06:38:00      -95.297      132.019      -30.941       55.446       45.625       23.722     3074.256     2081.610      562.738        1.659        0.286      162.820       23.508        0.021      343.276       19.272      862.254
09/21/2014  06:39:00      -95.387      111.978      -19.927       49.129       50.179       31.420     2413.612     2517.922      987.223        1.398        0.296      147.097       30.912        0.044      343.274       19.270      862.267
09/21/2014  06:40:00     -100.208       95.518      -21.923       41.474       57.541       30.301     1720.129     3311.001      918.127        1.280        0.297      138.439       26.753        0.037      343.259       19.246      862.286
09/21/2014  06:41:00      -56.446      121.888      -24.775       50.143       43.657       25.632     2514.300     1905.946      656.997        1.187        0.254      134.324       25.628        0.036      343.284       19.287      862.307
09/21/2014  06:42:00      -65.183      100.303      -20.234       32.838       45.205       33.740     1078.358     2043.533     1138.417        0.949        0.213      119.622       26.624        0.050      343.301       19.316      862.333
09/21/2014  06:43:00       -5.585      165.649      -28.942       41.006       45.710       21.959     1681.486     2089.450      482.181        1.628        0.213      165.743       19.247        0.013      343.248       19.228      862.369
09/21/2014  06:44:00      -37.967       64.614       -7.108       54.869       34.833       23.141     3010.598     1213.326      535.496        0.521        0.238       74.943       20.724        0.076      343.296       19.308      862.405
09/21/2014  06:45:00        0.282       95.886      -12.674       45.033       47.272       27.804     2028.007     2234.682      773.046        0.719        0.252       95.886       23.946        0.062      343.186       19.118      862.439
09/21/2014  06:46:00      -17.894      136.120      -28.281       40.185       45.985       21.394     1614.829     2114.596      457.694        1.192        0.209      137.291       21.101        0.024      343.174       19.101      862.471
09/21/2014  06:47:00      -74.616       96.306      -14.633       54.120       41.311       29.990     2928.975     1706.584      899.416        1.029        0.277      121.829       17.838        0.021      343.212       19.165      862.488
09/21/2014  06:48:00      -67.469      142.511      -21.804       41.820       75.411       27.548     1748.882     5686.766      758.917        1.676        0.410      157.675       31.953        0.041      343.169       19.090      862.505
09/21/2014  06:49:00     -119.846      139.225      -32.126       61.043       86.082       32.655     3726.242     7410.114     1066.358        2.349        0.610      183.703       38.900        0.045      343.167       19.087      862.504
09/21/2014  06:50:00      -85.212      148.842      -15.569       46.542       58.956       33.209     2166.150     3475.801     1102.857        1.820        0.337      171.508       27.754        0.026      343.193       19.130      862.503
09/21/2014  06:51:00     -179.171      135.082      -35.769       62.784       72.996       45.742     3941.866     5328.390     2092.358        3.149        0.568      224.386       49.387        0.048      343.175       19.101      862.497
09/21/2014  06:52:00     -173.896      184.440      -40.398       60.832       75.094       41.411     3700.564     5639.134     1714.857        3.847        0.553      253.491       36.200        0.020      343.070       18.918      862.497
09/21/2014  06:53:00     -133.382      139.678      -27.616       55.907       57.894       40.659     3125.626     3351.666     1653.174        2.310        0.407      193.134       41.304        0.046      343.086       18.947      862.489
09/21/2014  06:54:00     -164.848      127.303      -41.144       56.294       52.209       31.198     3169.028     2725.735      973.287        2.597        0.343      208.281       23.866        0.013      343.122       19.008      862.488
09/21/2014  06:55:00     -103.317       98.094      -19.869       70.372       47.630       32.491     4952.238     2268.602     1055.676        1.448        0.414      142.467       31.349        0.048      343.105       18.983      862.490
09/21/2014  06:56:00     -105.479      129.354      -17.212       53.735       54.857       34.818     2887.459     3009.272     1212.259        1.763        0.355      166.908       30.319        0.033      343.082       18.941      862.491
09/21/2014  06:57:00     -131.115       94.920      -24.964       34.889       58.585       30.933     1217.262     3432.155      956.861        1.621        0.280      161.866       27.092        0.028      343.121       19.008      862.503
09/21/2014  06:58:00      -90.196      111.909      -11.747       70.270       66.805       35.778     4937.917     4462.916     1280.072        1.574        0.534      143.732       35.756        0.062      343.121       19.009      862.514
09/21/2014  06:59:00     -126.099       81.806      -15.052       48.838       54.754       32.881     2385.120     2997.965     1081.158        1.464        0.323      150.310       25.795        0.029      343.108       18.985      862.533
09/21/2014  07:00:00      -96.944      130.746      -30.718       36.514       48.627       24.959     1333.303     2364.609      622.956        1.588        0.216      162.765       26.186        0.026      343.069       18.919      862.553
09/21/2014  07:01:00      -49.611      224.640      -38.682       42.243       97.219       46.790     1784.486     9451.589     2189.272        3.392        0.671      230.053       49.177        0.046      343.056       18.897      862.572
09/21/2014  07:02:00      -96.329      157.970      -23.836       63.723       89.139       41.047     4060.628     7945.746     1684.826        2.424        0.685      185.024       52.017        0.079      343.018       18.832      862.591
09/21/2014  07:03:00      -66.438      215.304      -26.274       55.249       71.302       40.509     3052.445     5084.018     1640.991        3.062        0.489      225.322       31.209        0.019      342.978       18.763      862.596
09/21/2014  07:04:00     -103.828      106.966      -19.178       53.255       64.454       28.016     2836.076     4154.379      784.895        1.518        0.389      149.070       26.397        0.031      343.116       19.001      862.595
09/21/2014  07:05:00     -110.862       65.199      -13.052       58.307       43.227       29.333     3399.740     1868.543      860.450        1.142        0.306      128.613       24.980        0.038      343.068       18.918      862.593
09/21/2014  07:06:00     -176.918      171.330      -46.038       59.118       88.557       42.888     3494.926     7842.306     1839.351        3.797        0.659      246.280       52.349        0.045      342.925       18.674      862.593
09/21/2014  07:07:00     -178.142      154.371      -38.559       66.239       63.772       40.071     4387.589     4066.891     1605.725        3.355        0.503      235.722       41.602        0.031      342.921       18.666      862.593
09/21/2014  07:08:00     -185.699      199.131      -53.385       55.062       70.289       43.627     3031.865     4940.545     1903.349        4.343        0.494      272.282       31.255        0.013      342.880       18.595      862.609
09/21/2014  07:09:00     -145.134      120.199      -16.569       71.215       66.054       42.533     5071.549     4363.107     1809.056        2.351        0.562      188.446       37.598        0.040      342.917       18.658      862.622
09/21/2014  07:10:00      -85.048      227.789      -29.803       60.469      127.508       45.384     3656.467    16258.324     2059.676        4.099        1.099      243.148       53.342        0.048      342.897       18.626      862.630
09/21/2014  07:11:00     -137.252      185.006      -32.188       71.715       76.453       40.903     5143.021     5845.028     1673.070        3.338        0.633      230.359       38.721        0.028      342.880       18.595      862.647
09/21/2014  07:12:00     -115.528      142.449      -17.787       75.329       70.065       38.573     5674.506     4909.085     1487.908        2.301        0.604      183.408       33.108        0.033      342.913       18.652      862.661
09/21/2014  07:13:00     -131.285      147.757      -26.076       71.193       65.044       38.333     5068.383     4230.694     1469.383        2.526        0.538      197.656       38.902        0.039      342.843       18.535      862.680
09/21/2014  07:14:00     -129.267      108.064      -16.430       65.441       56.409       37.331     4282.486     3182.030     1393.597        1.876        0.443      168.486       38.482        0.052      342.876       18.592      862.697
09/21/2014  07:15:00     -149.634      136.319      -39.383       45.908       43.081       29.415     2107.505     1855.967      865.225        2.368        0.241      202.418       26.214        0.017      342.849       18.546      862.691
09/21/2014  07:16:00     -161.248      192.600      -37.014       63.590       95.049       43.044     4043.750     9034.302     1852.810        3.970        0.747      251.189       50.531        0.040      342.856       18.556      862.685
09/21/2014  07:17:00     -164.227      190.846      -34.320       56.138      104.231       53.776     3151.501    10864.064     2891.867        4.074        0.845      251.779       52.197        0.043      342.857       18.557      862.685
09/21/2014  07:18:00     -180.224      188.524      -43.700       51.984       81.759       40.077     2702.325     6684.598     1606.131        4.046        0.550      260.810       42.408        0.026      342.828       18.507      862.684
09/21/2014  07:19:00     -132.952      155.425      -29.830       57.073       60.662       36.617     3257.295     3679.863     1340.838        2.550        0.414      204.531       37.154        0.033      342.839       18.528      862.678
09/21/2014  07:20:00     -198.435      210.297      -49.343       74.016       76.520       47.132     5478.351     5855.379     2221.412        4.979        0.678      289.139       35.955        0.015      342.807       18.472      862.672
09/21/2014  07:21:00     -169.556       93.574      -16.860       62.659       68.383       47.970     3926.163     4676.283     2301.140        2.434        0.545      193.663       35.575        0.034      342.854       18.552      862.656
09/21/2014  07:22:00     -195.103      163.747      -32.481       70.015       74.106       51.841     4902.084     5491.626     2687.511        3.950        0.654      254.712       49.939        0.038      342.803       18.464      862.646
09/21/2014  07:23:00     -157.827       76.483      -11.944       79.842       54.528       43.703     6374.670     2973.299     1909.991        2.108        0.563      175.382       41.203        0.055      342.898       18.628      862.635
09/21/2014  07:24:00     -207.827      167.618      -51.905       66.818       74.071       45.176     4464.693     5486.514     2040.905        4.298        0.600      266.998       41.154        0.024      342.825       18.503      862.641
09/21/2014  07:25:00     -165.202      175.942      -31.124       82.687       80.996       50.344     6837.208     6560.354     2534.563        3.757        0.797      241.345       43.488        0.032      342.814       18.484      862.646
09/21/2014  07:26:00     -216.049      192.782      -41.804       80.755      105.751       51.669     6521.297    11183.214     2669.636        5.298        1.019      289.555       54.784        0.036      342.830       18.510      862.657
09/21/2014  07:27:00     -155.957      161.391      -16.311       99.799       92.381       54.996     9959.742     8534.323     3024.571        3.607        1.076      224.432       49.708        0.049      342.864       18.570      862.660
09/21/2014  07:28:00      -99.762       89.452      -18.692       64.002       45.396       29.316     4096.320     2060.830      859.428        1.266        0.351      133.993       29.428        0.048      342.929       18.683      862.666
09/21/2014  07:29:00     -108.238      142.650      -33.902       69.508       64.374       39.971     4831.306     4143.967     1597.677        2.189        0.529      179.066       44.400        0.061      342.857       18.560      862.688
09/21/2014  07:30:00     -114.114      198.345      -38.891       63.696       67.662       33.929     4057.217     4578.210     1151.155        3.183        0.489      228.829       20.532        0.008      342.863       18.567      862.689
09/21/2014  07:31:00     -142.250      160.145      -30.125       59.591       67.612       33.801     3551.043     4571.413     1142.488        2.803        0.463      214.200       29.466        0.019      342.845       18.536      862.695
09/21/2014  07:32:00      -79.624      192.667      -35.765       47.988       58.188       32.019     2302.853     3385.900     1025.202        2.573        0.336      208.471       29.881        0.021      342.869       18.576      862.695
09/21/2014  07:33:00      -75.753       90.408      -15.826       41.267       39.090       30.595     1702.998     1527.991      936.049        0.916        0.208      117.950       24.044        0.042      342.903       18.638      862.714
09/21/2014  07:34:00     -109.476       53.774      -17.225       46.779       49.992       31.080     2188.298     2499.220      965.940        1.041        0.283      121.970       23.246        0.036      342.983       18.776      862.736
09/21/2014  07:35:00     -130.367      121.201      -25.145       61.735       85.723       29.402     3811.222     7348.394      864.507        2.217        0.601      178.003       21.141        0.014      342.921       18.666      862.749
09/21/2014  07:36:00     -140.383      164.387      -27.575       55.238       47.499       38.498     3051.216     2256.157     1482.063        2.714        0.339      216.172       31.153        0.021      342.823       18.498      862.762
09/21/2014  07:37:00     -132.579      152.033       -7.268       76.413       93.186       50.688     5838.891     8683.643     2569.280        2.891        0.855      201.721       55.379        0.075      342.866       18.573      862.764
09/21/2014  07:38:00     -190.757      124.447      -40.284       64.644       53.566       39.948     4178.824     2869.304     1595.805        3.107        0.432      227.761       32.563        0.020      342.822       18.497      862.768
09/21/2014  07:39:00     -201.705      138.888      -32.015       81.546      105.356       58.636     6649.787    11099.944     3438.213        4.109        1.059      244.897       61.232        0.063      342.842       18.530      862.773
09/21/2014  07:40:00     -143.724      142.853      -27.478       82.314       75.498       48.159     6775.653     5699.937     2319.309        2.830        0.740      202.642       52.975        0.068      342.806       18.470      862.789
09/21/2014  07:41:00      -44.452       59.574        9.129       45.253       47.160       32.122     2047.789     2224.090     1031.804        0.545        0.265       74.331       26.522        0.127      342.917       18.662      862.787
09/21/2014  07:42:00     -142.208      169.346      -30.757       70.940       67.674       45.287     5032.534     4579.809     2050.891        3.075        0.583      221.136       41.620        0.035      342.842       18.531      862.793
09/21/2014  07:43:00     -133.846      129.701      -18.562       45.399       72.467       41.825     2061.109     5251.482     1749.310        2.207        0.453      186.379       43.967        0.056      342.847       18.544      862.797
09/21/2014  07:44:00      -78.927       78.045      -13.637       56.721       40.343       31.749     3217.272     1627.597     1008.028        0.918        0.293      110.998       21.560        0.038      342.890       18.617      862.815
09/21/2014  07:45:00      -46.986      137.171      -22.785       54.850       58.830       29.552     3008.528     3461.000      873.315        1.444        0.367      144.995       29.158        0.040      342.863       18.571      862.810
09/21/2014  07:46:00      -34.439      127.564       -8.733       61.042       55.203       36.704     3726.142     3047.414     1347.172        1.283        0.406      132.131       33.338        0.064      342.858       18.564      862.808
09/21/2014  07:47:00      -57.296       81.754       -0.967       52.636       61.501       36.756     2770.601     3782.395     1350.973        0.893        0.395       99.833       32.282        0.105      342.922       18.670      862.812
09/21/2014  07:48:00      -86.123      146.423      -19.381       52.925       77.133       33.740     2801.049     5949.451     1138.363        1.956        0.494      169.873       28.324        0.028      342.886       18.609      862.815
09/21/2014  07:49:00      -59.691      171.734      -25.128       37.836       66.843       34.649     1431.530     4467.936     1200.532        2.039        0.355      181.812       28.978        0.025      342.880       18.598      862.811
09/21/2014  07:50:00     -105.988      244.586      -35.541       70.080       71.017       43.271     4911.161     5043.484     1872.374        4.207        0.591      266.563       36.317        0.019      342.884       18.601      862.819
09/21/2014  07:51:00      -75.603      205.699      -27.690       56.774       71.388       36.381     3223.263     5096.203     1323.588        2.922        0.482      219.153       34.768        0.025      342.915       18.656      862.824
09/21/2014  07:52:00      -59.409      123.034      -13.255       48.052       53.745       28.853     2309.033     2888.500      832.519        1.244        0.302      136.626       26.781        0.038      342.918       18.663      862.824
09/21/2014  07:53:00      -78.470      134.152      -10.998       62.479      104.231       44.105     3903.583    10864.103     1945.235        2.049        0.836      155.417       53.688        0.119      342.901       18.632      862.843
09/21/2014  07:54:00      -79.505      133.881      -14.575       50.834       55.141       40.283     2584.093     3040.542     1622.711        1.585        0.362      155.709       37.245        0.057      342.859       18.563      862.854
09/21/2014  07:55:00      -86.421      201.315      -25.295       51.773       78.683       35.460     2680.394     6191.022     1257.441        2.938        0.506      219.081       37.848        0.030      342.846       18.540      862.850
09/21/2014  07:56:00      -98.694      146.554      -28.919       45.807       67.130       29.338     2098.250     4506.504      860.727        1.976        0.373      176.688       34.422        0.038      342.865       18.573      862.860
09/21/2014  07:57:00      -98.071      139.453      -27.810       69.215       74.943       30.944     4790.728     5616.486      957.534        2.060        0.568      170.484       32.769        0.037      342.879       18.595      862.875
09/21/2014  07:58:00      -66.810      216.341      -23.680       62.052       73.556       35.218     3850.418     5410.530     1240.331        3.116        0.525      226.422       29.696        0.017      342.845       18.537      862.884
09/21/2014  07:59:00      -97.541      236.632      -27.848       65.002       62.590       35.284     4225.242     3917.471     1244.985        3.783        0.469      255.947       29.094        0.013      342.835       18.519      862.898
09/21/2014  08:00:00        6.593      238.088      -30.681       43.784       88.188       38.874     1917.001     7777.091     1511.170        3.444        0.560      238.179       43.125        0.033      342.822       18.498      862.908
09/21/2014  08:01:00      -22.966      244.914      -34.849       38.591       58.480       20.922     1489.282     3419.943      437.731        3.353        0.267      245.988       16.178        0.004      342.813       18.483      862.918
09/21/2014  08:02:00     -102.604      134.030      -19.319      107.423       70.512       46.039    11539.638     4972.000     2119.631        2.374        0.932      168.794       33.786        0.040      342.869       18.577      862.925
09/21/2014  08:03:00      -81.470      125.355       -7.382       72.345       64.893       48.181     5233.770     4211.083     2321.361        1.708        0.588      149.503       37.180        0.062      342.859       18.563      862.922
09/21/2014  08:04:00     -148.250      159.549      -26.161       64.587       70.869       44.321     4171.479     5022.360     1964.314        2.964        0.558      217.793       40.008        0.034      342.823       18.499      862.934
09/21/2014  08:05:00     -146.545      123.672      -28.891       79.783       61.952       34.444     6365.349     3838.056     1186.374        2.450        0.569      191.755       39.535        0.043      342.879       18.596      862.931
09/21/2014  08:06:00     -155.169      180.371      -41.874       82.234       55.429       35.779     6762.406     3072.354     1280.172        3.474        0.556      237.931       42.337        0.032      342.791       18.444      862.938
09/21/2014  08:07:00     -107.740      205.098      -38.424       70.432       75.760       37.129     4960.727     5739.587     1378.575        3.361        0.604      231.674       36.286        0.025      342.815       18.484      862.943
09/21/2014  08:08:00      -84.740      250.295      -40.049       60.650      113.310       41.587     3678.390    12839.222     1729.517        4.484        0.912      264.251       42.433        0.026      342.831       18.513      862.927
09/21/2014  08:09:00     -113.774      109.533      -19.485       72.255       54.311       39.613     5220.759     2949.665     1569.151        1.753        0.487      157.930       29.910        0.036      342.902       18.635      862.922
09/21/2014  08:10:00      -75.028      201.594      -34.054       50.153       67.100       33.510     2515.331     4502.353     1122.954        2.778        0.407      215.103       36.604        0.029      342.836       18.520      862.913
09/21/2014  08:11:00     -122.854       99.365      -30.283       50.264       43.780       25.635     2526.442     1916.658      657.145        1.549        0.255      158.008       24.478        0.024      342.886       18.608      862.910
09/21/2014  08:12:00      -73.895      174.189      -29.884       78.206       65.228       24.731     6116.191     4254.740      611.631        2.384        0.549      189.215       19.240        0.010      342.886       18.607      862.927
09/21/2014  08:13:00      -61.481      145.283       -7.310       39.917       62.511       36.571     1593.343     3907.573     1337.465        1.589        0.342      157.756       31.777        0.041      342.916       18.660      862.939
09/21/2014  08:14:00     -144.284       99.111      -21.083       62.215       48.819       38.508     3870.738     2383.334     1482.855        1.941        0.387      175.045       38.847        0.049      342.905       18.642      862.957
09/21/2014  08:15:00      -78.460       85.239      -21.953       62.243       43.916       33.559     3874.198     1928.650     1126.227        1.041        0.346      115.852       34.883        0.091      342.917       18.662      862.978
09/21/2014  08:16:00      -27.495      145.844      -14.232       63.799       83.070       46.305     4070.327     6900.630     2144.133        1.767        0.656      148.413       50.305        0.115      342.932       18.688      862.982
09/21/2014  08:17:00       -6.762      117.668      -17.839       40.966       45.617       30.180     1678.194     2080.914      910.862        0.944        0.233      117.862       29.000        0.061      342.895       18.625      862.980
09/21/2014  08:18:00      -42.957       96.834      -22.481       53.784       41.761       21.701     2892.753     1743.982      470.934        0.842        0.255      105.935       14.436        0.019      342.956       18.729      862.990
09/21/2014  08:19:00      -65.413      152.858      -26.947       46.598       69.058       27.699     2171.371     4769.001      767.262        1.804        0.385      166.266       22.211        0.018      342.948       18.714      862.982
09/21/2014  08:20:00      -98.078      186.213      -36.614       57.293       46.710       25.914     3282.501     2181.810      671.552        2.588        0.307      210.463       21.075        0.010      342.881       18.596      862.977
09/21/2014  08:21:00      -39.121       92.801      -12.927       28.681       32.535       20.131      822.616     1058.553      405.254        0.630        0.114      100.710       12.149        0.015      342.965       18.746      862.978
09/21/2014  08:22:00      -31.512       90.053       -1.129       33.850       85.622       32.105     1145.812     7331.151     1030.743        0.930        0.475       95.407       42.695        0.200      343.054       18.894      862.977
09/21/2014  08:23:00      -48.550       65.455        8.930       50.106       47.368       30.197     2510.615     2243.725      911.852        0.619        0.283       81.496       25.811        0.100      343.051       18.891      862.982
09/21/2014  08:24:00      -42.542       88.260      -11.269       35.679       37.592       19.351     1273.003     1413.132      374.462        0.639        0.153       97.978       19.263        0.039      343.012       18.824      862.986
09/21/2014  08:25:00      -65.347       82.813      -15.202       45.080       37.448       23.918     2032.205     1402.340      572.071        0.768        0.200      105.491       23.577        0.050      343.066       18.915      862.991
09/21/2014  08:26:00      -57.707      112.601      -12.966       57.244       60.860       33.141     3276.896     3703.884     1098.332        1.213        0.404      126.527       33.617        0.071      343.000       18.804      862.997
09/21/2014  08:27:00      -68.059       72.158        0.220       62.093       68.361       32.984     3855.486     4673.264     1087.976        0.973        0.481       99.190       39.210        0.156      343.092       18.958      863.004
09/21/2014  08:28:00      -69.029      133.933      -15.828       41.286       58.368       33.483     1704.538     3406.814     1121.090        1.459        0.312      150.675       33.012        0.048      342.999       18.801      863.010
09/21/2014  08:29:00      -36.425       91.982      -10.350       37.794       35.871       24.541     1428.349     1286.708      602.280        0.661        0.166       98.931       24.925        0.063      343.009       18.819      863.015
09/21/2014  08:30:00      -33.099       37.034       -5.696       42.536       33.368       18.832     1809.286     1113.455      354.642        0.289        0.164       49.669       18.483        0.138      343.146       19.052      863.025
09/21/2014  08:31:00      -47.980       54.221       -8.958       36.274       29.962       22.724     1315.787      897.721      516.365        0.403        0.136       72.401       26.820        0.137      343.057       18.901      863.042
09/21/2014  08:32:00      -24.772       99.397      -21.883       33.797       39.200       23.203     1142.262     1536.646      538.401        0.709        0.161      102.438       20.598        0.040      343.021       18.840      863.057
09/21/2014  08:33:00      -56.513      134.105      -26.710       41.064       37.772       24.462     1686.243     1426.750      598.375        1.280        0.186      145.526       23.519        0.026      343.026       18.847      863.077
09/21/2014  08:34:00      -42.781      110.513      -24.797       33.743       62.257       23.302     1138.623     3875.874      542.964        1.011        0.278      118.504       31.337        0.070      343.088       18.953      863.085
09/21/2014  08:35:00      -34.209       86.113      -11.833       44.149       38.283       23.235     1949.110     1465.602      539.887        0.634        0.198       92.659       24.889        0.072      343.095       18.966      863.079
09/21/2014  08:36:00      -18.874      114.386      -20.016       30.666       34.047       15.813      940.428     1159.180      250.064        0.809        0.117      115.932       12.630        0.012      343.054       18.896      863.077
09/21/2014  08:37:00      -14.332      109.429      -22.204       19.541       35.407       17.360      381.850     1253.691      301.369        0.730        0.097      110.364       17.652        0.026      343.118       19.005      863.076
09/21/2014  08:38:00      -30.623       82.744      -10.941       28.976       22.992       16.421      839.626      528.612      269.655        0.477        0.082       88.229       10.431        0.014      343.141       19.043      863.077
09/21/2014  08:39:00        4.024       77.720      -11.669       15.314       19.533       13.897      234.505      381.533      193.129        0.350        0.040       77.824       11.626        0.022      343.101       18.975      863.084
09/21/2014  08:40:00      -15.588       95.579      -15.436       26.056       37.817       17.580      678.905     1430.139      309.063        0.602        0.121       96.842       14.981        0.024      343.163       19.083      863.084
09/21/2014  08:41:00       -9.688      110.836      -21.063       26.971       30.962       15.294      727.426      958.674      233.920        0.737        0.096      111.258       16.209        0.021      343.093       18.963      863.092
09/21/2014  08:42:00       -9.542       99.604      -15.567       28.462       26.761       16.104      810.090      716.126      259.354        0.602        0.089      100.060        9.928        0.010      343.155       19.068      863.094
09/21/2014  08:43:00      -35.229       99.061       -2.888       29.261       33.502       25.129      856.204     1122.400      631.468        0.684        0.131      105.139       22.587        0.046      343.207       19.156      863.098
09/21/2014  08:44:00       14.421      100.971      -19.313       20.531       34.552       14.334      421.537     1193.811      205.466        0.630        0.091      101.996       12.095        0.014      343.097       18.970      863.092
09/21/2014  08:45:00       32.837       52.063       -7.275       23.261       32.487       19.002      541.084     1055.431      361.058        0.290        0.098       61.554       16.368        0.071      343.127       19.022      863.099
09/21/2014  08:46:00       29.872       53.287       -3.628       19.908       20.115       16.085      396.338      404.628      258.711        0.240        0.053       61.088       11.209        0.034      343.131       19.031      863.098
09/21/2014  08:47:00       15.229       -0.134       -5.188       13.068       17.784        9.648      170.772      316.258       93.085        0.042        0.029       15.230        8.319        0.298      343.177       19.108      863.098
09/21/2014  08:48:00       -5.834        9.524        4.150       30.896       22.105       12.759      954.540      488.623      162.785        0.087        0.080       11.169       17.401        2.427      343.273       19.268      863.106
09/21/2014  08:49:00      -38.650       43.231      -13.743       22.894       21.954       13.004      524.142      481.989      169.113        0.236        0.059       57.990       10.609        0.033      343.220       19.179      863.118
09/21/2014  08:50:00       23.695       23.074       -1.309       20.507       21.645       12.630      420.545      468.512      159.521        0.107        0.052       33.073        8.030        0.059      343.236       19.205      863.115
09/21/2014  08:51:00       24.559       30.928        6.926       19.885       12.002       14.979      395.418      144.038      224.380        0.119        0.038       39.493        4.054        0.011      343.230       19.196      863.120
09/21/2014  08:52:00       12.920       -7.914       18.301       13.949       16.762       15.878      194.572      280.971      252.099        0.065        0.036       15.151       10.062        0.441      343.355       19.408      863.133
09/21/2014  08:53:00        5.727      -30.319       -0.359       12.582       12.277       11.218      158.304      150.715      125.842        0.069        0.022       30.855        5.591        0.033      343.329       19.365      863.141
09/21/2014  08:54:00        5.126       18.944        9.324       22.595       28.476       19.626      510.534      810.894      385.176        0.109        0.085       19.625       15.845        0.652      343.380       19.451      863.149
09/21/2014  08:55:00      -22.748       94.144      -14.777       46.701       41.471       17.003     2180.983     1719.816      289.112        0.689        0.209       96.854       18.326        0.036      343.240       19.213      863.171
09/21/2014  08:56:00      -63.917       55.863      -16.683       34.132       35.195       24.491     1164.996     1238.721      599.805        0.524        0.150       84.889       21.224        0.063      343.288       19.294      863.176
09/21/2014  08:57:00       -5.320       21.073       -0.774       19.370       17.619       16.837      375.178      310.442      283.490        0.072        0.048       21.734       15.802        0.529      343.295       19.305      863.175
09/21/2014  08:58:00       48.819       29.563        4.980       21.657       16.297       25.550      469.012      265.598      652.825        0.233        0.069       57.072       18.931        0.110      343.222       19.180      863.184
09/21/2014  08:59:00       30.543       33.687       -2.593       36.468       20.898       16.063     1329.939      436.714      258.034        0.205        0.101       45.472        7.377        0.026      343.213       19.166      863.181
09/21/2014  09:00:00       34.271       20.555        3.667       13.093       14.271       14.578      171.422      203.665      212.524        0.110        0.029       39.963       11.123        0.077      343.200       19.145      863.186
09/21/2014  09:01:00        8.854       39.188       -8.437       22.895       18.357       18.947      524.203      336.978      358.970        0.145        0.061       40.176       14.561        0.131      343.217       19.175      863.188
09/21/2014  09:02:00       21.502       56.274       -4.361       24.645       40.885       19.584      607.358     1671.552      383.539        0.315        0.133       60.242       23.228        0.149      343.217       19.174      863.185
09/21/2014  09:03:00        8.725      111.161      -20.711       42.727       42.066       16.721     1825.581     1769.521      279.599        0.837        0.194      111.502       16.586        0.022      343.199       19.141      863.190
09/21/2014  09:04:00       -5.149       88.031      -11.856       23.718       24.282       20.674      562.547      589.622      427.414        0.475        0.079       88.182       16.672        0.036      343.229       19.195      863.198
09/21/2014  09:05:00       -6.481      109.562      -19.315       43.078       33.362       17.377     1855.703     1113.044      301.955        0.784        0.164      109.753       16.819        0.023      343.233       19.204      863.193
09/21/2014  09:06:00       38.394       97.070      -23.706       24.300       22.825       16.658      590.502      520.974      277.489        0.642        0.069      104.387       14.443        0.019      343.220       19.180      863.200
09/21/2014  09:07:00       22.869      106.816      -26.522       32.191       55.142       23.612     1036.262     3040.674      557.524        0.863        0.232      109.237       26.243        0.058      343.221       19.177      863.192
09/21/2014  09:08:00       36.817       54.942      -10.434       39.174       42.071       26.049     1534.566     1769.979      678.540        0.423        0.199       66.137       22.210        0.113      343.252       19.233      863.189
09/21/2014  09:09:00       31.231       63.669        5.557       46.830       45.214       26.102     2193.012     2044.333      681.291        0.499        0.246       70.916       25.204        0.126      343.286       19.289      863.200
09/21/2014  09:10:00      -14.499       93.723       -9.599       41.742       45.133       26.275     1742.402     2036.989      690.357        0.678        0.223       94.838       28.732        0.092      343.317       19.343      863.208
09/21/2014  09:11:00      -68.088       74.838      -20.955       57.285       40.518       30.220     3281.602     1641.700      913.269        0.826        0.292      101.177       27.313        0.073      343.344       19.390      863.215
09/21/2014  09:12:00      -32.835       66.696      -17.999       38.486       32.045       18.738     1481.197     1026.885      351.124        0.435        0.143       74.340       16.565        0.050      343.411       19.503      863.230
09/21/2014  09:13:00     -134.453       48.160       -7.384       63.232       30.436       26.588     3998.253      926.347      706.919        1.304        0.282      142.818       27.139        0.036      343.417       19.514      863.243
09/21/2014  09:14:00      -80.687       82.866      -20.581       27.059       33.579       20.250      732.182     1127.545      410.047        0.803        0.113      115.659       15.199        0.017      343.455       19.579      863.246
09/21/2014  09:15:00      -75.752       -9.306       -7.140       51.637       27.777       18.039     2666.360      771.584      325.409        0.482        0.188       76.322       15.533        0.041      343.497       19.649      863.263
09/21/2014  09:16:00      -95.519      -16.519        1.916       60.811       50.417       32.498     3697.922     2541.909     1056.118        0.835        0.365       96.936       31.707        0.107      343.428       19.533      863.270
09/21/2014  09:17:00      -26.985      137.554      -14.247       46.939       49.931       37.154     2203.263     2493.075     1380.401        1.296        0.304      140.176       34.850        0.062      343.404       19.492      863.272
09/21/2014  09:18:00      -74.861      139.301      -19.499       69.190       58.962       37.360     4787.302     3476.472     1395.733        1.752        0.483      158.142       32.127        0.041      343.325       19.356      863.283
09/21/2014  09:19:00      -75.418      134.218      -19.799       35.441       46.508       30.374     1256.048     2162.993      922.604        1.422        0.217      153.956       26.403        0.029      343.348       19.396      863.279
09/21/2014  09:20:00      -17.217       85.873      -21.476       41.161       36.566       25.974     1694.256     1337.041      674.668        0.592        0.185       87.582       21.388        0.060      343.371       19.435      863.270
09/21/2014  09:21:00       -8.041      101.704      -16.558       30.675       30.748       22.855      940.938      945.420      522.349        0.655        0.120      102.022       19.924        0.038      343.395       19.476      863.280
09/21/2014  09:22:00       15.292      178.792      -26.267       53.932       74.575       40.697     2908.628     5561.447     1656.261        2.151        0.506      179.445       42.148        0.055      343.287       19.290      863.284
09/21/2014  09:23:00      -13.653      133.360      -22.687       35.936       35.017       19.534     1291.425     1226.186      381.579        1.069        0.145      134.057       14.691        0.012      343.391       19.470      863.289
09/21/2014  09:24:00      -95.980      158.641      -36.788       65.148       57.076       29.428     4244.223     3257.691      865.998        2.205        0.418      185.416       26.072        0.020      343.322       19.348      863.304
09/21/2014  09:25:00      -51.638      154.703      -20.993       35.168       80.366       29.830     1236.792     6458.682      889.800        1.781        0.429      163.094       37.629        0.053      343.328       19.360      863.318
09/21/2014  09:26:00      -37.340      117.935      -17.596       32.969       48.434       29.398     1086.941     2345.876      864.240        0.995        0.215      123.705       29.190        0.056      343.357       19.412      863.328
09/21/2014  09:27:00       62.242      110.897       -6.858       47.337       60.683       47.956     2240.778     3682.374     2299.754        1.222        0.411      127.170       29.056        0.052      343.313       19.337      863.333
09/21/2014  09:28:00       59.609      181.316      -22.729       49.323       95.141       48.594     2432.787     9051.836     2361.392        2.539        0.692      190.863       57.481        0.091      343.271       19.262      863.350
09/21/2014  09:29:00       35.430      260.227      -43.013       38.229       77.096       35.454     1461.429     5943.866     1257.014        3.974        0.433      262.628       42.323        0.026      343.230       19.191      863.366
09/21/2014  09:30:00        2.471      200.146      -21.085       49.714       67.252       36.444     2471.479     4522.795     1328.154        2.441        0.416      200.161       37.231        0.035      343.269       19.258      863.373
09/21/2014  09:31:00       39.934      123.783      -11.080       41.007       59.763       34.027     1681.603     3571.584     1157.865        1.172        0.321      130.066       34.936        0.072      343.268       19.259      863.371
09/21/2014  09:32:00       22.494      200.167      -35.254       38.394      119.106       36.932     1474.107    14186.197     1363.973        2.942        0.851      201.427       61.417        0.093      343.256       19.239      863.362
09/21/2014  09:33:00       29.271      178.481      -21.538       51.264       69.993       44.454     2627.947     4899.085     1976.161        2.134        0.475      180.866       47.535        0.069      343.278       19.276      863.360
09/21/2014  09:34:00       75.460       98.287        3.807       63.950       59.493       44.448     4089.558     3539.464     1975.583        1.248        0.480      123.913       38.832        0.098      343.310       19.330      863.354
09/21/2014  09:35:00       22.974      137.463      -25.137       34.426       60.005       26.539     1185.176     3600.642      704.328        1.277        0.275      139.370       31.280        0.050      343.310       19.330      863.348
09/21/2014  09:36:00       31.769      143.237      -23.178       41.151       76.628       35.059     1693.373     5871.895     1229.164        1.543        0.440      146.718       40.905        0.078      343.307       19.327      863.332
09/21/2014  09:37:00       36.000      155.254      -14.956       50.643       73.247       41.400     2564.711     5365.064     1713.958        1.763        0.482      159.373       38.833        0.059      343.293       19.301      863.313
09/21/2014  09:38:00       11.598      149.198      -23.312       48.688       32.956       21.956     2370.559     1086.067      482.069        1.344        0.197      149.648       13.744        0.008      343.328       19.363      863.311
09/21/2014  09:39:00      -33.750      178.296      -27.217       59.567       59.018       31.746     3548.285     3483.137     1007.802        2.085        0.402      181.462       25.528        0.020      343.374       19.439      863.309
09/21/2014  09:40:00      -78.101      155.969      -27.188       58.372       66.264       35.472     3407.339     4390.859     1258.248        2.011        0.453      174.431       27.492        0.025      343.327       19.360      863.292
09/21/2014  09:41:00      -20.815      179.248      -24.309       58.675       76.330       44.472     3442.811     5826.284     1977.770        2.220        0.562      180.452       47.695        0.070      343.345       19.389      863.285
09/21/2014  09:42:00        5.483      190.705      -24.292       47.810       70.745       30.937     2285.809     5004.890      957.106        2.262        0.412      190.784       33.265        0.030      343.330       19.364      863.295
09/21/2014  09:43:00        3.781      240.489      -32.622       43.783      103.822       36.434     1916.947    10778.950     1327.444        3.647        0.701      240.519       46.368        0.037      343.351       19.398      863.305
09/21/2014  09:44:00       18.314      256.897      -38.417       53.737       54.781       36.777     2887.665     3000.941     1352.556        3.752        0.362      257.549       30.424        0.014      343.283       19.281      863.307
09/21/2014  09:45:00      -10.077      180.384       -7.780       69.424      105.241       49.563     4819.710    11075.605     2456.487        2.552        0.918      180.666       58.303        0.104      343.358       19.411      863.311
09/21/2014  09:46:00      -47.668      199.547      -26.363       50.012       36.413       25.026     2501.243     1325.884      626.289        2.362        0.223      205.162       21.356        0.011      343.342       19.384      863.317
09/21/2014  09:47:00        7.782      163.241      -23.476       38.587       42.093       24.208     1488.926     1771.835      586.024        1.555        0.192      163.427       21.467        0.017      343.361       19.418      863.317
09/21/2014  09:48:00       13.913       96.623        9.929       48.014       84.985       46.176     2305.321     7222.530     2132.194        1.064        0.583       97.620       48.413        0.246      343.489       19.635      863.325
09/21/2014  09:49:00      -34.676      118.173       -7.781       82.046       66.080       28.118     6731.589     4366.621      790.624        1.356        0.594      123.155       23.922        0.038      343.497       19.649      863.312
09/21/2014  09:50:00      -33.160      197.423      -24.473       38.436       47.717       29.344     1477.345     2276.900      861.080        2.264        0.231      200.188       24.198        0.015      343.384       19.456      863.302
09/21/2014  09:51:00       11.776      123.834        0.841       78.663       59.423       32.462     6187.839     3531.111     1053.768        1.312        0.539      124.393       43.104        0.120      343.458       19.583      863.295
09/21/2014  09:52:00     -112.468       94.699      -19.008       47.335       56.684       31.725     2240.642     3213.036     1006.488        1.422        0.323      147.027       32.844        0.050      343.488       19.633      863.303
09/21/2014  09:53:00      -36.138       74.872      -19.133       29.453       49.539       19.513      867.483     2454.148      380.770        0.549        0.185       83.137       17.869        0.046      343.530       19.706      863.304
09/21/2014  09:54:00      -65.063      188.423      -18.346       62.778       63.789       39.698     3941.083     4069.035     1575.910        2.483        0.479      199.340       29.706        0.022      343.413       19.505      863.308
09/21/2014  09:55:00      -86.976      154.512      -24.769       54.192       92.751       31.510     2936.772     8602.721      992.896        2.229        0.627      177.310       31.229        0.031      343.407       19.494      863.312
09/21/2014  09:56:00     -119.370       84.790      -14.526       58.082       51.584       31.760     3373.519     2660.907     1008.689        1.434        0.352      146.419       24.965        0.029      343.390       19.468      863.323
09/21/2014  09:57:00      -65.807       91.571      -12.690       35.793       63.275       29.576     1281.165     4003.691      874.754        0.952        0.308      112.764       30.170        0.072      343.447       19.565      863.318
09/21/2014  09:58:00      -49.994       55.620        2.104       36.960       45.032       27.530     1366.022     2027.862      757.893        0.487        0.208       74.786       23.160        0.096      343.522       19.693      863.311
09/21/2014  09:59:00     -147.871      150.081      -36.738       73.861       65.223       47.392     5455.421     4254.003     2246.004        2.885        0.598      210.690       52.018        0.061      343.335       19.370      863.320
09/21/2014  10:00:00     -165.966      217.972      -43.577       57.540       76.735       39.403     3310.798     5888.234     1552.627        4.385        0.538      273.964       31.250        0.013      343.311       19.328      863.324
09/21/2014  10:01:00      -99.798      148.069      -14.593       58.379       61.439       37.686     3408.165     3774.743     1420.220        2.035        0.430      178.562       27.025        0.023      343.433       19.539      863.320
09/21/2014  10:02:00      -41.176       93.991      -10.731       30.040       47.980       22.236      902.409     2302.058      494.442        0.717        0.185      102.615       23.614        0.053      343.464       19.594      863.333
09/21/2014  10:03:00      -42.572      104.957      -15.327       36.916       70.296       29.261     1362.796     4941.558      856.199        1.011        0.358      113.262       31.410        0.077      343.538       19.718      863.348
09/21/2014  10:04:00      -57.748      180.000      -18.667       42.873       71.498       30.159     1838.114     5112.007      909.537        2.197        0.393      189.037       32.162        0.029      343.410       19.499      863.357
09/21/2014  10:05:00      -32.063      160.465      -24.321       46.982       40.555       21.416     2207.314     1644.713      458.624        1.584        0.216      163.637       14.589        0.008      343.500       19.655      863.368
09/21/2014  10:06:00      -61.272      157.551      -17.333       42.051       79.681       24.729     1768.286     6349.052      611.531        1.880        0.436      169.046       22.187        0.017      343.387       19.460      863.388
09/21/2014  10:07:00      -84.856      185.639      -25.690       47.668       59.211       30.633     2272.215     3505.967      938.406        2.452        0.336      204.114       28.189        0.019      343.427       19.529      863.398
09/21/2014  10:08:00     -119.750      114.632      -30.185       34.992       38.910       22.510     1224.449     1513.965      506.703        1.582        0.162      165.773       20.178        0.015      343.368       19.430      863.396
09/21/2014  10:09:00     -142.460      194.618      -41.523       49.386       60.694       40.913     2438.994     3683.789     1673.884        3.384        0.390      241.187       33.924        0.020      343.379       19.445      863.415
09/21/2014  10:10:00      -88.919      151.119      -22.261       44.412       44.126       30.025     1972.418     1947.115      901.522        1.803        0.241      175.338       28.524        0.026      343.430       19.536      863.430
09/21/2014  10:11:00     -118.155      105.788      -20.708       85.916       76.848       38.126     7381.593     5905.563     1453.593        2.016        0.737      158.592       52.425        0.109      343.474       19.608      863.428
09/21/2014  10:12:00      -66.911      108.761       -8.872       63.735       62.330       40.189     4062.158     3885.018     1615.146        1.297        0.478      127.695       44.038        0.119      343.490       19.639      863.441
09/21/2014  10:13:00      -99.760      157.419      -25.432       56.422       71.953       38.309     3183.442     5177.173     1467.562        2.260        0.491      186.367       39.143        0.044      343.466       19.596      863.452
09/21/2014  10:14:00      -95.192       97.467      -18.322       60.001       48.814       30.007     3600.099     2382.768      900.395        1.289        0.344      136.240       28.162        0.043      343.469       19.602      863.473
09/21/2014  10:15:00      -90.947       74.677      -12.134       42.436       43.208       31.972     1800.848     1866.958     1022.205        0.934        0.235      117.678       22.752        0.037      343.515       19.679      863.477
09/21/2014  10:16:00      -80.342       19.762      -18.717       50.758       75.117       20.809     2576.325     5642.523      433.013        0.792        0.433       82.737       20.566        0.062      343.557       19.752      863.482
09/21/2014  10:17:00      -61.338       61.570       -2.736       42.800       61.757       36.146     1831.861     3813.908     1306.510        0.726        0.348       86.910       26.847        0.095      343.581       19.794      863.485
09/21/2014  10:18:00     -100.626       59.173      -12.246       49.125       39.294       28.296     2413.261     1544.000      800.676        0.927        0.238      116.735       14.271        0.015      343.445       19.562      863.497
09/21/2014  10:19:00     -103.496       89.547      -12.041       52.920       49.619       32.397     2800.484     2462.032     1049.587        1.259        0.316      136.858       21.799        0.025      343.478       19.617      863.507
09/21/2014  10:20:00      -95.320       61.298      -19.836       69.423       54.190       28.603     4819.537     2936.533      818.119        1.090        0.429      113.329       31.224        0.076      343.518       19.685      863.508
09/21/2014  10:21:00     -167.347      118.080      -41.299       40.792       36.091       24.505     1663.979     1302.580      600.481        2.361        0.178      204.812       24.904        0.015      343.396       19.475      863.507
09/21/2014  10:22:00      -67.329       67.865       -7.269       33.384       40.236       24.252     1114.460     1618.913      588.151        0.626        0.166       95.598       25.132        0.069      343.567       19.769      863.509
09/21/2014  10:23:00      -99.985       55.292      -15.193       65.338       44.369       22.236     4269.052     1968.604      494.440        1.001        0.337      114.254       19.633        0.030      343.511       19.674      863.517
09/21/2014  10:24:00      -98.566       28.175      -20.542       35.945       47.903       28.020     1292.036     2294.703      785.093        0.765        0.219      102.514       17.448        0.029      343.483       19.626      863.519
09/21/2014  10:25:00      -46.364       39.488       -6.915       37.277       58.481       28.402     1389.549     3420.027      806.683        0.469        0.281       60.901       15.903        0.068      343.577       19.786      863.515
09/21/2014  10:26:00      -28.314       92.695       -2.606       48.085       60.831       29.688     2312.195     3700.364      881.379        0.815        0.345       96.923       35.962        0.138      343.548       19.737      863.516
09/21/2014  10:27:00      -63.964       13.217       -2.473       32.513       38.230       25.515     1057.084     1461.508      650.997        0.372        0.158       65.315       21.674        0.110      343.641       19.895      863.510
09/21/2014  10:28:00      -49.931       46.281      -11.468       37.364       33.583       17.588     1396.044     1127.805      309.327        0.380        0.142       68.081       15.736        0.053      343.631       19.878      863.501
09/21/2014  10:29:00      -81.309      -36.759       -0.220       55.242       51.396       32.657     3051.698     2641.556     1066.496        0.736        0.338       89.232       32.868        0.136      343.630       19.877      863.490
09/21/2014  10:30:00      -57.788       87.248        9.089       50.121       48.541       38.685     2512.142     2356.249     1496.530        0.870        0.318      104.650       28.736        0.075      343.716       20.022      863.485
09/21/2014  10:31:00      -66.946       66.241      -12.731       36.363       44.502       30.464     1322.233     1980.401      928.072        0.663        0.212       94.178       18.917        0.040      343.649       19.910      863.484
09/21/2014  10:32:00      -47.680       64.728      -12.062       33.548       39.373       25.855     1125.485     1550.224      668.499        0.498        0.167       80.394       22.609        0.079      343.608       19.840      863.481
09/21/2014  10:33:00      -14.006       17.699        8.569       21.036       25.121       19.207      442.519      631.069      368.926        0.101        0.072       22.571       12.692        0.316      343.841       20.236      863.474
09/21/2014  10:34:00      -13.190       63.000       -0.807       33.426       33.615       23.149     1117.317     1129.944      535.863        0.346        0.139       64.366       21.864        0.115      343.773       20.120      863.458
09/21/2014  10:35:00      -99.661       85.025      -12.163       45.582       42.999       32.061     2077.708     1848.922     1027.897        1.113        0.248      131.002       25.971        0.039      343.595       19.817      863.464
09/21/2014  10:36:00      -56.625       39.792       -2.898       47.424       47.032       31.106     2248.990     2212.025      967.594        0.511        0.271       69.208       24.258        0.123      343.678       19.959      863.472
09/21/2014  10:37:00      -39.549       36.891       -6.618       26.716       28.012       20.582      713.733      784.656      423.601        0.245        0.096       54.084       12.545        0.054      343.712       20.015      863.460
09/21/2014  10:38:00      -71.292        4.326       -2.287       48.638       46.753       21.411     2365.671     2185.867      458.424        0.506        0.250       71.424       26.133        0.134      343.632       19.880      863.458
09/21/2014  10:39:00      -79.082      -36.948       -6.689       41.046       42.799       29.169     1684.768     1831.767      850.814        0.601        0.218       87.287       19.813        0.052      343.633       19.882      863.464
09/21/2014  10:40:00      -80.900        9.814       -3.191       29.212       33.237       24.065      853.340     1104.715      579.125        0.459        0.127       81.493       14.392        0.031      343.648       19.907      863.464
09/21/2014  10:41:00      -53.071       16.930        2.134       41.085       24.392       22.564     1687.993      594.948      509.118        0.295        0.140       55.706       22.176        0.158      343.655       19.920      863.462
09/21/2014  10:42:00      -27.457       65.223      -10.424       26.472       32.606       32.927      700.769     1063.176     1084.212        0.398        0.142       70.767       11.384        0.026      343.783       20.137      863.471
09/21/2014  10:43:00        1.479       43.590      -10.500       29.949       42.351       16.656      896.922     1793.641      277.429        0.249        0.148       43.615       13.535        0.096      343.690       19.980      863.483
09/21/2014  10:44:00       40.689       44.525       -6.991       31.598       25.120       22.878      998.427      631.033      523.422        0.292        0.108       60.317       14.598        0.059      343.790       20.150      863.476
09/21/2014  10:45:00       10.739       55.743      -19.793       24.033       15.462       13.555      577.592      239.074      183.731        0.231        0.050       56.768        7.503        0.017      343.705       20.005      863.482
09/21/2014  10:46:00       13.940       44.111       -0.339       24.493       21.058       20.446      599.896      443.436      418.036        0.180        0.073       46.261       13.546        0.086      343.837       20.231      863.482
09/21/2014  10:47:00       62.131       49.014       11.052       28.615       28.058       29.851      818.793      787.248      891.053        0.444        0.125       79.136       21.083        0.071      343.793       20.155      863.478
09/21/2014  10:48:00       27.420       87.355      -15.942       31.527       36.894       18.730      993.968     1361.152      350.814        0.567        0.135       91.558       18.425        0.040      343.629       19.874      863.484
09/21/2014  10:49:00       19.044       97.221      -14.214       21.574       31.748       18.519      465.420     1007.952      342.938        0.592        0.091       99.068       16.921        0.029      343.597       19.822      863.496
09/21/2014  10:50:00       -5.179       62.993       -5.958       16.022       27.263       18.442      256.706      743.288      340.113        0.269        0.067       63.206       18.089        0.082      343.684       19.970      863.489
09/21/2014  10:51:00       11.662       -4.668        2.849       13.229        9.983       11.297      174.998       99.662      127.614        0.028        0.020       12.561        9.631        0.588      343.774       20.122      863.499
09/21/2014  10:52:00       14.501      -15.285        4.118       11.550       10.683       11.117      133.403      114.125      123.581        0.042        0.019       21.069        6.832        0.105      343.754       20.088      863.492
09/21/2014  10:53:00       -5.374        6.398        4.762       20.717       22.215       12.899      429.188      493.507      166.376        0.059        0.054        8.355       13.252        2.516      344.095       20.671      863.476
09/21/2014  10:54:00      -14.093      125.832      -17.171       15.775       26.041       14.401      248.845      678.154      207.387        0.873        0.057      126.619        8.420        0.004      343.659       19.926      863.476
09/21/2014  10:55:00       -8.282       95.040       -9.374       12.604       19.833       16.725      158.873      393.350      279.715        0.501        0.042       95.400       10.262        0.012      343.630       19.877      863.472
09/21/2014  10:56:00      -18.612       33.134      -17.403       18.740       31.292       17.081      351.184      979.167      291.769        0.168        0.081       38.004       19.259        0.257      343.632       19.880      863.453
09/21/2014  10:57:00        6.983       -1.660       23.683       15.712       14.013       12.528      246.873      196.357      156.957        0.061        0.030        7.178        9.690        1.822      344.247       20.930      863.452
09/21/2014  10:58:00       23.266       34.093        1.741       21.369       20.213       21.099      456.622      408.562      445.148        0.151        0.066       41.275       11.139        0.073      343.828       20.214      863.450
09/21/2014  10:59:00       20.050       23.344        4.562       16.762       19.281       20.005      280.981      371.752      400.192        0.101        0.053       30.772       15.048        0.239      343.812       20.188      863.436
09/21/2014  11:00:00        0.909        8.426        8.922       18.510       17.069       15.618      342.624      291.354      243.910        0.051        0.044        8.475       12.525        2.184      344.156       20.775      863.438
09/21/2014  11:01:00       62.845       32.445       14.377       33.123       26.846       14.138     1097.106      720.720      199.894        0.361        0.101       70.726        6.770        0.009      343.843       20.239      863.428
09/21/2014  11:02:00       59.960       32.626       15.780       54.574       23.710       25.039     2978.361      562.161      626.958        0.454        0.208       68.262       27.800        0.166      344.060       20.611      863.432
09/21/2014  11:03:00       29.792       99.503      -10.329       44.747       40.188       25.181     2002.312     1615.096      634.098        0.757        0.213      103.867       17.623        0.029      343.846       20.245      863.431
09/21/2014  11:04:00       64.676       87.230       -3.183       43.934       49.527       40.192     1930.156     2452.954     1615.420        0.890        0.300      108.591       31.796        0.086      343.853       20.257      863.434
09/21/2014  11:05:00       51.373       96.863       -4.615       38.137       53.451       38.001     1454.435     2857.016     1444.078        0.890        0.288      109.643       33.101        0.091      343.745       20.073      863.443
09/21/2014  11:06:00       50.093       76.957       -4.004       36.758       45.690       38.295     1351.114     2087.573     1466.514        0.668        0.245       91.824       28.741        0.098      343.761       20.101      863.433
09/21/2014  11:07:00       99.501       73.389       10.194       55.444       35.343       39.313     3074.089     1249.124     1545.485        1.063        0.293      123.639       20.825        0.028      343.845       20.243      863.425
09/21/2014  11:08:00       65.132       79.717       12.668       60.158       45.944       35.665     3619.032     2110.837     1271.999        0.888        0.350      102.942       27.352        0.071      343.786       20.144      863.406
09/21/2014  11:09:00       62.724      108.290       -5.451       38.469       51.441       37.054     1479.843     2646.189     1373.036        1.059        0.275      125.144       32.895        0.069      343.766       20.109      863.398
09/21/2014  11:10:00       76.627       66.448        2.627       43.776       33.936       25.499     1916.298     1151.631      650.204        0.701        0.186      101.425       19.293        0.036      343.658       19.924      863.378
09/21/2014  11:11:00        5.894       92.020        0.590       56.504       78.559       25.106     3192.736     6171.528      630.322        0.925        0.500       92.208       39.443        0.183      343.724       20.036      863.364
09/21/2014  11:12:00       -8.785      113.975      -13.639       20.995       33.498       17.558      440.772     1122.142      308.285        0.756        0.094      114.313       13.343        0.014      343.650       19.912      863.331
09/21/2014  11:13:00      -29.344       50.491       -3.093       22.627       34.763       16.325      511.989     1208.497      266.500        0.270        0.099       58.399       16.458        0.079      343.917       20.366      863.315
09/21/2014  11:14:00      -42.934       82.527      -13.152       22.109       22.041       25.986      488.819      485.797      675.289        0.524        0.082       93.027       19.278        0.043      343.728       20.043      863.290
09/21/2014  11:15:00      -19.230       35.732       -8.205       13.368       24.295       16.809      178.697      590.264      282.551        0.138        0.053       40.578        7.487        0.034      343.821       20.203      863.266
09/21/2014  11:16:00       12.893       -8.218        7.447       10.708       10.751       12.699      114.651      115.576      161.264        0.034        0.020       15.290        8.932        0.341      343.999       20.505      863.251
09/21/2014  11:17:00       39.129       23.582       19.226       19.447       16.677       17.054      378.180      278.117      290.834        0.170        0.047       45.686        9.648        0.045      344.020       20.542      863.230
09/21/2014  11:18:00       10.760       49.571       -0.030       24.952       40.008       14.639      622.601     1600.601      214.309        0.250        0.122       50.725       14.400        0.081      344.008       20.523      863.212
09/21/2014  11:19:00       19.017       84.527      -13.513       31.671       34.915       28.286     1003.045     1219.052      800.104        0.536        0.151       86.640       10.186        0.014      343.782       20.136      863.200
09/21/2014  11:20:00       36.048       39.332        2.856       44.283       21.541       24.235     1961.023      464.007      587.334        0.293        0.151       53.353       16.499        0.096      344.057       20.606      863.195
09/21/2014  11:21:00       47.624       22.110        9.084       20.672       21.536       16.883      427.340      463.801      285.042        0.201        0.059       52.506       10.127        0.037      343.815       20.193      863.178
09/21/2014  11:22:00       -6.491       25.622        0.303       20.277       21.632       13.541      411.165      467.926      183.364        0.088        0.053       26.431       10.952        0.172      344.130       20.730      863.178
09/21/2014  11:23:00       20.328       38.454        2.660       32.496       20.708       20.224     1055.988      428.820      409.026        0.190        0.095       43.497       10.084        0.054      344.243       20.924      863.166
09/21/2014  11:24:00      -27.448       43.200       -5.432       45.572       29.388       19.641     2076.853      863.638      385.752        0.299        0.166       51.182       11.202        0.048      344.324       21.061      863.165
09/21/2014  11:25:00      -60.369       -9.641       -5.322       45.637       36.833       26.736     2082.770     1356.664      714.813        0.396        0.208       61.134       23.225        0.144      344.263       20.958      863.164
09/21/2014  11:26:00       24.416      -28.628       -0.590       47.569       32.818       30.263     2262.844     1077.046      915.864        0.284        0.213       37.626       27.246        0.524      344.446       21.270      863.153
09/21/2014  11:27:00     -102.922      -49.394       -2.282       54.644       33.897       22.995     2985.916     1149.002      528.788        0.885        0.233      114.161       11.159        0.010      344.017       20.536      863.152
09/21/2014  11:28:00      -94.151      -34.075      -11.261       35.514       31.801       18.330     1261.230     1011.329      335.977        0.638        0.130      100.128       11.632        0.013      343.766       20.108      863.148
09/21/2014  11:29:00      -39.790       33.062      -13.116       28.037       46.267       17.817      786.076     2140.637      317.456        0.305        0.162       51.733       21.527        0.173      343.923       20.378      863.151
09/21/2014  11:30:00       23.613       34.153       -3.520       18.759       24.282       35.475      351.893      589.635     1258.499        0.197        0.110       41.521       15.068        0.132      344.201       20.853      863.145
09/21/2014  11:31:00        9.191       10.872      -15.397       10.265       14.206       13.212      105.370      201.801      174.559        0.046        0.024       14.236       10.625        0.557      344.014       20.532      863.153
09/21/2014  11:32:00        3.584       -0.530       -4.352       13.361       12.131       16.758      178.520      147.168      280.831        0.032        0.030        3.623       10.966        9.159      344.223       20.891      863.152
09/21/2014  11:33:00       46.960       30.940       15.507       19.044       22.469       19.039      362.658      504.845      362.492        0.232        0.061       56.237       11.612        0.043      343.925       20.381      863.147
09/21/2014  11:34:00       27.825       33.701        6.569       39.858       26.173       16.267     1588.620      685.052      264.618        0.225        0.127       43.703       20.027        0.210      344.216       20.877      863.149
09/21/2014  11:35:00       56.993       65.686       41.538       57.751       41.873       50.070     3335.208     1753.367     2506.986        0.844        0.380       86.965       40.161        0.213      344.313       21.042      863.134
09/21/2014  11:36:00      105.568       81.415       33.871       42.115       30.329       27.366     1773.704      919.876      748.896        1.118        0.172      133.316       12.866        0.009      343.860       20.267      863.137
09/21/2014  11:37:00       78.344       65.926       17.062       20.377       26.344       34.280      415.213      694.018     1175.091        0.653        0.114      102.392       26.544        0.067      343.753       20.086      863.133
09/21/2014  11:38:00       22.947       23.989        7.240       24.231       16.007       17.900      587.164      256.231      320.403        0.116        0.058       33.197       12.355        0.139      344.070       20.628      863.135
09/21/2014  11:39:00       21.358        0.560        3.083       11.778       14.552       19.399      138.721      211.758      376.331        0.060        0.036       21.366       11.062        0.268      344.114       20.704      863.131
09/21/2014  11:40:00      -81.313      -33.294      -13.712       46.830       31.327       24.918     2193.050      981.380      620.913        0.585        0.190       87.865       21.950        0.062      344.079       20.644      863.118
09/21/2014  11:41:00      -23.048        7.685        1.517       24.633       24.095       20.593      606.776      580.577      424.061        0.110        0.081       24.295        7.345        0.091      344.294       21.010      863.114
09/21/2014  11:42:00      -63.979       37.320        2.576       34.113       28.163       20.960     1163.715      793.158      439.320        0.394        0.120       74.068       17.923        0.059      344.269       20.969      863.107
09/21/2014  11:43:00      -41.008      -26.487        1.880       23.670       35.280       17.423      560.276     1244.686      303.550        0.225        0.105       48.818       13.607        0.078      344.217       20.880      863.104
09/21/2014  11:44:00     -131.775        6.136      -11.639       65.388       41.258       24.503     4275.558     1702.216      600.410        1.206        0.329      131.918       25.848        0.038      344.143       20.752      863.111
09/21/2014  11:45:00      -73.712      -43.713        7.705       65.837       38.336       26.672     4334.557     1469.650      711.399        0.696        0.326       85.699       30.810        0.129      344.263       20.959      863.107
09/21/2014  11:46:00      -17.224       26.439       -0.499       22.575       31.939       25.567      509.614     1020.086      653.653        0.159        0.109       31.555       24.735        0.614      344.658       21.634      863.102
09/21/2014  11:47:00      -34.672       37.458        4.012       27.225       31.006       25.851      741.182      961.354      668.269        0.250        0.119       51.042       18.336        0.129      344.480       21.329      863.098
09/21/2014  11:48:00      -78.301        5.236      -11.243       35.285       40.511       25.650     1245.060     1641.160      657.923        0.491        0.177       78.475       12.333        0.025      344.120       20.713      863.108
09/21/2014  11:49:00      -83.060       38.420      -20.407       28.813       23.698       18.627      830.210      561.614      346.972        0.526        0.087       91.515       13.930        0.023      344.003       20.514      863.105
09/21/2014  11:50:00      -87.446       30.145      -23.551       20.656       22.553       13.755      426.690      508.616      189.210        0.512        0.056       92.496       11.248        0.015      343.908       20.352      863.105
09/21/2014  11:51:00      -20.536      -50.694      -14.334       46.723       56.721       16.696     2183.083     3217.267      278.742        0.444        0.284       54.696       21.039        0.148      344.007       20.519      863.105
09/21/2014  11:52:00        0.009      -86.410       -4.300       24.538       21.793       21.492      602.125      474.927      461.893        0.451        0.077       86.410        8.397        0.009      344.005       20.517      863.093
09/21/2014  11:53:00        5.472      -93.139       15.818       18.878       45.838       19.521      356.379     2101.140      381.063        0.590        0.142       93.299        9.928        0.011      344.129       20.729      863.081
09/21/2014  11:54:00       -2.217        5.903        6.406       27.065       23.354       16.624      732.529      545.414      276.342        0.082        0.078        6.305       14.414        5.226      344.726       21.750      863.080
09/21/2014  11:55:00       16.839       32.525        9.823       32.710       59.918       28.110     1069.958     3590.146      790.156        0.344        0.273       36.626       30.604        0.698      344.748       21.787      863.090
09/21/2014  11:56:00       -2.637       33.793        2.880       26.301       39.866       23.572      691.744     1589.314      555.627        0.200        0.142       33.896       20.455        0.364      344.545       21.440      863.091
09/21/2014  11:57:00       -2.402      176.836      -23.357       30.283       51.628       26.735      917.052     2665.416      714.737        1.806        0.215      176.853       21.175        0.014      344.139       20.744      863.086
09/21/2014  11:58:00      -33.326      142.711      -17.459       18.813       24.486       19.089      353.917      599.564      364.383        1.155        0.066      146.551       10.350        0.005      344.018       20.538      863.092
09/21/2014  11:59:00      -19.368      114.293       -8.359       13.536       23.889       18.438      183.223      570.679      339.952        0.730        0.055      115.922        9.158        0.006      344.155       20.773      863.092
09/21/2014  12:00:00       -9.614       74.012       -0.414       19.585       62.944       19.482      383.557     3961.915      379.547        0.515        0.236       74.633       12.583        0.028      344.360       21.123      863.092
09/21/2014  12:01:00      -16.782       96.990       -4.600       17.611       36.021       23.149      310.148     1297.496      535.878        0.593        0.107       98.431       21.377        0.047      344.211       20.870      863.094
09/21/2014  12:02:00      -21.353       80.278       -7.516       20.364       19.161       17.803      414.680      367.149      316.940        0.403        0.055       83.070        9.856        0.014      344.206       20.861      863.085
09/21/2014  12:03:00       33.188       40.201       10.554       26.134       22.348       26.387      682.976      499.441      696.261        0.235        0.094       52.131       19.097        0.134      344.458       21.292      863.080
09/21/2014  12:04:00       37.667       52.623       -7.816       27.375       21.410       18.862      749.414      458.401      355.767        0.291        0.078       64.715       14.498        0.050      344.248       20.934      863.061
09/21/2014  12:05:00       25.359       21.602        4.032       30.078       23.370       21.190      904.664      546.158      449.005        0.151        0.095       33.313       13.397        0.162      344.462       21.300      863.051
09/21/2014  12:06:00      -14.303       38.867       -8.020       21.521       23.958       16.849      463.174      573.967      283.877        0.155        0.066       41.415        9.016        0.047      344.356       21.117      863.041
09/21/2014  12:07:00      -29.686        0.239       14.358       36.665       24.725       26.075     1344.325      611.324      679.895        0.186        0.132       29.687       23.164        0.609      344.824       21.918      863.026
09/21/2014  12:08:00        7.928        8.563       28.088       42.428       40.675       42.918     1800.126     1654.456     1841.963        0.311        0.265       11.669       24.347        4.353      344.788       21.856      863.021
09/21/2014  12:09:00      -35.031      -50.315       11.488       48.941       36.102       32.918     2395.191     1303.332     1083.583        0.434        0.239       61.309       27.234        0.197      344.646       21.613      863.013
09/21/2014  12:10:00      -38.878      -52.135       12.279       58.221       35.187       30.262     3389.720     1238.122      915.772        0.496        0.277       65.035       29.977        0.212      344.623       21.573      863.006
09/21/2014  12:11:00      -62.170      -34.105        2.773       37.849       34.600       23.939     1432.537     1197.128      573.068        0.412        0.160       70.910       15.373        0.047      344.602       21.538      863.009
09/21/2014  12:12:00       -4.278      -17.970       35.683       60.311       44.780       38.335     3637.454     2005.229     1469.577        0.436        0.356       18.472       18.401        0.992      344.809       21.891      863.005
09/21/2014  12:13:00      -45.427      -24.937       19.058       38.215       43.280       26.186     1460.368     1873.118      685.705        0.353        0.201       51.822       23.452        0.205      344.739       21.771      863.000
09/21/2014  12:14:00       -1.950      -49.431       -5.065       35.339       52.308       26.507     1248.851     2736.111      702.605        0.358        0.234       49.470       25.273        0.261      344.720       21.740      863.004
09/21/2014  12:15:00       23.869      -24.193       14.296       47.565       49.637       38.667     2262.416     2463.844     1495.144        0.379        0.311       33.986       37.395        1.211      344.699       21.704      863.002
09/21/2014  12:16:00        3.123      -68.460       11.581       46.226       58.859       31.986     2136.816     3464.336     1023.129        0.573        0.331       68.531       33.048        0.233      344.639       21.601      863.001
09/21/2014  12:17:00      -11.427     -116.663       -6.061       56.319       61.576       32.171     3171.839     3791.664     1034.960        1.089        0.400      117.222       27.688        0.056      344.490       21.344      862.987
09/21/2014  12:18:00      -45.178      -19.699        4.197       35.087       44.033       26.092     1231.128     1938.883      680.804        0.315        0.193       49.286       28.674        0.338      344.734       21.763      862.979
09/21/2014  12:19:00      -23.250      -10.873        9.794       31.969       25.112       28.740     1021.992      630.627      826.012        0.162        0.124       25.667       18.533        0.521      344.787       21.853      862.970
09/21/2014  12:20:00       -0.234      -14.659       16.083       23.625       39.116       31.109      558.126     1530.085      967.760        0.176        0.153       14.661       11.986        0.668      344.846       21.955      862.956
09/21/2014  12:21:00      -25.627       -5.286        9.613       28.043       20.263       17.081      786.435      410.582      291.757        0.113        0.074       26.166       14.792        0.320      344.940       22.115      862.941
09/21/2014  12:22:00     -127.460      -44.652       -8.866       48.814       64.799       29.830     2382.771     4198.930      889.839        1.289        0.374      135.055       24.338        0.032      344.548       21.443      862.937
09/21/2014  12:23:00      -46.172      -99.984       19.657      108.080       52.397       63.921    11681.339     2745.475     4085.836        1.551        0.926      110.130       42.467        0.149      344.641       21.604      862.919
09/21/2014  12:24:00      -35.315      -63.116       -9.865       54.607       48.684       38.362     2981.964     2370.084     1471.632        0.607        0.341       72.324       36.144        0.250      344.739       21.772      862.935
09/21/2014  12:25:00      -81.156      -53.998        7.655       59.319       58.480       30.310     3518.691     3419.968      918.701        0.871        0.393       97.479       31.416        0.104      344.786       21.851      862.946
09/21/2014  12:26:00      -73.942      -64.959        7.941       69.091       53.942       37.676     4773.499     2909.759     1419.505        0.942        0.455       98.423       37.743        0.147      344.749       21.789      862.951
09/21/2014  12:27:00     -103.908      -71.864       -2.408       81.852       42.149       30.442     6699.689     1776.543      926.710        1.268        0.470      126.338       22.830        0.033      344.437       21.255      862.947
09/21/2014  12:28:00      -17.857      -35.749       -0.701       53.566       38.352       33.901     2869.297     1470.883     1149.252        0.354        0.274       39.961       24.054        0.362      344.581       21.502      862.944
09/21/2014  12:29:00       -5.930      -35.246       27.898       30.573       57.144       36.380      934.699     3265.473     1323.514        0.379        0.276       35.741       21.025        0.346      344.933       22.103      862.935
09/21/2014  12:30:00       13.022      -61.835      -10.734       51.443       49.134       42.802     2646.370     2414.146     1832.014        0.550        0.345       63.191       28.725        0.207      344.643       21.607      862.931
09/21/2014  12:31:00       39.513      -18.900       20.068       46.927       40.624       33.969     2202.143     1650.325     1153.898        0.366        0.250       43.801       35.136        0.643      344.877       22.007      862.933
09/21/2014  12:32:00       21.357      -38.090       14.369       62.023       45.968       44.311     3846.845     2113.066     1963.493        0.502        0.396       43.669       37.420        0.734      344.710       21.722      862.923
09/21/2014  12:33:00       37.311        3.407       38.043       37.467       29.391       32.280     1403.807      863.826     1042.012        0.308        0.165       37.466       20.226        0.291      344.826       21.919      862.918
09/21/2014  12:34:00        4.557       26.947       61.746       31.579       40.193       30.245      997.254     1615.485      914.773        0.404        0.176       27.330       26.609        0.948      344.939       22.115      862.902
09/21/2014  12:35:00       -1.308       -4.148       49.264       19.320       31.603       23.847      373.258      998.737      568.686        0.219        0.097        4.350       21.117       23.567      344.754       21.798      862.888
09/21/2014  12:36:00      -17.819      -40.225       13.263       40.485       36.002       29.088     1639.031     1296.170      846.131        0.295        0.189       43.996       25.264        0.330      344.796       21.869      862.886
09/21/2014  12:37:00      -40.869      -13.970       11.089       21.004       33.897       18.540      441.154     1149.008      343.732        0.196        0.097       43.191       16.263        0.142      344.790       21.860      862.885
09/21/2014  12:38:00      -78.078      -19.747       -5.358       34.090       38.116       23.548     1162.121     1452.803      554.489        0.484        0.158       80.536       16.669        0.043      344.866       21.989      862.870
09/21/2014  12:39:00      -59.417      -46.522        4.456       49.670       38.098       22.135     2467.122     1451.473      489.953        0.506        0.220       75.463       17.809        0.056      344.794       21.867      862.864
09/21/2014  12:40:00      -35.005      -13.446        2.993       29.112       21.412       17.081      847.517      458.467      291.761        0.151        0.080       37.499       16.028        0.183      344.916       22.074      862.854
09/21/2014  12:41:00      -39.254      -15.859       -0.055       41.317       28.110       17.861     1707.085      790.198      319.033        0.230        0.141       42.337       14.723        0.121      344.885       22.020      862.840
09/21/2014  12:42:00      -32.456      -29.366       -3.527       29.495       26.525       19.768      869.955      703.566      390.780        0.195        0.098       43.769       11.991        0.075      344.839       21.941      862.836
09/21/2014  12:43:00      -33.609      -25.586        9.294       44.242       31.873       24.084     1957.393     1015.899      580.015        0.271        0.178       42.240        9.342        0.049      344.945       22.124      862.829
09/21/2014  12:44:00      -21.888      -22.018       -8.990       32.538       46.094       21.195     1058.726     2124.690      449.221        0.234        0.182       31.046       12.555        0.164      344.784       21.849      862.830
09/21/2014  12:45:00      -19.123      -22.741        2.761       43.066       28.853       16.170     1854.667      832.496      261.477        0.192        0.147       29.713        7.316        0.061      344.676       21.665      862.826
09/21/2014  12:46:00      -88.080      -43.135        0.298       33.920       37.217       21.328     1150.541     1385.132      454.894        0.630        0.150       98.075       20.502        0.044      344.653       21.625      862.816
09/21/2014  12:47:00      -92.083      -43.319        9.962       73.066       47.538       33.678     5338.675     2259.832     1134.208        0.959        0.437      101.763       35.776        0.124      344.755       21.798      862.801
09/21/2014  12:48:00     -126.919      -89.715      -10.716       38.896       53.732       21.658     1512.917     2887.133      469.051        1.457        0.243      155.426       14.481        0.009      344.458       21.292      862.792
09/21/2014  12:49:00     -105.119      -73.744       -8.630       33.985       39.172       21.866     1154.965     1534.482      478.118        0.986        0.158      128.407       17.016        0.018      344.438       21.258      862.778
09/21/2014  12:50:00      -70.063      -46.667       -1.694       23.769       25.205       15.228      564.970      635.309      231.896        0.426        0.072       84.182       10.789        0.016      344.474       21.317      862.762
09/21/2014  12:51:00      -73.684      -59.496       -2.430       39.383       25.876       18.130     1550.988      669.572      328.680        0.576        0.127       94.705       18.310        0.037      344.569       21.481      862.742
09/21/2014  12:52:00      -91.765      -50.538      -10.478       37.249       46.327       23.739     1387.494     2146.211      563.535        0.759        0.205      104.761       19.961        0.036      344.588       21.512      862.723
09/21/2014  12:53:00      -51.020      -68.910       -2.831       69.440       36.032       29.416     4821.911     1298.292      865.306        0.717        0.349       85.741       18.360        0.046      344.762       21.813      862.703
09/21/2014  12:54:00      -20.636      -51.739       -1.824       45.176       40.730       25.721     2040.862     1658.949      661.584        0.373        0.218       55.703       16.523        0.088      344.868       21.993      862.692
09/21/2014  12:55:00      -12.896      -79.320      -26.938       50.109       44.453       20.761     2510.891     1976.062      431.010        0.605        0.246       80.362       21.840        0.074      344.825       21.918      862.694
09/21/2014  12:56:00      -57.762      -29.247       -6.474       25.754       43.683       15.894      663.261     1908.209      252.604        0.353        0.141       64.745        9.755        0.023      344.800       21.876      862.698
09/21/2014  12:57:00      -13.851     -100.138       -7.848       36.871       63.859       31.513     1359.456     4078.001      993.088        0.835        0.322      101.092       35.086        0.120      344.840       21.944      862.694
09/21/2014  12:58:00      -72.320      -81.670        4.864       53.922       42.512       34.789     2907.606     1807.308     1210.293        0.892        0.296      109.088       18.361        0.028      344.901       22.048      862.699
09/21/2014  12:59:00     -110.210     -146.407      -11.842       53.721       51.271       27.290     2885.925     2628.686      744.749        1.999        0.313      183.252       23.970        0.017      344.577       21.493      862.707
09/21/2014  13:00:00     -108.424      -95.063      -15.568       25.122       44.155       12.759      631.138     1949.673      162.797        1.189        0.137      144.197       14.693        0.010      344.466       21.304      862.713
09/21/2014  13:01:00      -63.240      -93.837       -6.075       43.784       33.407       18.797     1917.020     1116.038      353.328        0.811        0.169      113.158       18.757        0.027      344.560       21.464      862.705
09/21/2014  13:02:00     -105.207       -9.468      -11.791       31.100       30.738       22.575      967.225      944.851      509.650        0.686        0.121      105.632       24.791        0.055      344.516       21.390      862.690
09/21/2014  13:03:00      -37.151        7.330       -1.864       21.150       18.465       20.333      447.314      340.967      413.438        0.132        0.060       37.868       13.117        0.120      344.755       21.799      862.687
09/21/2014  13:04:00      -46.977      -37.124      -11.961       27.096       32.346       18.595      734.169     1046.255      345.775        0.293        0.106       59.875        8.342        0.019      344.865       21.985      862.676
09/21/2014  13:05:00      -34.049      -66.359       14.829       42.105       35.721       27.522     1772.831     1275.966      757.433        0.479        0.190       74.584       21.384        0.082      344.961       22.152      862.668
09/21/2014  13:06:00       18.930      -38.039       22.412       35.318       51.787       38.413     1247.361     2681.941     1475.579        0.386        0.270       42.489       27.343        0.414      344.938       22.112      862.663
09/21/2014  13:07:00       11.772      -12.167       33.004       32.637       38.832       34.930     1065.186     1507.947     1220.099        0.258        0.190       16.930       15.072        0.793      345.105       22.397      862.660
09/21/2014  13:08:00       43.869      -29.137       22.533       35.007       42.608       38.888     1225.519     1815.461     1512.245        0.392        0.228       52.664       35.429        0.453      344.895       22.040      862.644
09/21/2014  13:09:00        0.207      -25.751       27.702       26.920       43.937       31.258      724.665     1930.485      977.043        0.253        0.182       25.752       25.335        0.968      345.097       22.383      862.621
09/21/2014  13:10:00        2.779      -80.129      -13.182       34.738       24.692       21.925     1206.695      609.702      480.719        0.445        0.115       80.177       15.973        0.040      344.874       22.003      862.599
09/21/2014  13:11:00        7.789       -3.276       16.556       20.221       29.247       17.591      408.872      855.397      309.448        0.096        0.079        8.450       11.541        1.866      345.183       22.531      862.578
09/21/2014  13:12:00      -23.311       -2.305        8.111       24.990       18.133       20.366      624.491      328.793      414.755        0.099        0.068       23.425       14.639        0.391      345.125       22.433      862.547
09/21/2014  13:13:00      -18.812       -2.521        9.348       20.215       23.591       15.006      408.644      556.521      225.191        0.082        0.060       18.980       10.765        0.322      345.040       22.287      862.512
09/21/2014  13:14:00      -58.240      -25.088      -12.694       11.849       15.189       11.142      140.399      230.698      124.138        0.234        0.025       63.414        8.940        0.020      344.708       21.719      862.480
09/21/2014  13:15:00       -8.834       14.006       17.045       31.169       18.991       21.215      971.525      360.644      450.060        0.117        0.089       16.559       18.952        1.310      345.160       22.493      862.446
09/21/2014  13:16:00       -0.296        7.400       38.926       15.126       15.894       13.516      228.781      252.619      182.674        0.112        0.033        7.406        9.799        1.751      345.398       22.900      862.422
09/21/2014  13:17:00      -42.327      -21.680        3.730       33.459       23.533       17.674     1119.495      553.793      312.381        0.213        0.099       47.556       19.081        0.161      345.095       22.381      862.394
09/21/2014  13:18:00      -22.974       -5.617        5.962       21.081       19.004       17.735      444.429      361.139      314.523        0.086        0.056       23.651       11.989        0.257      345.163       22.498      862.362
09/21/2014  13:19:00      -31.231      -19.178        0.362       24.827       21.704       17.047      616.357      471.082      290.610        0.136        0.069       36.650        6.547        0.032      344.949       22.131      862.339
09/21/2014  13:20:00        3.143      -35.834        5.470       34.724       26.052       20.204     1205.754      678.709      408.219        0.181        0.115       35.972       15.610        0.188      345.021       22.256      862.324
09/21/2014  13:21:00      -63.097      -59.816       -8.694       16.493       26.356       14.899      272.013      694.641      221.989        0.441        0.059       86.944       12.022        0.019      344.682       21.675      862.317
09/21/2014  13:22:00      -30.586      -59.116      -10.118       18.485       20.806       12.101      341.698      432.882      146.439        0.273        0.046       66.559        3.302        0.002      344.749       21.787      862.313
09/21/2014  13:23:00      -35.921       -1.951       11.553       22.762       27.624       20.984      518.099      763.073      440.338        0.157        0.086       35.974       16.514        0.211      344.990       22.200      862.310
09/21/2014  13:24:00      -28.277      -18.776        2.087       22.572       21.032       16.810      509.480      442.331      282.584        0.120        0.062       33.943        6.293        0.034      345.103       22.396      862.309
09/21/2014  13:25:00       19.532      -94.495      -16.769       30.526       33.205       22.640      931.828     1102.542      512.567        0.607        0.127       96.493       16.997        0.031      344.945       22.124      862.311
09/21/2014  13:26:00       13.232      -78.941      -10.310       41.731       51.067       34.218     1741.435     2607.797     1170.886        0.602        0.276       80.042       24.073        0.090      345.127       22.436      862.308
09/21/2014  13:27:00       48.191      -50.429        1.527       36.330       41.307       38.113     1319.891     1706.280     1452.618        0.467        0.224       69.753       32.609        0.219      345.162       22.494      862.303
09/21/2014  13:28:00       39.239      -90.563      -17.170       44.699       47.852       33.150     1998.009     2289.822     1098.931        0.771        0.269       98.699       20.980        0.045      345.099       22.389      862.293
09/21/2014  13:29:00      -38.377      -44.673       19.070       49.201       47.632       34.818     2420.726     2268.820     1212.296        0.487        0.295       58.894       22.123        0.141      345.268       22.677      862.287
09/21/2014  13:30:00       58.406      -71.017       -8.347       56.583       34.174       29.028     3201.691     1167.889      842.599        0.687        0.261       91.949       26.981        0.086      345.022       22.256      862.282
09/21/2014  13:31:00       11.829      -46.058       13.170       28.456       50.299       34.120      809.765     2529.964     1164.208        0.347        0.225       47.553       36.836        0.600      345.151       22.477      862.280
09/21/2014  13:32:00       74.037       -7.679       38.628       67.763       43.542       41.565     4591.852     1895.903     1727.666        0.762        0.411       74.435       39.679        0.284      345.144       22.464      862.266
09/21/2014  13:33:00       95.758      -99.519        1.707       50.326       54.018       31.514     2532.689     2917.912      993.126        1.276        0.322      138.107       31.981        0.054      344.947       22.128      862.265
09/21/2014  13:34:00       70.865      -47.478       26.130       54.662       64.784       43.192     2987.956     4196.982     1865.585        0.850        0.453       85.300       42.860        0.252      345.029       22.269      862.256
09/21/2014  13:35:00       55.382      -67.986       12.947       45.624       50.700       44.916     2081.550     2570.510     2017.429        0.726        0.333       87.689       32.612        0.138      344.974       22.173      862.254
09/21/2014  13:36:00       48.498      -15.703       23.849       53.849       69.714       39.192     2899.722     4860.022     1535.983        0.623        0.465       50.977       48.925        0.921      345.132       22.443      862.247
09/21/2014  13:37:00       11.927       41.510       59.347       44.108       39.112       41.987     1945.482     1529.721     1762.944        0.531        0.262       43.189       35.877        0.690      345.253       22.650      862.242
09/21/2014  13:38:00       23.800       40.582       44.594       38.428       40.884       24.594     1476.731     1671.539      604.858        0.398        0.188       47.046       18.776        0.159      345.173       22.514      862.239
09/21/2014  13:39:00       26.387      -47.268       10.211       52.680       93.740       32.765     2775.142     8787.236     1073.524        0.783        0.632       54.135       38.824        0.514      345.187       22.537      862.233
09/21/2014  13:40:00       69.422     -116.914      -42.589       52.634       59.391       23.029     2770.287     3527.299      530.334        1.356        0.341      135.972       14.209        0.011      345.000       22.218      862.226
09/21/2014  13:41:00       83.118      -96.021        3.153       72.422       56.858       41.682     5244.921     3232.824     1737.402        1.317        0.511      126.999       41.500        0.107      345.035       22.279      862.227
09/21/2014  13:42:00       80.644      -19.581       14.852       42.344       79.344       49.120     1792.994     6295.503     2412.790        0.880        0.525       82.987       47.142        0.323      344.978       22.180      862.223
09/21/2014  13:43:00       47.480        8.861       17.557       36.667       64.581       34.834     1344.468     4170.647     1213.389        0.468        0.336       48.299       35.053        0.527      345.017       22.248      862.217
09/21/2014  13:44:00       20.056      -72.070       13.123       29.123       48.775       33.953      848.174     2379.046     1152.773        0.507        0.219       74.809       28.974        0.150      345.101       22.392      862.207
09/21/2014  13:45:00       82.629      -90.399      -11.099       43.191       60.962       35.143     1865.432     3716.368     1235.025        1.097        0.341      122.472       33.029        0.073      344.932       22.101      862.199
09/21/2014  13:46:00       72.204       46.202       34.127       53.577       41.723       40.602     2870.509     1740.795     1648.540        0.739        0.313       85.720       35.363        0.170      345.117       22.419      862.177
09/21/2014  13:47:00       60.605        5.577       36.816       51.205       45.811       39.174     2621.974     2098.613     1534.637        0.566        0.313       60.861       31.697        0.271      345.188       22.539      862.161
09/21/2014  13:48:00       53.388      -21.030       44.100       48.846       86.702       43.937     2385.927     7517.266     1930.478        0.853        0.592       57.381       49.420        0.742      345.114       22.414      862.142
09/21/2014  13:49:00       69.170       20.617       34.652       60.847       79.318       44.975     3702.317     6291.314     2022.760        0.921        0.601       72.177       34.926        0.234      345.208       22.574      862.126
09/21/2014  13:50:00       99.868       46.475       46.871       68.145       50.375       37.696     4643.713     2537.646     1421.007        1.146        0.430      110.152       32.189        0.085      345.047       22.298      862.114
09/21/2014  13:51:00       44.612       63.233       58.658       55.130       46.609       49.121     3039.329     2172.417     2412.880        0.853        0.381       77.386       37.846        0.239      345.159       22.491      862.108
09/21/2014  13:52:00       72.311       54.124       45.119       55.234       41.107       37.660     3050.818     1689.786     1418.240        0.818        0.308       90.323       27.104        0.090      345.174       22.516      862.102
09/21/2014  13:53:00       81.219       57.059       42.313       73.969       50.333       42.140     5471.344     2533.368     1775.795        1.071        0.489       99.259       40.273        0.165      345.139       22.456      862.091
09/21/2014  13:54:00        3.464       51.368       67.209       30.788       52.997       40.052      947.927     2808.666     1604.176        0.626        0.268       51.484       28.170        0.299      345.398       22.900      862.085
09/21/2014  13:55:00       39.792       41.650       49.049       34.987       32.289       35.067     1224.089     1042.587     1229.673        0.461        0.175       57.603       14.464        0.063      345.217       22.590      862.086
09/21/2014  13:56:00      108.013       59.347       22.338       30.180       29.492       32.899      910.822      869.798     1082.321        0.927        0.143      123.243       16.010        0.017      345.100       22.389      862.074
09/21/2014  13:57:00       68.350       44.772       27.818       39.295       32.786       33.943     1544.073     1074.947     1152.121        0.561        0.189       81.708       24.841        0.092      345.294       22.721      862.070
09/21/2014  13:58:00       52.869       49.709       61.140       55.922       56.531       32.568     3127.253     3195.705     1060.693        0.819        0.369       72.568       22.846        0.099      345.401       22.905      862.069
09/21/2014  13:59:00      120.848      112.821       77.553      101.475       80.027       62.367    10297.122     6404.284     3889.610        2.696        1.030      165.326       55.151        0.111      345.084       22.358      862.056
09/21/2014  14:00:00       36.839       58.866       71.230       80.090       82.815       52.910     6414.477     6858.271     2799.425        1.298        0.804       69.443       53.558        0.595      345.209       22.575      862.048
09/21/2014  14:01:00      127.833      163.628      117.844       85.735       69.512       57.301     7350.483     4831.959     3283.437        3.623        0.773      207.642       38.842        0.035      345.104       22.391      862.054
09/21/2014  14:02:00      158.367      -39.296       43.059      122.675       95.030       71.013    15049.038     9030.616     5042.914        2.879        1.456      163.169       82.580        0.256      345.136       22.449      862.040
09/21/2014  14:03:00      127.127      -44.602       32.602       86.823       76.863       53.440     7538.292     5907.885     2855.802        1.775        0.815      134.724       50.266        0.139      345.135       22.449      862.036
09/21/2014  14:04:00       85.789     -107.171        3.691       45.713       82.692       45.568     2089.663     6837.935     2076.404        1.493        0.550      137.278       56.473        0.169      344.969       22.164      862.048
09/21/2014  14:05:00       30.991      -69.145      -10.634       42.828       64.850       44.342     1834.257     4205.517     1966.239        0.693        0.400       75.773       37.334        0.243      345.163       22.497      862.035
09/21/2014  14:06:00       38.736      -51.254       17.835       43.849       60.675       44.326     1922.778     3681.410     1964.813        0.601        0.378       64.245       43.490        0.458      345.025       22.261      862.036
09/21/2014  14:07:00       90.539      -83.555        0.178       65.373       63.274       33.106     4273.583     4003.659     1095.990        1.227        0.469      123.202       36.209        0.086      345.172       22.512      862.018
09/21/2014  14:08:00       34.232      -32.279       21.259       47.802       55.444       44.005     2285.003     3074.050     1936.402        0.498        0.365       47.051       39.561        0.707      345.301       22.733      862.021
09/21/2014  14:09:00       14.260       -9.457       38.653       36.390       54.593       35.701     1324.252     2980.410     1274.528        0.368        0.279       17.111       34.533        4.073      345.412       22.924      862.018
09/21/2014  14:10:00       84.260     -102.532       -0.397       53.982       53.268       48.525     2914.098     2837.457     2354.653        1.286        0.405      132.713       44.699        0.113      345.144       22.464      862.019
09/21/2014  14:11:00      108.403     -105.341       14.371       66.132       53.074       40.795     4373.417     2816.872     1664.261        1.595        0.443      151.156       23.571        0.024      345.038       22.281      862.008
09/21/2014  14:12:00       89.027      -46.453       35.128       64.683       86.169       54.786     4183.845     7425.073     3001.537        1.296        0.731      100.418       54.003        0.289      345.102       22.393      861.992
09/21/2014  14:13:00       99.855     -148.169      -11.184       65.158       59.626       29.297     4245.594     3555.279      858.307        2.035        0.433      178.676       33.100        0.034      345.073       22.342      861.987
09/21/2014  14:14:00      120.354     -127.613       19.532      109.218      135.930       83.945    11928.498    18476.870     7046.722        3.429        1.873      175.414      105.337        0.361      345.256       22.655      861.959
09/21/2014  14:15:00       40.755      -53.838       44.769       69.474      134.396       81.392     4826.608    18062.398     6624.713        1.803        1.476       67.524       91.272        1.827      345.215       22.584      861.978
09/21/2014  14:16:00       57.454     -114.988      -13.352       87.082      110.401       75.304     7583.332    12188.297     5670.643        2.107        1.272      128.542       73.877        0.330      345.131       22.440      861.975
09/21/2014  14:17:00      106.385     -142.336      -13.846       85.214      108.014       50.172     7261.434    11666.956     2517.268        2.660        1.072      177.700       68.598        0.149      344.976       22.174      861.989
09/21/2014  14:18:00       84.098     -146.522      -25.395       69.458       72.362       47.481     4824.413     5236.296     2254.477        2.075        0.616      168.942       41.940        0.062      344.961       22.149      861.994
09/21/2014  14:19:00       15.777      -64.602       18.684       71.227       76.301       44.001     5073.339     5821.786     1936.125        0.880        0.642       66.501       34.641        0.271      345.163       22.496      861.998
09/21/2014  14:20:00       18.715      -37.122       47.017       49.952       83.927       43.552     2495.252     7043.702     1896.769        0.769        0.572       41.573       46.503        1.251      345.269       22.678      862.005
09/21/2014  14:21:00       44.714      -26.006       48.431       60.324       75.081       42.289     3638.961     5637.187     1788.345        0.804        0.553       51.727       45.533        0.775      345.282       22.700      862.012
09/21/2014  14:22:00       75.829     -103.315       14.335       56.347       89.096       49.868     3175.010     7938.131     2486.775        1.511        0.680      128.156       51.391        0.161      345.148       22.471      862.007
09/21/2014  14:23:00       52.104      -88.193       39.940       63.092       78.164       66.019     3980.620     6109.641     4358.511        1.327        0.722      102.434       55.505        0.294      345.158       22.488      862.010
09/21/2014  14:24:00       77.720     -118.437        9.915       51.290       47.577       38.082     2630.706     2263.596     1450.217        1.325        0.317      141.661       32.596        0.053      345.037       22.282      862.021
09/21/2014  14:25:00       96.205     -116.916        4.600       79.131      111.628       45.338     6261.658    12460.837     2055.552        2.186        1.039      151.409       61.671        0.166      345.211       22.579      862.017
09/21/2014  14:26:00      135.840     -153.799      -23.674       57.128       83.840       41.129     3263.560     7029.213     1691.630        2.732        0.599      205.199       40.495        0.039      345.080       22.352      862.012
09/21/2014  14:27:00      115.931     -107.037       10.450       69.649      116.301       66.702     4851.048    13526.030     4449.173        2.391        1.141      157.788       72.872        0.213      345.135       22.446      861.999
09/21/2014  14:28:00      107.544     -141.289      -16.919       64.627       83.851       52.881     4176.661     7030.978     2796.403        2.291        0.700      177.562       51.255        0.083      345.185       22.533      861.996
09/21/2014  14:29:00      106.071      -32.517       43.222       88.306      112.397       65.128     7797.862    12633.073     4241.597        1.942        1.234      110.944       86.831        0.613      345.124       22.430      861.995
09/21/2014  14:30:00       49.640       -3.605       56.369       58.840       53.551       36.021     3462.138     2867.733     1297.486        0.664        0.381       49.771       32.151        0.417      345.329       22.781      861.987
09/21/2014  14:31:00       21.119       22.113       55.938       38.443       58.880       42.915     1477.848     3466.865     1841.716        0.542        0.339       30.577       42.596        1.941      345.366       22.845      861.968
09/21/2014  14:32:00       92.446     -168.665      -24.684      100.451       93.468       41.696    10090.452     8736.252     1738.573        2.908        1.028      192.339       54.415        0.080      345.320       22.763      861.958
09/21/2014  14:33:00       18.369       79.534      142.048       65.111      121.695       70.734     4239.433    14809.598     5003.254        2.544        1.203       81.628       82.599        1.024      345.316       22.755      861.934
09/21/2014  14:34:00       50.199       69.490      111.298       75.648      108.481       66.496     5722.618    11768.144     4421.699        2.082        1.096       85.725       77.863        0.825      345.314       22.754      861.932
09/21/2014  14:35:00      183.442     -203.182      -38.270       88.265      133.481       51.510     7790.791    17817.051     2653.302        5.232        1.413      273.741       50.794        0.034      345.038       22.281      861.911
09/21/2014  14:36:00       89.214      -74.403       12.948       71.782       80.915       71.487     5152.679     6547.188     5110.343        1.523        0.841      116.168       57.105        0.242      345.298       22.727      861.914
09/21/2014  14:37:00       86.786     -122.594        6.066       61.071       86.133       56.391     3729.698     7418.953     3179.983        1.846        0.716      150.203       50.386        0.113      345.311       22.749      861.913
09/21/2014  14:38:00       46.180      -58.689       36.277       65.925      100.929       56.759     4346.074    10186.731     3221.570        1.232        0.888       74.680       64.810        0.753      345.530       23.125      861.908
09/21/2014  14:39:00      103.345     -186.932      -19.899      105.063       90.609       44.629    11038.206     8209.920     1991.725        3.363        1.062      213.597       42.680        0.040      345.245       22.635      861.904
09/21/2014  14:40:00       43.225     -103.501      -11.129       52.261       88.488       43.614     2731.179     7830.054     1902.139        1.258        0.623      112.164       50.978        0.207      345.506       23.084      861.904
09/21/2014  14:41:00       26.268      -63.242       -1.876       53.330       38.874       30.361     2844.047     1511.204      921.765        0.498        0.264       68.481       21.550        0.099      345.440       22.972      861.907
09/21/2014  14:42:00      -25.655       -2.753       10.570       25.161       20.379       17.331      633.089      415.295      300.360        0.106        0.067       25.803       12.116        0.220      345.760       23.521      861.909
09/21/2014  14:43:00        3.743      -54.657        0.742       42.552       34.864       27.326     1810.642     1215.465      746.686        0.339        0.189       54.785       22.487        0.168      345.718       23.449      861.919
09/21/2014  14:44:00      -21.271      -13.339       25.781       31.791       46.306       21.355     1010.699     2144.204      456.027        0.245        0.181       25.107       10.616        0.179      345.875       23.719      861.913
09/21/2014  14:45:00      -16.925        1.117       10.191       18.520       31.674       28.122      343.005     1003.274      790.854        0.126        0.107       16.962       23.059        1.848      346.014       23.957      861.920
09/21/2014  14:46:00       -7.582        7.935       28.368       39.577       36.607       40.877     1566.372     1340.039     1670.965        0.275        0.229       10.975       29.421        7.186      345.763       23.527      861.917
09/21/2014  14:47:00      -45.002      -39.091       11.411       32.080       26.141       26.737     1029.109      683.378      714.893        0.305        0.121       59.609       18.426        0.096      345.793       23.578      861.917
09/21/2014  14:48:00        1.933      -32.073        0.852       31.832       48.745       30.300     1013.256     2376.088      918.064        0.267        0.215       32.131       19.755        0.378      345.947       23.843      861.923
09/21/2014  14:49:00       29.086       -8.059       36.526       39.401       52.632       39.221     1552.434     2770.167     1538.257        0.405        0.293       30.181       35.667        1.397      345.682       23.387      861.925
09/21/2014  14:50:00       29.048     -106.496      -13.369       24.831       19.865       21.546      616.602      394.625      464.226        0.692        0.074      110.387       12.690        0.013      345.526       23.120      861.921
09/21/2014  14:51:00      -38.523      -72.453      -19.927       41.510       29.780       27.289     1723.076      886.849      744.671        0.524        0.168       82.058       13.541        0.027      345.740       23.487      861.927
09/21/2014  14:52:00      -29.835      -48.304       -8.669       35.886       46.787       25.746     1287.837     2189.051      662.856        0.372        0.207       56.775       18.774        0.109      345.897       23.756      861.929
09/21/2014  14:53:00      -55.957     -140.684       -8.934       42.802       72.833       39.433     1831.971     5304.700     1554.954        1.585        0.435      151.404       34.841        0.053      345.612       23.265      861.930
09/21/2014  14:54:00     -177.414     -171.572      -17.424      101.440       99.819       53.110    10290.157     9963.819     2820.629        4.214        1.154      246.805       54.511        0.049      345.491       23.056      861.937
09/21/2014  14:55:00     -100.321      -75.011       14.918      111.733       67.715       50.614    12484.174     4585.368     2561.771        1.777        0.982      125.263       44.498        0.126      345.605       23.253      861.956
09/21/2014  14:56:00      -80.446     -106.105        0.623       55.294       46.381       38.162     3057.434     2151.226     1456.306        1.220        0.333      133.154       27.888        0.044      345.329       22.781      861.933
09/21/2014  14:57:00       13.143      -95.152       -8.931       74.754       58.605       41.274     5588.137     3434.532     1703.572        1.001        0.536       96.056       31.259        0.106      345.350       22.817      861.904
09/21/2014  14:58:00       62.157      -53.540       20.423       48.419       76.452       58.682     2344.353     5844.902     3443.586        0.939        0.582       82.037       60.303        0.540      345.656       23.343      861.884
09/21/2014  14:59:00       12.035        9.103       39.325       34.567       32.793       28.347     1194.893     1075.350      803.541        0.242        0.154       15.090       23.567        2.439      345.875       23.718      861.858
09/21/2014  15:00:00      -56.786      -56.050       -8.375       66.129       40.906       30.053     4373.043     1673.308      903.200        0.669        0.347       79.789       14.438        0.033      345.624       23.288      861.855
09/21/2014  15:01:00     -154.056      -92.662        5.534       77.682       65.501       38.395     6034.536     4290.327     1474.151        2.207        0.590      179.776       36.537        0.041      345.628       23.292      861.857
09/21/2014  15:02:00     -159.809        2.529      -18.092       98.814       48.742       34.312     9764.249     2375.815     1177.291        1.959        0.666      159.829       42.609        0.071      345.473       23.028      861.856
09/21/2014  15:03:00     -155.808      -56.525        0.955      137.622       88.302       40.462    18939.876     7797.226     1637.180        2.792        1.419      165.745       53.507        0.104      345.798       23.587      861.848
09/21/2014  15:04:00     -175.139     -129.365        4.264      151.160      123.073       75.389    22849.229    15146.849     5683.516        4.554        2.184      217.736       71.621        0.108      345.698       23.411      861.829
09/21/2014  15:05:00     -208.068     -175.082      -14.234      147.343      118.562       74.730    21709.934    14056.872     5584.541        5.774        2.068      271.930       75.839        0.078      345.595       23.235      861.823
09/21/2014  15:06:00     -325.182      -93.303       -7.290      132.939       81.518       45.626    17672.892     6645.207     2081.758        7.045        1.320      338.303       35.535        0.011      345.455       22.994      861.810
09/21/2014  15:07:00     -186.139      -44.763       -5.812       88.275       72.727       41.550     7792.537     5289.159     1726.372        2.574        0.740      191.446       40.962        0.046      345.781       23.554      861.818
09/21/2014  15:08:00     -171.615      -95.615       -4.606       88.121      104.510       39.339     7765.365    10922.440     1547.568        2.942        1.012      196.454       29.282        0.022      345.701       23.417      861.813
09/21/2014  15:09:00     -152.930       72.074       -9.967       88.253       75.846       48.350     7788.535     5752.624     2337.725        2.228        0.794      169.062       45.356        0.072      345.870       23.708      861.779
09/21/2014  15:10:00     -111.568      -20.493       -6.371       84.674       55.558       34.985     7169.634     3086.636     1223.950        1.219        0.574      113.435       37.757        0.111      345.877       23.721      861.785
09/21/2014  15:11:00     -237.513      -69.835        0.705      122.165      116.474       55.018    14924.305    13566.277     3027.019        4.640        1.576      247.567       53.819        0.047      345.874       23.714      861.769
09/21/2014  15:12:00     -138.750      -16.708       -1.321       99.337       88.765       54.104     9867.791     7879.159     2927.297        2.010        1.034      139.753       45.504        0.106      345.943       23.835      861.777
09/21/2014  15:13:00     -191.592      -42.550      -13.617       87.171       90.231       50.135     7598.794     8141.679     2513.481        2.848        0.913      196.260       50.562        0.066      345.786       23.563      861.776
09/21/2014  15:14:00     -233.756       -9.722      -19.363      115.961      106.199       46.171    13447.016    11278.140     2131.736        4.098        1.343      233.958       40.786        0.030      345.844       23.662      861.756
09/21/2014  15:15:00     -178.303      -85.751        7.702      132.475       86.890       68.043    17549.728     7549.890     4629.842        3.446        1.486      197.851       76.647        0.150      345.753       23.507      861.758
09/21/2014  15:16:00     -265.493       72.162      -12.679      132.434       74.543       57.248    17538.788     5556.597     3277.377        5.111        1.319      275.126       66.134        0.058      345.690       23.396      861.748
09/21/2014  15:17:00     -165.768      -99.870       -3.947      107.318       93.371       47.143    11517.153     8718.229     2222.494        2.996        1.123      193.528       46.151        0.057      345.629       23.294      861.737
09/21/2014  15:18:00     -285.447     -116.821       -3.079      149.156      118.678       65.922    22247.376    14084.585     4345.766        6.790        2.034      308.427       72.166        0.055      345.749       23.498      861.745
09/21/2014  15:19:00     -219.357     -132.166       13.804      206.536      145.851       96.112    42657.325    21272.397     9237.572        6.946        3.658      256.096      100.329        0.153      345.700       23.414      861.733
09/21/2014  15:20:00     -255.753      -75.179        6.315      178.997      123.638       72.759    32039.802    15286.378     5293.918        6.185        2.631      266.574       75.242        0.080      345.742       23.487      861.727
09/21/2014  15:21:00     -258.503      -46.723      -11.886      132.151      117.316       65.499    17463.794    13762.980     4290.136        5.233        1.776      262.691       64.272        0.060      345.621       23.280      861.729
09/21/2014  15:22:00     -340.712      -13.174      -27.384      131.324       86.746       51.838    17246.032     7524.891     2687.131        7.223        1.373      340.967       54.304        0.025      345.620       23.277      861.747
09/21/2014  15:23:00     -287.713      -92.148      -10.855      114.808       95.787       52.764    13180.907     9175.200     2784.008        5.826        1.257      302.109       49.226        0.027      345.611       23.260      861.729
09/21/2014  15:24:00     -226.637      -96.854        6.812      139.338       98.744       64.774    19414.971     9750.380     4195.658        4.707        1.668      246.465       73.796        0.090      345.722       23.455      861.722
09/21/2014  15:25:00     -149.805      -55.403      -10.484      103.180       90.742       43.685    10646.043     8234.069     1908.378        2.320        1.039      159.721       33.154        0.043      345.826       23.633      861.732
09/21/2014  15:26:00     -115.794      -95.575       19.896      104.207       74.294       58.583    10859.152     5519.658     3431.965        2.137        0.991      150.142       63.031        0.176      345.749       23.500      861.731
09/21/2014  15:27:00     -209.680      -98.898        0.180      149.120       93.677       69.872    22236.701     8775.364     4882.078        4.481        1.795      231.833       72.478        0.098      345.601       23.246      861.737
09/21/2014  15:28:00     -229.030     -233.339      -12.255      170.279      123.626       77.774    28995.047    15283.328     6048.813        7.868        2.516      326.958       63.313        0.037      345.517       23.099      861.699
09/21/2014  15:29:00     -297.445     -157.035       -9.838      183.991      135.136       78.408    33852.872    18261.646     6147.835        8.573        2.913      336.353       81.690        0.059      345.674       23.370      861.719
09/21/2014  15:30:00     -205.930      -72.072        4.485      139.593      131.491       71.928    19486.087    17289.946     5173.597        4.478        2.097      218.178       74.528        0.117      345.640       23.314      861.742
09/21/2014  15:31:00     -354.853     -108.980       -4.669      145.774      119.854       72.459    21250.095    14364.986     5250.239        8.933        2.043      371.211       67.538        0.033      345.557       23.169      861.745
09/21/2014  15:32:00     -242.884     -123.120        7.909      189.835      119.524       78.710    36037.416    14285.893     6195.254        6.535        2.826      272.307      100.144        0.135      345.566       23.185      861.754
09/21/2014  15:33:00     -376.485     -223.207       -9.606      193.213      120.454       76.859    37331.297    14509.104     5907.371       12.469        2.887      437.679       82.996        0.036      345.425       22.943      861.757
09/21/2014  15:34:00     -276.824     -170.675      -12.652      144.746      160.473       83.147    20951.409    25751.716     6913.449        7.976        2.681      325.210       67.693        0.043      345.490       23.053      861.783
09/21/2014  15:35:00     -272.226     -179.478        8.925      198.684      120.454       81.766    39475.187    14509.156     6685.609        8.352        3.033      326.066       95.378        0.086      345.388       22.878      861.763
09/21/2014  15:36:00     -363.867     -135.865      -13.843      149.862      136.650       79.783    22458.484    18673.296     6365.370        9.926        2.375      388.405       63.043        0.026      345.327       22.773      861.782
09/21/2014  15:37:00     -300.275     -171.136       -1.372      167.040      163.026       76.968    27902.473    26577.630     5924.090        8.992        3.020      345.619       88.986        0.066      345.361       22.834      861.784
09/21/2014  15:38:00     -216.507     -170.273       -7.742      115.163      108.478       68.544    13262.524    11767.388     4698.275        5.282        1.486      275.442       65.607        0.057      345.394       22.889      861.792
09/21/2014  15:39:00     -369.607     -130.234      -37.944      188.480      154.726       72.065    35524.867    23940.267     5193.425       10.982        3.233      391.881       81.873        0.044      345.406       22.910      861.784
09/21/2014  15:40:00     -181.102     -131.992        2.097      154.093      101.506       71.342    23744.762    10303.411     5089.733        4.467        1.957      224.098       73.557        0.108      345.485       23.047      861.799
09/21/2014  15:41:00     -310.921     -148.539      -10.305      119.689       99.254       57.490    14325.499     9851.427     3305.108        7.316        1.374      344.581       47.387        0.019      345.517       23.100      861.813
09/21/2014  15:42:00     -402.233     -156.103      -19.022      163.849      134.866       74.885    26846.404    18188.795     5607.719       11.857        2.532      431.462       76.361        0.031      345.309       22.743      861.821
09/21/2014  15:43:00     -144.928      -66.170        7.040      144.102      123.823       64.938    20765.406    15332.199     4216.948        3.287        2.016      159.320       73.215        0.211      345.507       23.083      861.829
09/21/2014  15:44:00     -200.681     -107.817       -6.164      133.435      118.551       75.297    17804.810    14054.326     5669.638        4.472        1.876      227.810       78.590        0.119      345.484       23.045      861.830
09/21/2014  15:45:00     -284.921      -91.294       -5.647      152.784      127.999       77.937    23342.865    16383.665     6074.164        6.766        2.290      299.190       70.922        0.056      345.451       22.987      861.835
09/21/2014  15:46:00     -423.146     -143.684      -39.294      152.389      199.666       84.484    23222.275    39866.338     7137.605       13.572        3.511      446.875       88.630        0.039      345.306       22.738      861.818
09/21/2014  15:47:00     -256.189     -123.576       -4.595      144.690       92.158       62.783    20935.201     8493.009     3941.660        5.714        1.668      284.436       66.996        0.055      345.351       22.816      861.807
09/21/2014  15:48:00     -335.695      -68.673      -18.301      203.378      162.184       83.646    41362.646    26303.623     6996.691        9.619        3.733      342.647      102.227        0.089      345.310       22.745      861.806
09/21/2014  15:49:00     -272.582     -103.989        0.823      214.516      150.441       93.904    46017.008    22632.565     8818.002        8.128        3.873      291.744      114.573        0.154      345.400       22.900      861.784
09/21/2014  15:50:00     -251.895     -116.144        4.814      143.080      119.525       62.525    20471.833    14286.240     3909.400        5.781        1.933      277.381       59.207        0.046      345.386       22.875      861.797
09/21/2014  15:51:00     -380.987      -51.918       -8.972      229.434      123.699       83.623    52639.877    15301.365     6992.770       11.142        3.747      384.508       79.228        0.042      345.419       22.932      861.791
09/21/2014  15:52:00     -405.194        8.382      -20.459      193.366      116.004       71.268    37390.408    13456.884     5079.108       11.029        2.796      405.280       86.321        0.045      345.360       22.831      861.778
09/21/2014  15:53:00     -333.517      -19.687      -19.256      141.652      131.359       75.388    20065.344    17255.119     5683.349        7.749        2.150      334.098       78.495        0.055      345.490       23.053      861.769
09/21/2014  15:54:00     -333.298      -36.108      -38.673      131.662       89.698       57.082    17334.850     8045.793     3258.404        7.126        1.432      335.249       55.260        0.027      345.450       22.985      861.755
09/21/2014  15:55:00     -348.800     -169.162        4.761      214.564      163.554       81.886    46037.737    26749.880     6705.394       11.488        3.975      387.656       92.548        0.057      345.470       23.020      861.745
09/21/2014  15:56:00     -296.845     -153.808       -5.580      212.709      155.121       95.344    45244.965    24062.492     9090.519        9.509        3.920      334.326      108.293        0.105      345.509       23.087      861.746
09/21/2014  15:57:00     -369.196      -55.848      -24.500      204.748      164.520       73.785    41921.546    27066.909     5444.155       10.721        3.722      373.396       79.296        0.045      345.492       23.058      861.768
09/21/2014  15:58:00     -295.351      -88.926       -2.547      240.354      174.070       98.116    57770.234    30300.380     9626.696        9.640        4.885      308.448       90.730        0.087      345.466       23.013      861.732
09/21/2014  15:59:00     -269.292      -88.049      -10.994      149.235      142.395       65.107    22271.225    20276.399     4238.858        6.358        2.339      283.321       66.024        0.054      345.580       23.208      861.735
09/21/2014  16:00:00     -241.327       -6.437        5.081      194.414      115.738       79.109    37796.807    13395.329     6258.181        5.787        2.873      241.413       95.323        0.156      345.654       23.337      861.704
09/21/2014  16:01:00     -274.831      -88.464       -6.663      119.428      139.949       70.521    14262.989    19585.776     4973.159        6.110        1.941      288.718       70.409        0.059      345.651       23.329      861.732
09/21/2014  16:02:00     -240.666     -127.389       26.166      263.919      181.477       87.083    69652.978    32933.865     7583.468        9.248        5.509      272.301      110.100        0.163      345.612       23.265      861.709
09/21/2014  16:03:00     -410.969     -257.214      -11.706      241.056      204.695       95.654    58107.876    41899.874     9149.644       17.215        5.458      484.824      114.980        0.056      345.279       22.692      861.703
09/21/2014  16:04:00     -358.805     -176.748       -9.173      205.011      168.651       91.358    42029.700    28443.022     8346.210       11.943        3.941      399.976      102.310        0.065      345.314       22.754      861.690
09/21/2014  16:05:00     -351.360     -143.494        5.387      226.850      180.326       89.750    51460.765    32517.553     8055.017       11.803        4.602      379.532      110.330        0.085      345.381       22.867      861.693
09/21/2014  16:06:00     -353.706     -198.311       -2.508      185.473      219.240       99.442    34400.380    48066.091     9888.761       12.838        4.618      405.506      108.935        0.072      345.349       22.813      861.695
09/21/2014  16:07:00     -313.279     -233.662       -1.561      232.130      178.978      101.653    53884.483    32033.179    10333.305       12.448        4.813      390.822      126.609        0.105      345.305       22.737      861.700
09/21/2014  16:08:00     -350.183     -197.805       -4.819      211.977      183.182      102.620    44934.183    33555.713    10530.780       12.538        4.451      402.188      110.586        0.076      345.270       22.676      861.685
09/21/2014  16:09:00     -427.359     -185.448      -15.984      238.945      147.353      100.149    57094.595    21712.771    10029.910       15.304        4.442      465.861      118.365        0.065      345.138       22.451      861.718
09/21/2014  16:10:00     -312.203     -197.478       -3.938      186.800      199.377       91.104    34894.111    39751.173     8299.924       10.970        4.147      369.416       91.658        0.062      345.164       22.495      861.706
09/21/2014  16:11:00     -203.415     -148.369       12.330      207.646      138.626       83.404    43116.701    19217.131     6956.234        6.640        3.465      251.776      106.106        0.178      345.218       22.590      861.711
09/21/2014  16:12:00     -276.987     -165.270       -2.001      254.713      156.438       89.295    64878.718    24472.716     7973.629       10.066        4.866      322.546      124.929        0.150      345.171       22.507      861.700
09/21/2014  16:13:00     -314.563     -124.676      -12.137      155.068      140.953       71.981    24046.145    19867.624     5181.320        8.186        2.455      338.370       81.723        0.058      345.168       22.502      861.691
09/21/2014  16:14:00     -332.881     -191.234      -14.085      167.390      167.747       76.204    28019.275    28139.041     5806.982       10.476        3.098      383.902       83.773        0.048      345.146       22.465      861.667
09/21/2014  16:15:00     -360.140     -239.658      -18.234      232.708      161.395       98.318    54153.014    26048.384     9666.470       13.865        4.493      432.594      115.610        0.071      345.080       22.351      861.651
09/21/2014  16:16:00     -307.015     -245.114       -7.090      205.800      163.942      108.356    42353.514    26877.071    11740.973       11.766        4.049      392.860      118.392        0.091      345.077       22.348      861.636
09/21/2014  16:17:00     -219.391     -110.896       21.612      170.903      136.197       87.679    29207.719    18549.696     7687.562        5.816        2.772      245.826       95.587        0.151      345.137       22.449      861.650
09/21/2014  16:18:00     -369.396     -230.523       -4.898      198.108      113.330       73.348    39246.904    12843.783     5379.908       12.353        2.874      435.424       85.770        0.039      345.108       22.399      861.658
09/21/2014  16:19:00     -378.238     -161.069      -43.734      173.651      147.170       80.312    30154.677    21658.870     6449.966       11.458        2.913      411.105       90.854        0.049      345.070       22.336      861.656
09/21/2014  16:20:00     -451.431     -151.367      -23.077      195.051      154.507       80.479    38044.935    23872.430     6476.869       14.780        3.420      476.132       83.849        0.031      345.037       22.279      861.648
09/21/2014  16:21:00     -298.298     -131.328       -8.619      196.301      150.171       76.441    38534.128    22551.248     5843.189        8.660        3.346      325.928       89.892        0.076      345.108       22.402      861.642
09/21/2014  16:22:00     -360.423      -85.912      -22.832      193.596      135.099       78.534    37479.326    18251.802     6167.566        9.984        3.095      370.520       89.291        0.058      345.059       22.316      861.657
09/21/2014  16:23:00     -205.521      -63.420        8.837      151.459      119.198       81.534    22939.976    14208.122     6647.744        4.506        2.190      215.084       89.404        0.173      345.139       22.454      861.630
09/21/2014  16:24:00     -165.346     -113.411       18.161      186.158      128.922       66.192    34654.647    16620.941     4381.441        4.808        2.783      200.503       71.232        0.126      345.161       22.492      861.617
09/21/2014  16:25:00     -394.808     -133.591       -4.860      168.312      165.608       89.301    28328.847    27426.033     7974.700       11.872        3.186      416.797       93.870        0.051      345.049       22.299      861.608
09/21/2014  16:26:00     -294.465     -157.983      -10.924      135.545      149.121       72.351    18372.538    22236.999     5234.664        7.881        2.292      334.168       76.517        0.052      345.094       22.376      861.587
09/21/2014  16:27:00     -405.385     -257.855      -16.290      198.047      183.368       97.941    39222.449    33623.651     9592.352       15.675        4.122      480.443      102.627        0.046      345.104       22.393      861.577
09/21/2014  16:28:00     -414.380     -244.025      -10.006      212.252      206.406       88.709    45050.864    42603.333     7869.297       16.342        4.776      480.894       95.148        0.039      345.058       22.313      861.592
09/21/2014  16:29:00     -314.810     -170.535      -16.078      178.761      169.776       84.523    31955.498    28823.959     7144.113        9.817        3.396      358.033       93.254        0.068      345.088       22.366      861.612
09/21/2014  16:30:00     -455.620     -208.781      -23.655      167.193      183.112       82.718    27953.622    33530.079     6842.256       16.002        3.416      501.178       84.167        0.028      344.998       22.212      861.640
09/21/2014  16:31:00     -229.673     -100.270        6.846      204.258      136.782       95.372    41721.448    18709.280     9095.786        6.617        3.476      250.607      105.800        0.178      345.089       22.368      861.635
09/21/2014  16:32:00     -319.122     -143.982       -8.362      241.014      151.892       86.472    58087.589    23071.231     7477.457       10.562        4.432      350.100       95.079        0.074      345.095       22.378      861.629
09/21/2014  16:33:00     -279.885      -74.553       -9.907      199.849       96.610       64.318    39939.478     9333.572     4136.764        6.869        2.670      289.644       81.894        0.080      345.073       22.339      861.616
09/21/2014  16:34:00     -433.191     -181.399      -12.369      200.848      157.299       82.228    40340.029    24743.095     6761.468       14.626        3.592      469.639       98.886        0.044      345.050       22.302      861.609
09/21/2014  16:35:00     -272.798     -175.805       -5.349      166.326      137.351       78.774    27664.475    18865.307     6205.404        7.903        2.637      324.540       71.117        0.048      345.152       22.475      861.603
09/21/2014  16:36:00     -200.666       -7.703      -15.925      124.464      105.374       66.689    15491.293    11103.685     4447.393        3.580        1.552      200.814       66.146        0.108      345.268       22.674      861.616
09/21/2014  16:37:00     -244.566      -55.888        0.041      117.128      104.062       56.561    13718.901    10829.003     3199.172        4.534        1.387      250.871       55.346        0.049      345.285       22.701      861.617
09/21/2014  16:38:00     -401.133      -40.734      -19.178      219.089      144.859       79.691    48000.093    20984.012     6350.579       11.912        3.767      403.196       86.251        0.046      345.220       22.590      861.624
09/21/2014  16:39:00     -409.947      -99.001      -12.675      217.771      131.134       81.287    47424.326    17196.213     6607.615       12.461        3.561      421.732      101.626        0.058      345.165       22.497      861.626
09/21/2014  16:40:00     -294.507     -161.186       -8.082      139.648      112.312       64.230    19501.433    12613.886     4125.463        7.450        1.812      335.731       62.669        0.035      345.144       22.462      861.649
09/21/2014  16:41:00     -378.311     -101.949      -20.564      119.029      122.251       76.196    14167.805    14945.390     5805.790        9.442        1.746      391.807       65.873        0.028      345.121       22.422      861.641
09/21/2014  16:42:00     -235.840     -117.935       -1.755      153.874       93.154       56.011    23677.113     8677.663     3137.245        5.250        1.775      263.684       51.301        0.038      345.131       22.440      861.646
09/21/2014  16:43:00     -200.490     -176.205       12.402      121.918      116.696       78.941    14863.914    13617.925     6231.734        5.305        1.736      266.917       79.319        0.088      345.117       22.415      861.630
09/21/2014  16:44:00     -374.159     -139.445       -8.842      146.658       99.831       62.603    21508.435     9966.238     3919.101        9.745        1.770      399.299       59.531        0.022      345.060       22.318      861.655
09/21/2014  16:45:00     -207.287      -95.126        4.358      105.054       84.915       52.165    11036.307     7210.477     2721.220        3.650        1.048      228.071       46.182        0.041      345.103       22.391      861.654
09/21/2014  16:46:00     -153.801     -100.614       33.934      199.512      141.423       87.914    39805.063    20000.391     7728.913        5.122        3.377      183.788       96.308        0.275      345.092       22.373      861.637
09/21/2014  16:47:00     -388.439     -203.088       -3.759      205.678      153.414       90.066    42303.422    23535.971     8111.888       13.303        3.698      438.325       99.450        0.051      344.985       22.190      861.629
09/21/2014  16:48:00     -419.791     -245.600      -27.648      180.099      147.801       85.475    32435.697    21845.071     7305.941       14.944        3.079      486.358       96.527        0.039      345.016       22.242      861.635
09/21/2014  16:49:00     -259.138     -206.788       -1.355      158.337      143.234       87.749    25070.681    20515.857     7699.804        8.159        2.664      331.533       89.329        0.073      345.018       22.248      861.659
09/21/2014  16:50:00     -141.718      -13.815       16.905      174.904       99.658       55.084    30591.548     9931.728     3034.299        3.205        2.178      142.390       65.215        0.210      345.099       22.386      861.663
09/21/2014  16:51:00     -318.321     -108.009        3.438      213.003      147.159       78.664    45370.422    21655.899     6188.088        9.310        3.661      336.146       76.797        0.052      345.010       22.233      861.658
09/21/2014  16:52:00     -323.785     -200.904      -18.411      167.170      138.981       81.531    27945.765    19315.699     6647.281        9.971        2.695      381.050       98.345        0.067      344.978       22.176      861.659
09/21/2014  16:53:00     -172.087     -100.730        0.174      103.198       83.108       43.476    10649.772     6906.932     1890.162        2.960        0.972      199.400       37.632        0.036      345.075       22.346      861.679
09/21/2014  16:54:00     -175.811      -49.015       -5.770       84.110       97.068       52.150     7074.413     9422.203     2719.626        2.628        0.961      182.515       55.566        0.093      345.073       22.341      861.684
09/21/2014  16:55:00     -153.284      -61.093        7.492      221.030      140.301       81.891    48854.040    19684.360     6706.169        5.125        3.762      165.011      106.656        0.418      345.074       22.344      861.672
09/21/2014  16:56:00     -380.315      -35.239      -25.479      143.427      100.733       65.671    20571.319    10147.045     4312.671        9.077        1.752      381.944       71.038        0.035      345.014       22.239      861.673
09/21/2014  16:57:00     -307.397      -32.232      -19.515      138.758       83.584       58.446    19253.847     6986.298     3415.887        6.278        1.483      309.083       66.817        0.047      345.026       22.260      861.685
09/21/2014  16:58:00     -245.689     -223.303        3.767      194.176      126.189       75.612    37704.461    15923.745     5717.192        8.478        2.967      332.005       91.019        0.075      345.009       22.230      861.678
09/21/2014  16:59:00     -357.675      -78.922      -32.091      166.585      102.559       60.818    27750.429    10518.356     3698.814        8.857        2.098      366.278       68.598        0.035      345.034       22.274      861.692
09/21/2014  17:00:00     -338.645      -49.546       -3.066      180.157      142.111       81.187    32456.373    20195.512     6591.409        8.818        2.962      342.251       85.056        0.062      345.017       22.244      861.694
09/21/2014  17:01:00     -412.671      -29.480      -11.298      167.752      120.986       74.955    28140.774    14637.661     5618.248       10.984        2.420      413.722       72.267        0.031      344.980       22.181      861.706
09/21/2014  17:02:00     -263.522      -96.652        4.555      185.254      113.998       70.453    34318.922    12995.461     4963.658        6.553        2.614      280.687       79.620        0.080      345.009       22.231      861.713
09/21/2014  17:03:00     -181.070     -104.428        7.896      156.835      122.743       72.277    24597.339    15065.887     5224.032        4.431        2.244      209.025       82.107        0.154      345.018       22.247      861.710
09/21/2014  17:04:00     -240.311     -110.341       -8.135      122.153       92.665       52.956    14921.313     8586.776     2804.306        4.815        1.316      264.433       51.360        0.038      345.021       22.253      861.728
09/21/2014  17:05:00     -275.090        6.523      -12.467      132.934      109.331       70.851    17671.575    11953.282     5019.828        5.525        1.732      275.167       66.698        0.059      344.995       22.207      861.737
09/21/2014  17:06:00     -265.762      -22.391      -28.893       99.164       88.187       61.062     9833.499     7776.941     3728.555        4.665        1.067      266.703       51.422        0.037      344.988       22.193      861.724
09/21/2014  17:07:00     -320.531     -193.594      -30.543      132.822      133.209       66.536    17641.766    17744.582     4427.001        9.047        1.991      374.458       49.500        0.017      344.987       22.194      861.726
09/21/2014  17:08:00     -425.045     -118.208      -23.035      169.443      184.167       75.534    28710.841    33917.348     5705.383       13.174        3.417      441.177       84.682        0.037      344.964       22.153      861.705
09/21/2014  17:09:00     -416.784     -110.668      -15.844      181.314      138.060       83.551    32874.827    19060.480     6980.791       12.255        2.946      431.226       95.515        0.049      344.968       22.160      861.712
09/21/2014  17:10:00     -389.641     -108.310      -14.130      191.964      180.137       82.423    36850.235    32449.167     6793.488       11.991        3.805      404.415      106.984        0.070      344.939       22.111      861.705
09/21/2014  17:11:00     -237.126     -164.704        0.746      133.805      136.441       54.928    17903.810    18616.170     3017.036        6.144        1.977      288.715       58.033        0.040      344.964       22.154      861.735
09/21/2014  17:12:00     -372.953     -152.764       -5.508      224.715      191.013       95.771    50496.754    36486.071     9172.007       12.929        4.808      403.027      119.210        0.087      344.926       22.089      861.735
09/21/2014  17:13:00     -221.572      -43.852      -17.586      104.938      102.414       54.205    11012.034    10488.626     2938.157        3.788        1.222      225.870       35.312        0.024      344.963       22.153      861.763
09/21/2014  17:14:00     -217.532       -0.232       10.171      120.563      116.753       67.241    14535.516    13631.203     4521.303        4.005        1.634      217.532       69.520        0.102      344.954       22.138      861.782
09/21/2014  17:15:00     -326.139      -78.738      -31.813      107.876       88.678       57.955    11637.159     7863.860     3358.734        6.821        1.143      335.509       56.449        0.028      344.957       22.140      861.786
09/21/2014  17:16:00     -254.347     -144.736       -8.735      131.123      146.070       53.368    17193.208    21336.342     2848.178        6.354        2.069      292.644       46.453        0.025      344.964       22.153      861.810
09/21/2014  17:17:00     -289.034     -256.668      -18.313      139.091      126.132       84.864    19346.374    15909.348     7201.843        9.610        2.123      386.548       70.476        0.033      344.908       22.058      861.786
09/21/2014  17:18:00     -236.491     -173.505        4.775      157.662      106.598       77.460    24857.370    11363.029     6000.027        6.413        2.111      293.312       80.599        0.076      344.926       22.088      861.799
09/21/2014  17:19:00     -211.108      -79.331        3.318      116.552       92.861       54.905    13584.438     8623.198     3014.587        3.804        1.261      225.522       60.928        0.073      344.958       22.143      861.790
09/21/2014  17:20:00     -156.714      -75.892        2.127      142.115       91.617       52.371    20196.699     8393.728     2742.760        3.082        1.567      174.123       66.194        0.145      344.976       22.174      861.799
09/21/2014  17:21:00     -163.114      -92.236        1.144      115.159       96.315       58.663    13261.576     9276.492     3441.340        3.054        1.299      187.386       55.588        0.088      344.990       22.198      861.810
09/21/2014  17:22:00     -214.092      -90.030       -2.850      113.489      113.483       53.716    12879.845    12878.498     2885.408        4.129        1.432      232.251       51.785        0.050      344.933       22.100      861.813
09/21/2014  17:23:00     -242.358     -149.219       -0.887      147.486      110.850       64.481    21752.134    12287.624     4157.837        5.959        1.910      284.612       64.894        0.052      344.913       22.067      861.810
09/21/2014  17:24:00     -130.877      -63.714        5.984      121.074       78.375       60.065    14658.911     6142.569     3607.834        2.281        1.220      145.562       63.542        0.191      344.969       22.163      861.819
09/21/2014  17:25:00     -187.616      -63.065      -12.415       75.858      104.518       45.109     5754.449    10924.087     2034.840        2.902        0.936      197.931       45.861        0.054      344.938       22.110      861.842
09/21/2014  17:26:00     -150.433      -79.774        2.559      114.576       67.433       51.304    13127.667     4547.243     2632.050        2.465        1.015      170.276       63.366        0.138      344.948       22.127      861.848
09/21/2014  17:27:00     -371.104      -81.139      -14.543      132.963      105.693       56.682    17679.171    11170.958     3212.856        8.828        1.603      379.870       58.529        0.024      344.926       22.088      861.871
09/21/2014  17:28:00     -357.103     -118.649      -16.636      121.746      109.876       70.063    14821.968    12072.808     4908.758        8.683        1.590      376.299       58.352        0.024      344.921       22.080      861.854
09/21/2014  17:29:00     -222.589     -120.056      -11.806      111.368       97.612       60.205    12402.861     9528.050     3624.664        4.482        1.278      252.902       64.169        0.064      344.946       22.122      861.868
09/21/2014  17:30:00     -158.374      -51.775       -0.265      108.295       88.727       43.292    11727.739     7872.561     1874.184        2.461        1.074      166.622       40.174        0.058      344.945       22.122      861.847
09/21/2014  17:31:00     -203.213      -73.173       -7.313      131.461       97.911       60.165    17281.880     9586.469     3619.841        3.859        1.524      215.986       60.704        0.079      344.942       22.116      861.843
09/21/2014  17:32:00     -303.740      -23.992      -10.317      156.210       99.791       61.765    24401.437     9958.182     3814.973        6.555        1.909      304.686       62.155        0.042      344.920       22.078      861.840
09/21/2014  17:33:00     -373.186      -69.604      -15.968      125.826       91.520       55.164    15832.267     8375.867     3043.029        8.580        1.363      379.622       49.257        0.017      344.908       22.057      861.834
09/21/2014  17:34:00     -227.866     -135.026       -8.266      103.526      108.212       62.675    10717.656    11709.785     3928.211        4.828        1.318      264.868       47.848        0.033      344.934       22.102      861.833
09/21/2014  17:35:00     -407.725      -69.997      -17.651      117.976      141.375       66.283    13918.410    19986.842     4393.374       10.487        1.915      413.690       56.467        0.019      344.902       22.049      861.834
09/21/2014  17:36:00     -246.127     -158.584       -8.675      173.307      129.053       81.197    30035.314    16654.577     6592.953        6.953        2.664      292.792       90.753        0.096      344.927       22.092      861.834
09/21/2014  17:37:00     -219.380     -165.823       -6.662      143.713      113.837       73.211    20653.555    12958.774     5359.834        5.731        1.949      275.000       78.973        0.082      344.925       22.085      861.838
09/21/2014  17:38:00     -226.007      -30.662      -12.988       90.039       79.028       42.142     8106.965     6245.446     1775.914        3.415        0.806      228.078       40.526        0.032      344.932       22.100      861.855
09/21/2014  17:39:00     -148.997     -105.445       -3.866       83.380       70.977       41.047     6952.263     5037.731     1684.888        2.350        0.684      182.534       30.523        0.028      344.951       22.131      861.866
09/21/2014  17:40:00     -164.803      -79.230       -5.740       78.395       59.629       43.172     6145.720     3555.659     1863.786        2.252        0.578      182.859       36.369        0.040      344.953       22.135      861.835
09/21/2014  17:41:00     -216.467     -105.643       -8.456      116.684       87.703       58.503    13615.125     7691.791     3422.586        4.140        1.236      240.870       57.159        0.056      344.951       22.130      861.826
09/21/2014  17:42:00     -118.703     -115.363       -2.073      138.565       81.676       59.890    19200.199     6671.013     3586.818        2.842        1.473      165.527       52.380        0.100      344.987       22.194      861.802
09/21/2014  17:43:00     -120.933      -50.110        9.166      112.890      115.346       47.815    12744.081    13304.657     2286.280        2.277        1.417      130.904       54.985        0.176      345.001       22.220      861.815
09/21/2014  17:44:00     -205.284      -84.353       -0.806      149.047      108.947       59.561    22214.988    11869.552     3547.457        4.344        1.882      221.939       59.324        0.071      344.983       22.187      861.819
09/21/2014  17:45:00     -290.522      -86.068      -15.694      183.240      168.085       77.321    33576.849    28252.702     5978.602        7.992        3.390      303.003       83.975        0.077      344.998       22.211      861.804
09/21/2014  17:46:00     -263.076      -65.033        2.497      172.911      126.259       63.557    29898.171    15941.219     4039.436        6.165        2.494      270.995       80.198        0.088      344.995       22.207      861.830
09/21/2014  17:47:00     -445.991      -77.216      -20.835      180.039      154.430       81.658    32413.950    23848.623     6668.002       13.410        3.147      452.626       86.796        0.037      344.967       22.157      861.828
09/21/2014  17:48:00     -548.753     -147.896      -25.735      194.363      148.975       88.843    37776.910    22193.472     7893.069       19.575        3.393      568.333       90.021        0.025      344.921       22.082      861.827
09/21/2014  17:49:00     -353.459      -25.924      -21.021      148.288      127.009       64.284    21989.339    16131.224     4132.385        8.414        2.113      354.408       55.693        0.025      344.949       22.127      861.850
09/21/2014  17:50:00     -223.033      -77.811       -7.193      134.212       90.173       55.240    18012.727     8131.245     3051.505        4.252        1.460      236.216       73.568        0.097      344.988       22.194      861.863
09/21/2014  17:51:00     -134.493      -46.132        9.824      138.473      127.639       65.513    19174.681    16291.770     4291.978        3.003        1.988      142.185       77.373        0.296      345.010       22.233      861.871
09/21/2014  17:52:00     -316.052     -170.311      -24.471      147.950       91.639       62.341    21889.318     8397.679     3886.390        8.183        1.709      359.019       66.454        0.034      345.004       22.222      861.879
09/21/2014  17:53:00     -167.169     -130.724       11.110      123.028       86.591       63.664    15135.918     7497.928     4053.078        3.592        1.334      212.213       71.281        0.113      345.011       22.233      861.884
09/21/2014  17:54:00     -224.924     -115.156      -12.208      105.831       87.518       52.197    11200.148     7659.349     2724.507        4.279        1.079      252.688       55.203        0.048      345.019       22.248      861.900
09/21/2014  17:55:00     -370.127     -145.577      -21.296      210.126      110.721       72.204    44152.925    12259.193     5213.377       11.012        3.081      397.727       83.946        0.045      344.993       22.204      861.904
09/21/2014  17:56:00     -462.266      -63.359       -1.228      192.732      176.937       93.973    37145.453    31306.867     8830.843       14.748        3.864      466.588      107.683        0.053      344.949       22.126      861.880
09/21/2014  17:57:00     -508.825      -64.647      -42.643      179.881      121.368       76.975    32357.136    14730.300     5925.185       15.895        2.651      512.916       92.972        0.033      344.940       22.112      861.896
09/21/2014  17:58:00     -343.714     -110.718        0.195      147.245      134.196       78.899    21681.224    18008.504     6225.000        8.815        2.296      361.106       65.059        0.032      344.978       22.177      861.913
09/21/2014  17:59:00     -438.474     -144.499      -29.035      140.116      139.434       73.481    19632.462    19441.978     5399.416       12.922        2.224      461.670       57.591        0.016      344.965       22.155      861.923
09/21/2014  18:00:00     -239.047     -103.563        1.249      159.839      156.813       75.797    25548.361    24590.307     5745.201        6.187        2.794      260.516       80.911        0.096      344.974       22.172      861.914
09/21/2014  18:01:00     -353.059     -189.850      -11.558      173.423      121.080       71.279    30075.623    14660.455     5080.688       10.531        2.491      400.866       72.670        0.033      344.954       22.135      861.921
09/21/2014  18:02:00     -279.270     -157.456       -4.396      140.604      154.265       70.212    19769.596    23797.682     4929.753        7.564        2.425      320.600       77.739        0.059      344.960       22.147      861.923
09/21/2014  18:03:00     -171.331     -114.656        1.970      122.489      100.513       66.488    15003.554    10102.895     4420.672        3.601        1.476      206.156       65.621        0.101      344.976       22.175      861.948
09/21/2014  18:04:00     -263.483      -92.986        0.405      120.887      119.576       58.892    14613.657    14298.535     3468.299        5.522        1.619      279.410       62.898        0.051      344.952       22.133      861.944
09/21/2014  18:05:00     -373.473      -65.474       -8.112      190.190      122.076       82.256    36172.124    14902.528     6766.117       10.083        2.892      379.168       98.312        0.067      344.916       22.071      861.953
09/21/2014  18:06:00     -238.733      -87.150        3.764      154.488      141.864       83.792    23866.538    20125.259     7021.110        5.780        2.551      254.143       83.531        0.108      344.931       22.096      861.937
09/21/2014  18:07:00     -134.390     -102.724       19.700      150.904      151.660       84.218    22772.147    23000.691     7092.677        4.092        2.643      169.154       79.929        0.223      344.917       22.075      861.929
09/21/2014  18:08:00     -319.301     -188.856      -10.990      176.098      154.461       81.069    31010.369    23858.162     6572.251        9.958        3.072      370.972       88.032        0.056      344.919       22.079      861.938
09/21/2014  18:09:00     -214.447     -137.630        5.467      145.490      137.113       71.664    21167.388    18799.902     5135.685        5.502        2.255      254.813       76.040        0.089      344.919       22.078      861.968
09/21/2014  18:10:00     -177.060      -10.387        2.456       97.467       67.502       51.715     9499.727     4556.499     2674.467        2.409        0.837      177.364       56.854        0.103      344.916       22.072      861.997
09/21/2014  18:11:00     -184.515     -132.060        7.125       92.155      126.193       54.035     8492.511    15924.704     2919.777        3.943        1.367      226.905       54.970        0.059      344.916       22.073      862.011
09/21/2014  18:12:00     -250.350      -82.657       13.201      197.244      145.851       68.795    38905.098    21272.591     4732.725        6.728        3.246      263.643       73.736        0.078      344.906       22.057      862.003
09/21/2014  18:13:00     -235.057      -93.647       -4.772      121.089      108.794       62.079    14662.663    11836.114     3853.822        4.719        1.518      253.025       37.488        0.022      344.893       22.032      862.002
09/21/2014  18:14:00     -213.066     -128.756       -2.725      102.293      103.200       57.443    10463.854    10650.234     3299.713        4.319        1.221      248.948       53.073        0.045      344.919       22.076      862.009
09/21/2014  18:15:00     -325.472      -70.484       -8.475      131.746       98.081       73.440    17356.980     9619.904     5393.479        7.166        1.619      333.016       70.242        0.044      344.871       21.994      862.007
09/21/2014  18:16:00     -216.472      -67.113        6.651      120.761      104.404       59.747    14583.170    10900.127     3569.728        4.022        1.453      226.637       61.646        0.074      344.875       22.002      862.012
09/21/2014  18:17:00     -244.232     -152.072       -7.253      127.613       91.644       56.913    16285.197     8398.544     3239.070        5.537        1.396      287.707       44.220        0.024      344.872       21.998      862.017
09/21/2014  18:18:00     -292.650      -53.826      -24.056       97.608       81.323       43.101     9527.303     6613.476     1857.687        5.356        0.900      297.559       41.315        0.019      344.868       21.990      862.018
09/21/2014  18:19:00     -117.582      -51.393        1.056       90.565       70.320       40.935     8201.960     4944.862     1675.704        1.564        0.741      128.323       41.384        0.104      344.841       21.945      862.008
09/21/2014  18:20:00     -323.079      -48.967      -20.445      147.069       87.840       60.209    21629.192     7715.896     3625.089        7.008        1.649      326.769       68.035        0.043      344.832       21.927      862.002
09/21/2014  18:21:00     -276.361      -97.446      -14.111       95.566       98.873       56.671     9132.816     9775.958     3211.633        5.409        1.106      293.038       51.992        0.031      344.847       21.953      861.994
09/21/2014  18:22:00     -233.479     -178.084       -7.246      124.745      117.581       61.761    15561.347    13825.298     3814.463        5.973        1.660      293.643       61.623        0.044      344.847       21.954      862.003
09/21/2014  18:23:00     -135.860      -99.258        6.991       92.655       92.508       50.586     8584.892     8557.656     2558.985        2.403        0.985      168.255       57.687        0.118      344.830       21.925      862.003
09/21/2014  18:24:00     -214.181      -37.202      -10.560      115.983       72.180       51.623    13452.029     5209.888     2664.980        3.434        1.066      217.388       49.853        0.053      344.832       21.926      862.006
09/21/2014  18:25:00     -245.145     -116.292      -10.222      125.050      107.707       48.805    15637.520    11600.885     2381.909        5.167        1.481      271.330       55.534        0.042      344.824       21.913      862.001
09/21/2014  18:26:00      -99.430      -67.384       11.279       67.146       95.024       41.838     4508.535     9029.564     1750.436        1.492        0.764      120.112       38.785        0.104      344.826       21.918      861.990
09/21/2014  18:27:00     -144.254      -42.973        2.866      105.986       93.295       50.537    11232.959     8703.976     2553.945        2.257        1.125      150.519       47.191        0.098      344.815       21.899      862.000
09/21/2014  18:28:00     -262.663     -151.695       -0.580      156.398      115.088       57.130    24460.443    13245.170     3263.869        6.648        2.048      303.320       57.194        0.036      344.840       21.940      861.991
09/21/2014  18:29:00     -207.867      -88.655        9.671      130.958      112.921       69.133    17150.022    12751.226     4779.331        4.291        1.734      225.984       75.888        0.113      344.820       21.906      861.991
09/21/2014  18:30:00     -191.715      -50.311       -5.123       66.789       68.566       37.046     4460.739     4701.298     1372.391        2.492        0.527      198.207       20.971        0.011      344.816       21.899      861.973
09/21/2014  18:31:00      -90.837      -86.572       11.317      115.037       88.349       53.495    13233.421     7805.600     2861.724        1.988        1.195      125.483       57.962        0.213      344.817       21.902      861.966
09/21/2014  18:32:00      -90.435      -94.940       13.234      124.301      108.104       64.715    15450.778    11686.444     4188.053        2.434        1.566      131.119       73.568        0.315      344.791       21.859      861.950
09/21/2014  18:33:00     -194.146     -123.594       -6.905       84.220       82.601       60.733     7092.999     6822.874     3688.466        3.531        0.880      230.148       57.301        0.062      344.795       21.863      861.944
09/21/2014  18:34:00     -231.194     -135.427        0.401      143.270      101.109       59.657    20526.256    10222.970     3559.015        5.304        1.715      267.939       59.531        0.049      344.789       21.852      861.919
09/21/2014  18:35:00     -234.994      -23.393       -3.755      108.909       64.481       44.560    11861.101     4157.858     1985.634        3.689        0.900      236.155       50.065        0.045      344.796       21.864      861.928
09/21/2014  18:36:00     -160.049      -92.269       -5.046       89.556       72.279       43.289     8020.233     5224.257     1873.980        2.463        0.756      184.741       46.087        0.062      344.781       21.841      861.921
09/21/2014  18:37:00     -136.968      -81.217       -3.493       72.969       77.286       37.572     5324.461     5973.195     1411.635        1.904        0.635      159.238       36.497        0.053      344.736       21.764      861.921
09/21/2014  18:38:00     -155.010      -63.642        4.115       85.612       61.843       48.344     7329.354     3824.501     2337.148        2.079        0.675      167.567       52.115        0.097      344.755       21.796      861.912
09/21/2014  18:39:00     -223.992      -86.463      -10.995       77.112       77.270       43.275     5946.202     5970.680     1872.695        3.578        0.689      240.101       37.876        0.025      344.791       21.854      861.903
09/21/2014  18:40:00     -132.831      -40.149        8.078      109.632       82.146       56.265    12019.263     6748.019     3165.767        2.062        1.097      138.766       53.114        0.147      344.717       21.731      861.907
09/21/2014  18:41:00     -198.240      -48.884       -7.055       96.228       81.868       47.005     9259.755     6702.296     2209.499        2.995        0.909      204.178       45.013        0.049      344.726       21.746      861.925
09/21/2014  18:42:00     -193.747      -68.402       -0.733       84.619      101.974       52.575     7160.349    10398.757     2764.114        3.127        1.016      205.467       47.266        0.053      344.751       21.788      861.935
09/21/2014  18:43:00     -119.618      -92.117        2.770      113.523       86.527       55.061    12887.402     7486.926     3031.751        2.310        1.170      150.977       55.189        0.134      344.736       21.763      861.929
09/21/2014  18:44:00     -202.164      -30.321      -10.858       66.988       66.561       34.805     4487.439     4430.323     1211.384        2.602        0.506      204.425       33.629        0.027      344.715       21.726      861.943
09/21/2014  18:45:00     -160.621        6.927        1.039      126.959       85.899       44.812    16118.624     7378.569     2008.129        2.567        1.275      160.771       57.383        0.127      344.674       21.659      861.962
09/21/2014  18:46:00     -116.476      -10.360       -0.481       54.587       57.453       36.924     2979.722     3300.836     1363.416        1.066        0.382      116.935       31.153        0.071      344.637       21.597      861.977
09/21/2014  18:47:00     -210.583      -88.573       -9.458      105.483       78.190       48.606    11126.744     6113.624     2362.562        3.594        0.980      228.452       53.710        0.055      344.677       21.661      861.965
09/21/2014  18:48:00     -283.177      -81.042       -7.810       97.953       82.756       55.011     9594.841     6848.625     3026.238        5.314        0.973      294.546       51.092        0.030      344.676       21.659      861.981
09/21/2014  18:49:00     -214.202      -29.199       -4.144       82.899       62.699       45.706     6872.294     3931.199     2089.042        2.982        0.645      216.183       48.361        0.050      344.647       21.611      861.999
09/21/2014  18:50:00     -155.215      -20.157       -3.203       80.836       68.825       32.038     6534.471     4736.867     1026.446        1.840        0.615      156.518       29.812        0.036      344.687       21.682      861.992
09/21/2014  18:51:00     -257.422      -89.372       -9.623       99.104       87.110       47.449     9821.638     7588.170     2251.409        4.700        0.983      272.495       49.582        0.033      344.660       21.634      861.986
09/21/2014  18:52:00     -176.247      -44.243        1.549       82.004       74.171       39.678     6724.686     5501.284     1574.306        2.341        0.690      181.715       42.649        0.055      344.610       21.548      862.007
09/21/2014  18:53:00     -238.805      -41.688      -14.900       92.824       70.805       40.293     8616.360     5013.292     1623.534        3.712        0.763      242.417       35.653        0.022      344.650       21.615      862.014
09/21/2014  18:54:00     -207.838      -34.867       -4.507       80.587       57.805       41.228     6494.289     3341.362     1699.729        2.798        0.577      210.743       40.887        0.038      344.624       21.572      862.006
09/21/2014  18:55:00     -181.987      -62.383       -3.776       62.174       57.928       32.792     3865.589     3355.597     1075.309        2.266        0.415      192.382       28.610        0.022      344.613       21.555      862.016
09/21/2014  18:56:00     -338.680     -134.928      -34.067       88.316       95.580       45.370     7799.673     9135.600     2058.470        7.653        0.950      364.568       41.569        0.013      344.649       21.613      862.003
09/21/2014  18:57:00     -167.217      -71.530        4.304      128.503       90.653       55.025    16513.093     8218.053     3027.800        3.042        1.388      181.873       62.816        0.119      344.589       21.514      862.003
09/21/2014  18:58:00     -199.116      -44.026       10.889       99.018       65.803       42.491     9804.584     4330.015     1805.449        2.882        0.797      203.925       44.460        0.048      344.578       21.495      862.020
09/21/2014  18:59:00      -66.496       -7.125       24.317       95.031       64.713       47.472     9030.948     4187.718     2253.579        1.026        0.774       66.877       40.329        0.364      344.543       21.437      862.033
09/21/2014  19:00:00      -91.978      -24.099       -3.160       42.328       44.830       24.439     1791.648     2009.695      597.265        0.672        0.220       95.083       19.667        0.043      344.546       21.442      862.027
09/21/2014  19:01:00     -104.872      -50.976       -8.236       75.321       38.528       23.982     5673.311     1484.378      575.128        1.070        0.387      116.605       23.824        0.042      344.624       21.576      862.049
09/21/2014  19:02:00     -116.507      -36.937       -1.363       55.850       52.596       31.120     3119.265     2766.337      968.435        1.090        0.343      122.222       24.191        0.039      344.505       21.371      862.080
09/21/2014  19:03:00     -197.529      -41.856       -9.106       82.961       60.910       32.126     6882.570     3710.049     1032.067        2.624        0.581      201.915       31.376        0.024      344.507       21.372      862.090
09/21/2014  19:04:00     -214.352      -34.409      -19.314       68.882       70.529       34.280     4744.693     4974.347     1175.084        2.920        0.545      217.096       27.966        0.017      344.503       21.365      862.115
09/21/2014  19:05:00     -216.138      -58.374        2.633       93.231       78.187       46.601     8691.946     6113.272     2171.611        3.355        0.849      223.882       46.731        0.044      344.490       21.342      862.127
09/21/2014  19:06:00     -105.272      -51.032       12.502       77.035       54.424       34.791     5934.417     2961.984     1210.439        1.197        0.505      116.989       36.234        0.096      344.460       21.293      862.137
09/21/2014  19:07:00     -158.597      -38.809        3.220      111.489       69.464       45.866    12429.712     4825.270     2103.716        2.301        0.968      163.276       55.920        0.117      344.454       21.282      862.153
09/21/2014  19:08:00     -159.501      -63.871       -5.677       89.983       85.709       49.000     8096.894     7346.116     2400.977        2.369        0.892      171.814       46.447        0.073      344.493       21.349      862.170
09/21/2014  19:09:00     -217.640       -1.862       -9.928       77.119       75.250       46.647     5947.375     5662.516     2175.897        3.062        0.689      217.648       41.568        0.036      344.481       21.328      862.182
09/21/2014  19:10:00     -240.678      -26.575      -20.832      125.497       76.661       52.518    15749.481     5876.946     2758.167        4.172        1.219      242.141       62.738        0.067      344.532       21.414      862.206
09/21/2014  19:11:00     -192.288      -44.391       -4.899       98.626      100.137       53.954     9727.057    10027.427     2911.049        3.081        1.133      197.346       45.547        0.053      344.460       21.292      862.218
09/21/2014  19:12:00     -228.161      -99.379      -10.953       83.834      109.402       47.156     7028.094    11968.770     2223.650        4.163        1.061      248.865       42.873        0.030      344.494       21.349      862.238
09/21/2014  19:13:00     -236.830      -65.110      -11.799      105.428       90.338       51.440    11114.976     8160.957     2646.104        4.119        1.096      245.617       54.289        0.049      344.453       21.278      862.254
09/21/2014  19:14:00     -159.554      -82.003        4.413      126.969       94.758       50.399    16121.057     8978.984     2540.065        2.992        1.382      179.393       67.429        0.141      344.422       21.228      862.256
09/21/2014  19:15:00     -127.109      -24.709       -2.064       79.685       66.020       50.335     6349.774     4358.680     2533.654        1.500        0.662      129.488       52.890        0.167      344.433       21.247      862.268
09/21/2014  19:16:00     -189.670      -22.882        2.282      109.247       67.651       43.864    11934.801     4576.623     1924.071        2.747        0.922      191.045       47.851        0.063      344.423       21.228      862.272
09/21/2014  19:17:00     -241.665      -36.610      -15.762       56.906       60.118       39.214     3238.332     3614.191     1537.709        3.419        0.420      244.422       25.373        0.011      344.404       21.195      862.266
09/21/2014  19:18:00     -209.916      -60.737       -8.919       90.089       64.027       38.794     8115.958     4099.466     1504.977        3.077        0.686      218.526       40.720        0.035      344.399       21.187      862.278
09/21/2014  19:19:00     -280.800       11.011      -24.303       74.044       55.716       33.276     5482.444     3104.275     1107.291        4.463        0.485      281.016       27.207        0.009      344.406       21.197      862.287
09/21/2014  19:20:00     -165.454      -40.789       -4.956       56.769       59.315       37.205     3222.730     3518.285     1384.216        1.859        0.406      170.408       32.084        0.035      344.337       21.083      862.288
09/21/2014  19:21:00     -221.603      -43.928      -20.573      119.815       75.557       52.714    14355.551     5708.878     2778.757        3.715        1.142      225.915       61.142        0.073      344.376       21.146      862.294
09/21/2014  19:22:00     -144.905      -17.079       -2.844      112.163       63.425       46.854    12580.439     4022.769     2195.292        2.004        0.940      145.908       43.256        0.088      344.305       21.029      862.292
09/21/2014  19:23:00     -194.058      -43.638        5.711       88.064       73.791       45.310     7755.190     5445.078     2053.026        2.742        0.763      198.904       43.560        0.048      344.346       21.096      862.285
09/21/2014  19:24:00     -190.682      -71.742       -3.907      100.088       99.652       47.346    10017.647     9930.538     2241.689        3.185        1.109      203.731       43.951        0.047      344.385       21.164      862.306
09/21/2014  19:25:00     -247.207      -92.478       -9.321      111.663       82.172       42.525    12468.587     6752.283     1808.362        4.539        1.051      263.938       41.253        0.024      344.420       21.222      862.313
09/21/2014  19:26:00     -177.308      -56.954       -8.862       99.244       87.143       42.205     9849.290     7593.943     1781.252        2.699        0.961      186.231       46.782        0.063      344.390       21.170      862.310
09/21/2014  19:27:00     -200.163      -42.177        0.727      107.687       76.465       49.792    11596.536     5846.829     2479.233        3.088        0.996      204.558       55.003        0.072      344.362       21.124      862.337
09/21/2014  19:28:00     -200.752      -44.152       -0.081      111.620       90.571       50.567    12458.985     8203.186     2556.979        3.273        1.161      205.550       60.130        0.086      344.366       21.131      862.341
09/21/2014  19:29:00     -245.269      -24.338       -3.300      147.403       98.841       58.713    21727.662     9769.464     3447.259        4.785        1.747      246.474       69.549        0.080      344.371       21.139      862.339
09/21/2014  19:30:00     -186.417      -26.527       -4.791       99.936       99.521       44.825     9987.174     9904.455     2009.287        2.869        1.095      188.295       48.804        0.067      344.348       21.099      862.347
09/21/2014  19:31:00     -230.472      -86.578       -9.424      140.717      108.150       58.417    19801.183    11696.457     3412.521        4.780        1.746      246.197       62.422        0.064      344.400       21.188      862.350
09/21/2014  19:32:00     -236.535      -39.230        3.352      157.310       90.812       61.242    24746.389     8246.785     3750.625        4.711        1.837      239.766       76.882        0.103      344.354       21.110      862.361
09/21/2014  19:33:00     -268.435      -44.749       -6.120      120.708       94.732       49.083    14570.374     8974.125     2409.101        5.002        1.298      272.139       50.076        0.034      344.340       21.086      862.376
09/21/2014  19:34:00     -287.465      -62.099        2.928      120.947      128.508       65.440    14628.225    16514.221     4282.444        6.096        1.771      294.095       67.201        0.052      344.359       21.118      862.380
09/21/2014  19:35:00     -286.638      -26.834       -8.626      105.597       99.969       50.060    11150.688     9993.775     2506.013        5.330        1.183      287.891       54.615        0.036      344.329       21.068      862.382
09/21/2014  19:36:00     -292.769      -35.052      -27.333       94.832       77.571       49.459     8993.150     6017.251     2446.167        5.257        0.873      294.860       46.113        0.024      344.344       21.093      862.394
09/21/2014  19:37:00     -333.079      -47.750      -14.678      160.563       87.230       60.378    25780.460     7609.016     3645.451        7.523        1.852      336.485       59.219        0.031      344.312       21.038      862.395
09/21/2014  19:38:00     -305.489      -68.238      -13.167      158.351      114.635       65.098    25075.176    13141.172     4237.709        7.030        2.123      313.017       67.816        0.047      344.315       21.044      862.407
09/21/2014  19:39:00     -191.545      -47.573       -9.082       94.753      103.678       49.840     8978.082    10749.170     2484.009        3.062        1.111      197.364       32.030        0.026      344.282       20.987      862.422
09/21/2014  19:40:00     -227.267      -71.622      -20.696       94.612       78.042       44.298     8951.480     6090.482     1962.351        3.710        0.850      238.285       38.153        0.026      344.307       21.029      862.415
09/21/2014  19:41:00     -139.573       -6.743       11.905      124.406       88.125       54.858    15476.751     7766.067     3009.348        2.295        1.313      139.736       56.160        0.162      344.287       20.997      862.430
09/21/2014  19:42:00     -222.625      -76.369        0.022      156.698      124.226       61.614    24554.281    15432.013     3796.285        4.958        2.189      235.359       53.174        0.051      344.289       21.001      862.428
09/21/2014  19:43:00     -369.469      -49.213      -32.436      147.129      137.723       62.827    21646.833    18967.638     3947.183        9.226        2.228      372.732       69.872        0.035      344.323       21.057      862.449
09/21/2014  19:44:00     -207.032      -86.458        7.432      126.170       95.672       55.419    15918.784     9153.096     3071.226        3.926        1.407      224.360       62.435        0.077      344.292       21.004      862.474
09/21/2014  19:45:00     -238.623     -119.095       -2.355      142.123      109.166       56.014    20199.066    11917.245     3137.616        5.319        1.763      266.692       62.790        0.055      344.315       21.043      862.464
09/21/2014  19:46:00     -165.576      -65.316        9.395      167.056      109.469       74.525    27907.547    11983.382     5554.021        3.860        2.272      177.994       83.322        0.219      344.317       21.047      862.447
09/21/2014  19:47:00     -190.935      -64.156       -0.608      146.962      127.229       72.817    21597.868    16187.164     5302.283        4.182        2.154      201.426       70.382        0.122      344.324       21.060      862.468
09/21/2014  19:48:00     -201.783      -18.754       -7.801      116.381       86.741       72.461    13544.435     7524.065     5250.578        3.372        1.316      202.652       66.519        0.108      344.302       21.021      862.478
09/21/2014  19:49:00     -369.242     -116.446      -10.971      139.166      119.844       69.267    19367.207    14362.466     4797.926        9.427        1.926      387.168       68.496        0.031      344.280       20.985      862.482
09/21/2014  19:50:00     -284.828     -114.771       -9.239      174.027      122.274       67.240    30285.425    14951.020     4521.205        7.206        2.488      307.082       72.387        0.056      344.295       21.009      862.492
09/21/2014  19:51:00     -146.274      -60.997       -4.411      111.653      106.950       67.147    12466.484    11438.230     4508.699        2.677        1.421      158.483       65.361        0.170      344.250       20.932      862.503
09/21/2014  19:52:00     -196.630      -42.143      -10.534       75.198       61.844       41.065     5654.731     3824.621     1686.352        2.586        0.558      201.095       33.534        0.028      344.233       20.904      862.521
09/21/2014  19:53:00     -263.092      -87.189       -7.316      128.396      124.937       60.219    16485.660    15609.237     3626.329        5.629        1.786      277.163       71.945        0.067      344.275       20.977      862.527
09/21/2014  19:54:00     -257.664      -50.204        6.458      148.613       89.257       57.978    22085.766     7966.743     3361.444        5.118        1.671      262.510       69.115        0.069      344.232       20.902      862.535
09/21/2014  19:55:00     -158.923      -72.636        7.975      115.083       81.359       48.209    13244.124     6619.350     2324.065        2.639        1.109      174.735       60.278        0.119      344.233       20.905      862.542
09/21/2014  19:56:00     -332.527      -86.931      -14.768      109.147      126.749       53.113    11913.136    16065.429     2821.027        7.457        1.540      343.702       44.672        0.017      344.254       20.939      862.556
09/21/2014  19:57:00     -254.496      -21.929      -13.130      102.786       99.729       50.035    10564.982     9945.784     2503.544        4.421        1.151      255.439       47.582        0.035      344.207       20.858      862.562
09/21/2014  19:58:00     -220.311      -29.835       -9.050      104.567       70.530       54.322    10934.295     4974.547     2950.917        3.418        0.943      222.322       57.849        0.068      344.167       20.789      862.569
09/21/2014  19:59:00     -278.392      -42.492      -15.002      107.915       73.614       46.712    11645.574     5419.051     2182.043        4.939        0.962      281.617       56.221        0.040      344.182       20.814      862.571
09/21/2014  20:00:00     -210.448      -37.338      -15.541      111.195       85.890       44.561    12364.263     7377.093     1985.647        3.382        1.086      213.735       33.191        0.024      344.184       20.819      862.575
09/21/2014  20:01:00     -233.672      -57.256       -4.128      109.630       89.073       54.630    12018.631     7934.021     2984.470        4.041        1.147      240.584       47.467        0.039      344.141       20.746      862.590
09/21/2014  20:02:00     -232.488      -77.351      -15.485      119.888       82.968       49.870    14373.120     6883.647     2487.044        4.200        1.187      245.018       60.815        0.062      344.137       20.741      862.601
09/21/2014  20:03:00     -255.928      -34.090      -21.089      144.615      100.930       60.566    20913.585    10186.795     3668.217        5.093        1.738      258.188       79.065        0.094      344.112       20.697      862.628
09/21/2014  20:04:00     -310.969      -13.554      -24.911      111.506       86.912       46.385    12433.635     7553.719     2151.567        5.982        1.107      311.264       45.390        0.021      344.136       20.736      862.644
09/21/2014  20:05:00     -339.400     -102.122       -8.450       92.394       86.419       62.177     8536.655     7468.230     3866.004        7.278        0.994      354.431       54.054        0.023      344.182       20.815      862.643
09/21/2014  20:06:00     -333.825      -48.998      -15.789      138.748       82.624       58.950    19251.058     6826.788     3475.111        7.182        1.478      337.402       66.845        0.039      344.133       20.733      862.648
09/21/2014  20:07:00     -286.853      -63.783       -7.859      187.167      104.551       67.323    35031.330    10930.954     4532.364        6.844        2.525      293.859       89.952        0.094      344.096       20.671      862.680
09/21/2014  20:08:00     -307.088      -51.349      -11.748      148.307       89.271       59.985    21995.006     7969.367     3598.226        6.531        1.678      311.351       72.707        0.055      344.081       20.645      862.704
09/21/2014  20:09:00     -206.539      -18.292      -18.551       82.468       90.482       44.486     6800.956     8187.062     1979.026        3.015        0.848      207.348       35.372        0.029      344.066       20.617      862.704
09/21/2014  20:10:00     -230.503      -56.806      -12.993       97.741       87.239       43.487     9553.349     7610.585     1891.159        3.779        0.953      237.400       44.730        0.036      344.070       20.625      862.716
09/21/2014  20:11:00     -291.549      -17.986      -15.908       99.165      108.767       60.262     9833.666    11830.184     3631.470        5.543        1.265      292.104       53.314        0.033      344.061       20.608      862.729
09/21/2014  20:12:00     -345.502      -82.605       -8.833       98.820       86.442       47.266     9765.480     7472.263     2234.058        7.287        0.974      355.239       44.579        0.016      344.076       20.636      862.732
09/21/2014  20:13:00     -311.276      -21.246      -13.633      161.723      104.352       64.757    26154.206    10889.264     4193.443        6.938        2.062      312.000       79.170        0.064      344.065       20.618      862.738
09/21/2014  20:14:00     -282.656      -39.500      -11.944      119.996       98.973       53.360    14399.102     9795.746     2847.268        5.431        1.352      285.402       63.953        0.050      344.051       20.594      862.741
09/21/2014  20:15:00     -297.658      -17.383      -17.289      114.119       90.972       50.459    13023.234     8275.953     2546.149        5.652        1.192      298.165       46.025        0.024      344.016       20.534      862.769
09/21/2014  20:16:00     -204.098      -80.827        5.309      108.140       96.595       53.015    11694.216     9330.625     2810.617        3.602        1.192      219.519       51.665        0.055      344.001       20.508      862.780
09/21/2014  20:17:00     -292.443      -27.692      -17.068      133.182       92.338       49.754    17737.454     8526.294     2475.481        5.765        1.437      293.751       61.443        0.044      343.999       20.503      862.788
09/21/2014  20:18:00     -314.112      -47.245      -26.719      132.207       77.366       53.881    17478.679     5985.560     2903.180        6.398        1.318      317.645       59.805        0.035      343.993       20.493      862.789
09/21/2014  20:19:00     -190.916      -53.644        2.890      105.838       63.158       37.219    11201.714     3988.993     1385.219        2.795        0.829      198.309       44.637        0.051      343.929       20.384      862.803
09/21/2014  20:20:00     -310.907      -39.742      -18.964       96.992       83.976       45.539     9407.454     7052.004     2073.804        5.856        0.927      313.437       46.958        0.022      343.980       20.472      862.809
09/21/2014  20:21:00     -150.506      -35.043       -2.676      104.205       79.479       47.193    10858.684     6316.866     2227.165        2.164        0.970      154.532       45.413        0.086      343.920       20.369      862.799
09/21/2014  20:22:00     -316.105      -71.093      -20.137      158.976      134.352       62.500    25273.361    18050.417     3906.244        7.630        2.362      324.001       59.711        0.034      343.987       20.484      862.791
09/21/2014  20:23:00     -282.976      -92.343      -13.249      109.288       96.692       46.789    11943.786     9349.391     2189.181        5.613        1.174      297.662       51.986        0.031      343.948       20.414      862.788
09/21/2014  20:24:00     -283.372      -61.292       -3.288      110.614       90.217       58.353    12235.415     8139.089     3405.081        5.392        1.189      289.924       59.566        0.042      343.941       20.404      862.785
09/21/2014  20:25:00     -228.875      -81.503        0.093       97.200       83.393       42.029     9447.878     6954.339     1766.472        3.859        0.908      242.954       37.036        0.023      343.973       20.458      862.765
09/21/2014  20:26:00     -257.431      -25.145      -14.232      111.024       74.971       54.934    12326.380     5620.584     3017.789        4.403        1.048      258.656       61.429        0.056      343.936       20.396      862.775
09/21/2014  20:27:00     -311.388      -30.866      -26.934      100.804      123.497       42.291    10161.466    15251.400     1788.497        6.292        1.360      312.914       39.969        0.016      343.961       20.438      862.772
09/21/2014  20:28:00     -201.546      -64.706       -6.270       90.252       87.818       51.933     8145.356     7712.003     2697.015        3.170        0.928      211.678       46.090        0.047      343.898       20.332      862.771
09/21/2014  20:29:00     -281.955      -74.144       -9.985       86.560       81.084       45.344     7492.620     6574.581     2056.087        5.061        0.806      291.541       46.392        0.025      343.887       20.310      862.775
09/21/2014  20:30:00     -243.294      -43.507       -2.413      114.137       83.399       54.751    13027.325     6955.369     2997.621        4.203        1.149      247.153       57.399        0.054      343.862       20.270      862.791
09/21/2014  20:31:00     -234.844      -87.599       -6.877      108.983      113.910       53.459    11877.338    12975.499     2857.916        4.529        1.386      250.650       54.281        0.047      343.897       20.328      862.789
09/21/2014  20:32:00     -240.314      -67.097       -3.387      135.269       84.313       50.656    18297.646     7108.601     2566.069        4.511        1.399      249.506       53.349        0.046      343.877       20.295      862.789
09/21/2014  20:33:00     -281.227      -39.734      -14.973      112.247       78.053       49.782    12599.336     6092.341     2478.258        5.103        1.058      284.020       63.357        0.050      343.912       20.355      862.784
09/21/2014  20:34:00     -201.837      -30.083      -13.887       85.409       87.911       44.820     7294.623     7728.394     2008.816        2.943        0.852      204.067       40.274        0.039      343.870       20.282      862.789
09/21/2014  20:35:00     -299.690      -24.711       -7.780      124.729      106.054       62.354    15557.307    11247.415     3887.961        6.058        1.535      300.707       72.290        0.058      343.920       20.370      862.781
09/21/2014  20:36:00     -181.898      -49.706       -6.368      101.574       70.289       40.728    10317.360     4940.482     1658.778        2.625        0.846      188.567       44.953        0.057      343.858       20.264      862.782
09/21/2014  20:37:00     -262.320      -92.039        3.002      127.391      104.002       55.826    16228.443    10816.327     3116.497        5.372        1.508      277.998       60.691        0.048      343.916       20.362      862.785
09/21/2014  20:38:00     -268.211      -49.619       -3.752      141.341       97.924       57.101    19977.170     9589.062     3260.495        5.361        1.641      272.762       66.213        0.059      343.887       20.312      862.790
09/21/2014  20:39:00     -370.558      -42.257      -15.288      128.401      104.511       66.765    16486.716    10922.525     4457.523        8.559        1.593      372.960       73.354        0.039      343.933       20.391      862.807
09/21/2014  20:40:00     -290.517      -69.657      -16.826      101.997       74.306       48.706    10403.477     5521.344     2372.273        5.391        0.915      298.751       55.264        0.034      343.900       20.334      862.834
09/21/2014  20:41:00     -327.397      -46.098      -22.028      100.534       87.576       51.648    10107.111     7669.524     2667.558        6.512        1.022      330.626       50.102        0.023      343.942       20.405      862.847
09/21/2014  20:42:00     -341.669      -37.575      -16.541      106.161       92.663       53.431    11270.235     8586.492     2854.922        7.056        1.136      343.729       46.735        0.018      343.916       20.360      862.858
09/21/2014  20:43:00     -188.989      -30.897      -13.381      132.016       87.981       53.210    17428.191     7740.686     2831.355        3.242        1.400      191.498       44.886        0.055      343.890       20.318      862.856
09/21/2014  20:44:00     -371.425      -25.197      -31.209      148.706       85.967       57.323    22113.429     7390.358     3285.924        8.617        1.639      372.279       72.300        0.038      343.917       20.363      862.880
09/21/2014  20:45:00     -252.588      -20.170       -3.746      137.068       75.140       54.118    18787.590     5645.986     2928.761        4.579        1.368      253.392       68.317        0.073      343.846       20.242      862.903
09/21/2014  20:46:00     -263.206      -27.828      -14.732      129.723       87.203       48.676    16828.026     7604.415     2369.380        4.853        1.340      264.673       50.465        0.036      343.857       20.260      862.909
09/21/2014  20:47:00     -270.104      -33.532      -18.476      127.253       81.435       50.461    16193.203     6631.734     2546.359        4.989        1.269      272.178       52.592        0.037      343.891       20.318      862.905
09/21/2014  20:48:00     -273.385      -44.456      -12.578      179.094      114.813       61.947    32074.701    13181.954     3837.383        6.297        2.455      276.976       83.337        0.091      343.892       20.321      862.914
09/21/2014  20:49:00     -376.457      -53.206      -23.747      119.512       80.949       62.762    14283.100     6552.820     3939.102        8.494        1.239      380.198       68.197        0.032      343.906       20.344      862.927
09/21/2014  20:50:00     -238.283      -69.420       -7.325      126.314      119.098       58.694    15955.228    14184.358     3445.036        4.761        1.679      248.189       64.452        0.067      343.888       20.314      862.941
09/21/2014  20:51:00     -250.158      -73.673       -9.042      112.245       90.444       47.626    12598.941     8180.116     2268.190        4.556        1.152      260.781       52.946        0.041      343.856       20.259      862.943
09/21/2014  20:52:00     -252.260       -4.611      -17.515       93.718       71.997       48.352     8783.068     5183.530     2337.938        4.013        0.815      252.302       51.078        0.041      343.873       20.287      862.937
09/21/2014  20:53:00     -283.741      -52.930      -19.082      106.091       86.665       51.778    11255.303     7510.747     2680.980        5.256        1.072      288.636       56.062        0.038      343.825       20.205      862.949
09/21/2014  20:54:00     -279.927      -62.564       -6.462      127.479      101.897       61.215    16250.775    10383.041     3747.265        5.634        1.519      286.833       72.292        0.064      343.839       20.231      862.964
09/21/2014  20:55:00     -224.510      -58.210       -7.161       94.561       78.746       39.400     8941.838     6200.920     1552.372        3.527        0.835      231.934       39.759        0.029      343.846       20.244      862.965
09/21/2014  20:56:00     -271.428      -40.861      -10.809      136.442       86.997       60.555    18616.446     7568.464     3666.864        5.265        1.493      274.486       68.306        0.062      343.857       20.262      862.971
09/21/2014  20:57:00     -281.555      -62.621       -3.029      102.150       72.653       46.822    10434.622     5278.530     2192.281        5.055        0.895      288.434       43.281        0.023      343.822       20.202      862.984
09/21/2014  20:58:00     -263.359      -15.872        3.295      101.271       94.305       47.337    10255.769     8893.516     2240.812        4.550        1.070      263.837       49.718        0.036      343.810       20.180      863.008
09/21/2014  20:59:00     -343.613       -9.632      -24.119      141.528      116.192       59.358    20030.244    13500.629     3523.389        7.789        1.853      343.748       57.874        0.028      343.889       20.314      863.008
09/21/2014  21:00:00     -313.113      -54.118        1.641      140.525       92.746       63.107    19747.287     8601.760     3982.478        6.664        1.617      317.755       65.747        0.043      343.871       20.286      863.006
09/21/2014  21:01:00     -263.740      -28.254       -9.316      104.626       70.609       45.478    10946.504     4985.597     2068.282        4.422        0.900      265.249       41.067        0.024      343.857       20.261      863.005
09/21/2014  21:02:00     -211.554      -17.407      -11.262       68.826       77.713       39.344     4736.999     6039.360     1547.911        2.875        0.616      212.269       35.424        0.028      343.827       20.210      863.008
09/21/2014  21:03:00     -206.220       -8.341      -10.289       91.606       65.817       50.183     8391.725     4331.922     2518.314        2.897        0.762      206.389       41.844        0.041      343.790       20.146      863.015
09/21/2014  21:04:00     -262.331      -74.060       -8.532       97.984       62.807       36.766     9600.782     3944.776     1351.756        4.463        0.745      272.585       39.797        0.021      343.797       20.158      863.024
09/21/2014  21:05:00     -243.659     -103.676       -8.292      106.648       76.587       43.915    11373.740     5865.584     1928.489        4.467        0.958      264.799       50.899        0.037      343.819       20.197      863.016
09/21/2014  21:06:00     -292.975      -89.769      -11.515       97.053       79.843       48.507     9419.304     6374.930     2352.893        5.608        0.907      306.419       49.671        0.026      343.818       20.194      863.004
09/21/2014  21:07:00     -161.213      -52.117        6.460       81.928       79.941       43.275     6712.267     6390.555     1872.711        2.186        0.749      169.427       35.351        0.044      343.761       20.099      862.988
09/21/2014  21:08:00     -192.739      -49.169        0.276      105.992       90.036       42.667    11234.320     8106.409     1820.462        3.036        1.058      198.912       43.197        0.047      343.745       20.072      862.974
09/21/2014  21:09:00     -248.075      -64.333       -1.045       82.871       83.928       47.123     6867.595     7043.955     2220.604        4.090        0.807      256.281       44.961        0.031      343.780       20.128      862.970
09/21/2014  21:10:00     -307.385      -55.237       -9.220      100.326       68.335       54.927    10065.230     4669.695     3016.949        5.768        0.888      312.309       52.799        0.029      343.778       20.125      862.966
09/21/2014  21:11:00     -249.806     -104.581       -8.103      157.287      135.670       64.174    24739.268    18406.440     4118.304        6.033        2.363      270.814       80.477        0.088      343.793       20.152      862.965
09/21/2014  21:12:00     -263.185      -77.322       -9.704       93.879      104.464       57.488     8813.274    10912.676     3304.928        4.918        1.152      274.308       47.071        0.029      343.790       20.147      862.962
09/21/2014  21:13:00     -272.799      -84.002       -9.947       83.357       76.075       45.710     6948.425     5787.467     2089.368        4.820        0.741      285.439       40.466        0.020      343.769       20.110      862.969
09/21/2014  21:14:00     -268.875      -23.794       -9.056      114.809       59.179       52.708    13181.020     3502.150     2778.185        4.620        0.973      269.926       62.050        0.053      343.764       20.102      862.971
09/21/2014  21:15:00     -194.063      -43.163       -4.363      138.511       69.780       51.495    19185.307     4869.180     2651.716        3.312        1.335      198.805       73.080        0.135      343.707       20.005      862.977
09/21/2014  21:16:00     -158.071       -1.794       -5.646       69.541       77.011       33.119     4835.962     5930.703     1096.865        1.844        0.593      158.081       27.961        0.031      343.704       20.000      862.981
09/21/2014  21:17:00     -295.230      -66.282      -16.896      106.149       84.174       52.288    11267.552     7085.246     2733.989        5.646        1.054      302.579       47.023        0.024      343.762       20.100      862.992
09/21/2014  21:18:00     -236.992      -24.602       -6.145       98.177       77.976       52.540     9638.647     6080.303     2760.453        3.764        0.924      238.266       43.582        0.033      343.758       20.091      863.005
09/21/2014  21:19:00     -148.882      -41.683        0.554      115.692       73.711       47.717    13384.591     5433.374     2276.898        2.250        1.055      154.607       53.641        0.120      343.752       20.082      863.004
09/21/2014  21:20:00     -302.978     -139.401      -21.012       80.943       87.761       49.220     6551.836     7701.989     2422.605        6.417        0.834      333.510       39.958        0.014      343.819       20.196      863.014
09/21/2014  21:21:00     -177.511      -57.433       -7.361      106.782       77.782       37.876    11402.407     6050.052     1434.554        2.687        0.944      186.571       49.821        0.071      343.754       20.085      863.030
09/21/2014  21:22:00     -159.347      -46.318       -3.317      136.187       67.519       40.384    18546.886     4558.799     1630.900        2.614        1.237      165.942       50.644        0.093      343.747       20.075      863.043
09/21/2014  21:23:00     -126.559      -70.204        5.026       94.448       73.456       46.272     8920.425     5395.775     2141.133        1.871        0.823      144.727       34.811        0.058      343.725       20.038      863.057
09/21/2014  21:24:00     -151.950      -98.382       -1.530       81.430       77.548       44.749     6630.882     6013.721     2002.495        2.371        0.732      181.019       47.268        0.068      343.752       20.083      863.055
09/21/2014  21:25:00     -148.471      -60.723       -9.911       68.021       57.789       34.846     4626.873     3339.542     1214.264        1.750        0.459      160.408       33.666        0.044      343.779       20.130      863.060
09/21/2014  21:26:00     -260.173      -17.458      -23.905       81.299       97.599       46.320     6609.577     9525.476     2145.548        4.342        0.914      260.758       43.467        0.028      343.775       20.119      863.077
09/21/2014  21:27:00     -262.186      -53.078      -15.131       95.231       71.126       43.749     9068.940     5058.911     1914.014        4.391        0.802      267.505       43.847        0.027      343.758       20.092      863.092
09/21/2014  21:28:00     -185.869      -48.559      -13.362      111.051       57.403       46.666    12332.239     3295.116     2177.743        2.744        0.890      192.108       55.263        0.083      343.755       20.087      863.091
09/21/2014  21:29:00     -169.954       -6.787       -0.751       58.695       55.605       37.770     3445.115     3091.921     1426.591        1.845        0.398      170.089       32.813        0.037      343.694       19.984      863.095
09/21/2014  21:30:00     -144.099      -36.260       11.713      127.901       83.567       56.206    16358.749     6983.459     3159.069        2.435        1.325      148.591       74.319        0.250      343.711       20.012      863.093
09/21/2014  21:31:00      -91.968       -0.243        7.142       82.617       56.141       37.019     6825.528     3151.804     1370.421        0.993        0.567       91.969       33.678        0.134      343.671       19.945      863.098
09/21/2014  21:32:00     -217.970      -69.220       -6.376       76.949       64.351       42.091     5921.083     4141.065     1771.641        3.209        0.592      228.697       38.953        0.029      343.699       19.990      863.106
09/21/2014  21:33:00     -221.871      -68.416       -3.472      126.448       75.823       56.068    15989.027     5749.076     3143.622        3.940        1.244      232.180       63.464        0.075      343.767       20.107      863.111
09/21/2014  21:34:00     -154.968      -87.450       -2.497       58.995       60.323       29.471     3480.458     3638.883      868.549        1.983        0.399      177.940       26.608        0.022      343.752       20.083      863.108
09/21/2014  21:35:00      -91.112      -39.019       10.744       70.321       66.053       39.825     4945.000     4363.045     1586.070        1.041        0.545       99.116       41.557        0.176      343.707       20.007      863.109
09/21/2014  21:36:00     -124.766      -91.276       11.293       90.907       83.960       45.927     8264.038     7049.226     2109.283        2.072        0.871      154.589       51.951        0.113      343.732       20.049      863.099
09/21/2014  21:37:00     -211.606      -42.927       -8.726       77.933       56.685       36.801     6073.520     3213.204     1354.333        2.867        0.532      215.916       38.773        0.032      343.737       20.056      863.094
09/21/2014  21:38:00     -110.291     -104.462        5.093      100.896       70.968       31.063    10180.004     5036.418      964.904        1.964        0.809      151.909       40.214        0.070      343.762       20.100      863.097
09/21/2014  21:39:00     -138.244      -95.969        5.264       98.424       81.301       46.361     9687.373     6609.836     2149.301        2.339        0.922      168.290       56.088        0.111      343.730       20.044      863.099
09/21/2014  21:40:00      -48.906      -30.274        6.845       75.724       66.198       38.788     5734.074     4382.196     1504.527        0.749        0.581       57.517       36.989        0.414      343.727       20.042      863.102
09/21/2014  21:41:00     -111.976      -59.447       -4.017       54.651       62.746       30.765     2986.752     3937.091      946.459        1.198        0.394      126.777       28.392        0.050      343.674       19.952      863.114
09/21/2014  21:42:00     -141.411      -20.971        1.645       70.642       73.298       44.548     4990.328     5372.617     1984.493        1.639        0.617      142.957       30.894        0.047      343.668       19.940      863.115
09/21/2014  21:43:00     -211.148      -42.901      -19.961       68.235       56.353       36.567     4655.986     3175.678     1337.158        2.799        0.458      215.463       36.984        0.029      343.730       20.045      863.124
09/21/2014  21:44:00     -171.303      -68.696      -17.066       73.687       66.681       35.050     5429.782     4446.322     1228.475        2.273        0.555      184.564       43.625        0.056      343.740       20.063      863.129
09/21/2014  21:45:00     -129.024       -6.813       -4.644       81.380       33.201       34.778     6622.709     1102.285     1209.541        1.282        0.447      129.204       42.801        0.110      343.677       19.955      863.130
09/21/2014  21:46:00     -130.564      -38.020        2.069       48.904       44.406       23.292     2391.599     1971.922      542.539        1.170        0.245      135.987       25.603        0.035      343.638       19.891      863.140
09/21/2014  21:47:00     -171.739      -28.367      -10.159       89.694       53.654       33.768     8045.093     2878.786     1140.307        2.123        0.603      174.066       35.215        0.041      343.647       19.903      863.141
09/21/2014  21:48:00     -116.579      -54.675       -1.936       79.428       50.251       31.078     6308.786     2525.183      965.849        1.319        0.490      128.764       34.855        0.073      343.648       19.907      863.152
09/21/2014  21:49:00     -184.987      -41.916       -5.150       60.308       70.741       28.702     3637.097     5004.246      823.789        2.273        0.473      189.676       31.811        0.028      343.720       20.030      863.149
09/21/2014  21:50:00     -122.907      -23.332       -1.503       36.989       44.886       23.095     1368.171     2014.723      533.378        0.978        0.196      125.102       20.522        0.027      343.664       19.934      863.144
09/21/2014  21:51:00     -146.478      -22.866      -11.271       45.253       54.711       20.132     2047.861     2993.312      405.314        1.378        0.272      148.252       19.221        0.017      343.670       19.943      863.143
09/21/2014  21:52:00     -113.157        5.353       -3.290       70.286       46.102       36.286     4940.148     2125.352     1316.677        1.061        0.419      113.284       38.820        0.117      343.627       19.872      863.141
09/21/2014  21:53:00      -69.397      -48.663       12.650       47.458       36.106       25.846     2252.300     1303.641      668.024        0.578        0.211       84.759       29.581        0.122      343.596       19.819      863.133
09/21/2014  21:54:00      -28.117      -17.319        0.200       46.429       24.021       16.103     2155.656      576.992      259.309        0.204        0.150       33.023       12.880        0.152      343.574       19.782      863.122
09/21/2014  21:55:00      -61.190       -2.301       -9.244       35.400       26.056       13.794     1253.168      678.916      190.266        0.298        0.106       61.233       11.530        0.035      343.718       20.028      863.105
09/21/2014  21:56:00      -54.539      -63.234        0.302       32.939       21.412       13.676     1084.960      458.476      187.020        0.435        0.087       83.505       16.151        0.037      343.680       19.960      863.103
09/21/2014  21:57:00      -14.855      -17.641        6.329       28.758       13.447        9.512      826.998      180.821       90.473        0.083        0.055       23.063       12.983        0.317      343.528       19.703      863.095
09/21/2014  21:58:00       12.297      -35.365        7.901       10.977       22.319        9.530      120.502      498.125       90.816        0.109        0.035       37.442        9.429        0.063      343.569       19.773      863.092
09/21/2014  21:59:00        3.694      -46.162        0.345       13.429       15.013       10.715      180.331      225.381      114.811        0.133        0.026       46.309        7.670        0.027      343.710       20.012      863.089
09/21/2014  22:00:00       27.915      -40.757       -8.813       24.996       25.350       13.079      624.804      642.606      171.072        0.198        0.072       49.400       10.840        0.048      343.670       19.945      863.083
09/21/2014  22:01:00       24.069      -49.194       -2.479       34.647       46.160       19.612     1200.422     2130.717      384.611        0.336        0.186       54.766       26.282        0.230      343.603       19.831      863.088
09/21/2014  22:02:00       12.461      -13.896        2.318       19.808       20.063       16.129      392.338      402.512      260.158        0.070        0.053       18.665       17.647        0.894      343.514       19.679      863.083
09/21/2014  22:03:00       40.724      -66.659      -12.189       21.097       24.484       13.245      445.067      599.452      175.428        0.373        0.061       78.115        7.609        0.009      343.568       19.771      863.072
09/21/2014  22:04:00        4.532      -52.045       12.849       20.894       49.551       17.409      436.576     2455.315      303.061        0.304        0.160       52.242       15.081        0.083      343.668       19.940      863.076
09/21/2014  22:05:00      -18.498      -47.233       -0.984       46.199       22.536       14.707     2134.378      507.860      216.284        0.272        0.143       50.726        7.465        0.022      343.591       19.812      863.091
09/21/2014  22:06:00      -38.443      -63.658        0.833       50.933       48.592       15.334     2594.130     2361.140      235.145        0.536        0.260       74.366       14.570        0.038      343.586       19.801      863.114
09/21/2014  22:07:00      -27.919      -79.546       11.143       32.208       45.130       20.879     1037.377     2036.704      435.943        0.537        0.176       84.304       17.077        0.041      343.571       19.776      863.135
09/21/2014  22:08:00       -5.170      -35.410       -3.466       24.990       36.688       22.617      624.495     1346.035      511.531        0.189        0.124       35.785       12.697        0.126      343.551       19.741      863.137
09/21/2014  22:09:00       31.044      -95.019      -14.177       51.245       47.884       34.663     2626.082     2292.830     1201.556        0.816        0.306       99.962       30.043        0.090      343.527       19.701      863.129
09/21/2014  22:10:00       11.036      -96.157      -22.886       43.122       34.928       22.967     1859.493     1219.966      527.488        0.675        0.180       96.789       23.894        0.061      343.563       19.762      863.140
09/21/2014  22:11:00       -2.246      -35.258      -11.665       19.551       16.778       14.142      382.231      281.493      199.990        0.112        0.043       35.330       10.653        0.091      343.544       19.731      863.153
09/21/2014  22:12:00       18.464      -74.875       -5.584       42.126       37.782       30.615     1774.617     1427.459      937.251        0.506        0.207       77.117       24.653        0.102      343.697       19.990      863.162
09/21/2014  22:13:00        0.230      -29.325        0.634       29.595       40.857       26.148      875.889     1669.335      683.713        0.204        0.161       29.325       17.833        0.370      343.566       19.767      863.167
09/21/2014  22:14:00       21.422      -61.626       -6.533       42.027       39.923       30.648     1766.277     1593.836      939.297        0.430        0.215       65.243       21.763        0.111      343.509       19.671      863.162
09/21/2014  22:15:00       13.775      -81.353       -4.292       37.112       31.154       23.798     1377.337      970.564      566.364        0.487        0.146       82.511       16.757        0.041      343.515       19.682      863.173
09/21/2014  22:16:00       19.028      -38.572       -1.494       22.666       25.472       22.790      513.759      648.798      519.363        0.177        0.084       43.010       17.156        0.159      343.462       19.591      863.193
09/21/2014  22:17:00       64.146      -66.691        8.278       49.860       67.126       41.431     2486.063     4505.917     1716.552        0.867        0.435       92.533       43.024        0.216      343.502       19.659      863.195
09/21/2014  22:18:00       32.060      -73.214       24.949       59.400       65.201       44.708     3528.378     4251.139     1998.798        0.839        0.489       79.926       49.381        0.382      343.558       19.754      863.190
09/21/2014  22:19:00       40.503     -123.342      -13.137       63.224       69.644       36.120     3997.252     4850.266     1304.626        1.359        0.508      129.821       32.674        0.063      343.550       19.739      863.187
09/21/2014  22:20:00        0.670      -77.045      -10.458       46.140       37.677       31.549     2128.891     1419.534      995.353        0.529        0.227       77.048       14.187        0.034      343.542       19.729      863.200
09/21/2014  22:21:00      -35.019      -87.811        3.949       60.244       32.035       23.828     3629.385     1026.273      567.775        0.709        0.261       94.536       18.075        0.037      343.530       19.706      863.213
09/21/2014  22:22:00       15.927      -66.409        4.678       53.107       40.341       25.522     2820.315     1627.433      651.375        0.489        0.255       68.292       22.804        0.111      343.535       19.715      863.222
09/21/2014  22:23:00       10.332      -54.813        3.046       24.376       38.286       29.385      594.208     1465.798      863.476        0.302        0.146       55.779       20.369        0.133      343.496       19.648      863.226
09/21/2014  22:24:00       22.378      -97.183        4.697       42.675       43.686       27.635     1821.126     1908.433      763.687        0.723        0.225       99.726       18.886        0.036      343.518       19.685      863.252
09/21/2014  22:25:00      -36.533      -61.154        8.157       43.967       45.852       27.051     1933.067     2102.413      731.739        0.495        0.238       71.235        8.486        0.014      343.509       19.670      863.287
09/21/2014  22:26:00        9.345      -25.078       -0.023       18.344       20.983       18.450      336.501      440.270      340.395        0.092        0.056       26.763       13.945        0.271      343.456       19.579      863.304
09/21/2014  22:27:00      -13.504       -5.881        3.885       16.871       13.904       12.029      284.641      193.308      144.699        0.043        0.031       14.729       11.912        0.654      343.389       19.465      863.304
09/21/2014  22:28:00      -56.942      -61.833        3.318       34.771       41.859       21.312     1208.992     1752.147      454.181        0.525        0.171       84.058       16.658        0.039      343.488       19.635      863.292
09/21/2014  22:29:00      -20.802      -21.468       40.541       41.111       71.201       28.627     1690.105     5069.605      819.533        0.506        0.379       29.893       34.025        1.296      343.402       19.488      863.269
09/21/2014  22:30:00      -17.016      -29.049        9.654       30.078       20.933       20.725      904.680      438.179      429.520        0.150        0.089       33.666       13.629        0.164      343.378       19.446      863.259
09/21/2014  22:31:00      -36.029      -38.884        5.436       26.463       39.919       18.488      700.299     1593.563      341.793        0.274        0.132       53.009       18.995        0.128      343.449       19.568      863.268
09/21/2014  22:32:00       20.262      -34.158       -0.436       20.855       48.512       18.756      434.934     2353.398      351.779        0.236        0.157       39.715       19.201        0.234      343.503       19.662      863.262
09/21/2014  22:33:00       42.541     -108.270       -7.812      115.555       83.584       53.289    13352.915     6986.205     2839.684        1.838        1.159      116.328       49.310        0.180      343.664       19.933      863.263
09/21/2014  22:34:00      -55.683      -43.704        5.843       48.653       40.840       24.485     2367.148     1667.898      599.530        0.484        0.232       70.786       23.944        0.114      343.551       19.742      863.268
09/21/2014  22:35:00      -63.422      -22.513       -3.634       21.283       24.023       13.736      452.946      577.099      188.673        0.288        0.061       67.299        8.604        0.016      343.582       19.794      863.258
09/21/2014  22:36:00      -10.104      -48.167       -5.956       29.264       32.168       19.368      856.385     1034.765      375.133        0.236        0.113       49.215       10.269        0.044      343.579       19.790      863.237
09/21/2014  22:37:00        0.672      -16.249       11.336       35.320       31.724       15.408     1247.488     1006.423      237.416        0.144        0.125       16.263       12.157        0.559      343.562       19.761      863.235
09/21/2014  22:38:00      -31.086      -26.862       -4.768       44.893       31.889       23.644     2015.348     1016.890      559.036        0.265        0.180       41.084       17.388        0.179      343.623       19.863      863.220
09/21/2014  22:39:00      -13.329       11.343       19.481       15.070       14.415       10.921      227.100      207.779      119.277        0.062        0.028       17.502        5.838        0.111      343.478       19.619      863.206
09/21/2014  22:40:00      -21.144      -15.095        2.193       20.438       15.985       11.161      417.705      255.514      124.571        0.074        0.040       25.979       10.849        0.174      343.562       19.763      863.209
09/21/2014  22:41:00      -34.902       -7.095       -5.642       31.391       22.796       19.615      985.389      519.662      384.741        0.159        0.094       35.616       16.433        0.213      343.607       19.836      863.204
09/21/2014  22:42:00      -32.407      -17.764       -5.861       32.845       17.841       11.716     1078.790      318.285      137.264        0.147        0.077       36.956       12.355        0.112      343.545       19.732      863.194
09/21/2014  22:43:00      -50.775       10.544       -0.557       12.585       13.493       10.096      158.373      182.066      101.938        0.157        0.022       51.858        4.562        0.008      343.564       19.761      863.184
09/21/2014  22:44:00      -34.995       -7.339       -0.681       23.913       11.991       10.507      571.820      143.779      110.403        0.105        0.041       35.757       12.265        0.118      343.487       19.633      863.181
09/21/2014  22:45:00      -38.847      -21.009        1.401       24.997       22.181       12.273      624.845      492.002      150.623        0.161        0.063       44.164       14.508        0.108      343.392       19.472      863.180
09/21/2014  22:46:00      -29.142      -24.149        0.078       21.023       21.595       11.089      441.978      466.360      122.970        0.123        0.052       37.847        8.119        0.046      343.321       19.349      863.174
09/21/2014  22:47:00      -79.065      -49.646        1.634       39.745       28.964       15.685     1579.698      838.936      246.033        0.569        0.133       93.360       21.415        0.053      343.371       19.436      863.168
09/21/2014  22:48:00      -58.904      -58.038        6.569       38.348       20.367       19.030     1470.585      414.799      362.138        0.456        0.112       82.693       20.403        0.061      343.398       19.482      863.153
09/21/2014  22:49:00      -27.199      -61.172        1.311       25.071       33.382       16.170      628.569     1114.338      261.470        0.324        0.100       66.946       12.488        0.035      343.427       19.531      863.148
09/21/2014  22:50:00      -63.754     -120.924       -1.651       30.198       41.669       21.353      911.937     1736.271      455.947        1.090        0.155      136.702       23.474        0.029      343.493       19.642      863.149
09/21/2014  22:51:00      -72.316     -161.584       -7.826       28.274       44.685       19.854      799.402     1996.731      394.182        1.729        0.160      177.029       18.002        0.010      343.519       19.687      863.141
09/21/2014  22:52:00      -86.204     -178.987       -4.053       37.284       39.584       29.958     1390.111     1566.894      897.484        2.167        0.193      198.664       22.427        0.013      343.478       19.616      863.145
09/21/2014  22:53:00     -132.754     -120.852        0.018       50.303       68.431       30.400     2530.404     4682.734      924.131        2.018        0.407      179.524       35.260        0.039      343.403       19.488      863.143
09/21/2014  22:54:00     -112.422     -164.338       -3.615       47.323       66.607       29.390     2239.505     4436.453      863.795        2.360        0.377      199.113       29.136        0.021      343.414       19.507      863.137
09/21/2014  22:55:00      -96.338     -145.221      -13.240       45.224       39.747       29.060     2045.165     1579.798      844.501        1.751        0.223      174.271       17.583        0.010      343.403       19.491      863.130
09/21/2014  22:56:00      -12.589      -47.879        4.407       26.316       31.567       24.301      692.507      996.492      590.525        0.237        0.114       49.506       16.898        0.117      343.322       19.352      863.118
09/21/2014  22:57:00      -73.355      -60.419       10.291       41.341       41.340       25.217     1709.064     1708.957      635.914        0.659        0.203       95.034       15.384        0.026      343.333       19.369      863.124
09/21/2014  22:58:00      -64.482     -101.488       -8.008       52.973       62.027       31.848     2806.147     3847.303     1014.283        1.109        0.383      120.240       27.839        0.054      343.323       19.354      863.129
09/21/2014  22:59:00      -84.263     -116.772        1.945       55.580       46.042       38.129     3089.183     2119.868     1453.835        1.370        0.333      144.000       27.162        0.036      343.348       19.396      863.130
09/21/2014  23:00:00      -48.859      -81.766       -5.301       51.607       62.487       28.954     2663.241     3904.638      838.320        0.825        0.370       95.252       33.122        0.121      343.310       19.333      863.136
09/21/2014  23:01:00      -88.989     -112.078       -8.874       61.937       52.090       26.716     3836.138     2713.333      713.725        1.391        0.363      143.110       26.060        0.033      343.334       19.372      863.134
09/21/2014  23:02:00      -49.091      -68.597       -4.353       40.275       38.258       26.011     1622.099     1463.638      676.586        0.545        0.188       84.353       17.435        0.043      343.287       19.293      863.128
09/21/2014  23:03:00      -83.700     -102.701       -4.953       35.630       47.837       26.857     1269.532     2288.353      721.276        1.093        0.214      132.489       22.861        0.030      343.289       19.296      863.126
09/21/2014  23:04:00      -73.512      -63.246       -0.383       46.753       53.426       34.430     2185.831     2854.389     1185.417        0.781        0.311       96.974       28.204        0.085      343.215       19.170      863.125
09/21/2014  23:05:00      -59.246      -63.502       11.667       52.678       59.996       32.226     2774.943     3599.460     1038.504        0.754        0.371       86.848       32.816        0.143      343.192       19.132      863.130
09/21/2014  23:06:00     -119.798      -90.163       -5.331       53.857       57.063       23.774     2900.622     3256.152      565.204        1.461        0.336      149.937       18.730        0.016      343.238       19.207      863.150
09/21/2014  23:07:00      -70.698     -102.683       -2.347       31.970       58.221       21.043     1022.090     3389.663      442.806        1.020        0.243      124.668       12.092        0.009      343.207       19.158      863.159
09/21/2014  23:08:00      -61.551      -78.282        4.014       40.833       44.545       24.127     1667.319     1984.252      582.117        0.708        0.212       99.582       23.395        0.055      343.198       19.139      863.171
09/21/2014  23:09:00      -89.922      -83.628       -0.356       55.775       49.833       27.109     3110.864     2483.281      734.901        1.070        0.316      122.799       29.458        0.058      343.185       19.117      863.185
09/21/2014  23:10:00      -66.035      -56.536        8.149       48.618       38.933       26.001     2363.758     1515.743      676.068        0.609        0.228       86.930       26.944        0.096      343.126       19.019      863.198
09/21/2014  23:11:00      -88.772      -48.451       -5.162       56.932       41.266       21.178     3241.251     1702.865      448.523        0.782        0.270      101.134       15.661        0.024      343.081       18.943      863.200
09/21/2014  23:12:00      -75.909      -45.330        5.914       62.479       32.656       29.824     3903.636     1066.444      889.469        0.685        0.293       88.413       33.723        0.145      343.053       18.894      863.200
09/21/2014  23:13:00      -77.335      -43.699        8.092       50.779       28.431       22.774     2578.541      808.298      518.675        0.593        0.195       88.827       26.932        0.092      343.012       18.825      863.204
09/21/2014  23:14:00     -112.315      -25.788       -8.099       45.479       38.377       22.176     2068.354     1472.807      491.761        0.869        0.202      115.237       18.510        0.026      342.981       18.772      863.207
09/21/2014  23:15:00      -75.783        6.072       -1.412       33.222       26.474       20.151     1103.673      700.895      406.064        0.400        0.111       76.026       19.487        0.066      342.773       18.417      863.201
09/21/2014  23:16:00      -77.023      -40.588       -7.549       21.187       21.113       12.289      448.895      445.740      151.012        0.434        0.052       87.063        6.043        0.005      342.898       18.629      863.202
09/21/2014  23:17:00     -118.778      -25.014       -6.941       42.706       32.975       22.228     1823.804     1087.331      494.088        0.909        0.170      121.383       17.462        0.021      342.831       18.515      863.220
09/21/2014  23:18:00     -106.199       -5.409       -4.813       53.365       44.281       23.619     2847.851     1960.837      557.842        0.835        0.268      106.337       27.813        0.068      342.666       18.235      863.232
09/21/2014  23:19:00     -141.242      -18.332      -12.090       43.403       42.161       23.678     1883.818     1777.577      560.668        1.233        0.211      142.426       22.794        0.026      342.627       18.168      863.248
09/21/2014  23:20:00      -95.714      -15.788       -2.026       36.996       29.828       22.204     1368.695      889.702      493.026        0.608        0.138       97.007       21.058        0.047      342.618       18.152      863.258
09/21/2014  23:21:00      -86.939      -32.734       -5.995       50.306       40.251       23.831     2530.696     1620.145      567.898        0.669        0.236       92.897       29.229        0.099      342.573       18.077      863.263
09/21/2014  23:22:00     -136.882       49.857       -8.655       64.123       42.590       35.818     4111.789     1813.886     1282.903        1.425        0.360      145.679       24.045        0.027      342.650       18.207      863.270
09/21/2014  23:23:00     -124.841       13.679      -12.202       55.141       52.571       22.221     3040.554     2763.658      493.788        1.111        0.315      125.588       16.450        0.017      342.824       18.503      863.273
09/21/2014  23:24:00      -56.280       -0.166       -1.186       27.761       33.400       16.138      770.657     1115.553      260.442        0.266        0.107       56.280        8.944        0.025      342.796       18.458      863.273
09/21/2014  23:25:00      -24.040      -20.195       -0.425       31.233       17.016       13.949      975.488      289.557      194.574        0.122        0.073       31.397        9.546        0.092      342.785       18.437      863.285
09/21/2014  23:26:00      -52.803      -33.589        2.800       29.890       26.999       14.355      893.413      728.929      206.068        0.288        0.091       62.581       13.631        0.047      342.686       18.269      863.286
09/21/2014  23:27:00     -103.537      -50.293        5.835       43.564       34.098       22.833     1897.789     1162.677      521.324        0.843        0.179      115.105       19.726        0.029      342.636       18.185      863.275
09/21/2014  23:28:00     -126.455      -61.890       -1.806       34.704       28.335       20.615     1204.367      802.884      424.966        1.113        0.122      140.788       19.326        0.019      342.664       18.232      863.274
09/21/2014  23:29:00     -127.189      -38.059       -1.038       35.545       30.536       19.945     1263.417      932.461      397.810        1.011        0.130      132.761       15.757        0.014      342.671       18.245      863.261
09/21/2014  23:30:00     -121.585      -63.022       -3.449       31.892       27.741       19.178     1017.075      769.545      367.804        1.046        0.108      136.948       15.373        0.013      342.717       18.322      863.244
09/21/2014  23:31:00      -65.344      -34.509       -3.265       33.686       23.310       16.744     1134.732      543.346      280.365        0.371        0.098       73.897       13.682        0.034      342.697       18.287      863.232
09/21/2014  23:32:00      -91.599      -63.858       -1.497       38.703       31.923       26.558     1497.907     1019.052      705.330        0.785        0.161      111.662       21.802        0.038      342.677       18.253      863.232
09/21/2014  23:33:00     -128.228      -41.030       -1.948       42.701       40.021       24.078     1823.404     1601.692      579.731        1.107        0.200      134.633       26.555        0.039      342.691       18.277      863.225
09/21/2014  23:34:00     -106.945      -40.956        3.025       41.113       32.042       20.760     1690.267     1026.674      430.968        0.814        0.157      114.519       16.054        0.020      342.679       18.258      863.216
09/21/2014  23:35:00      -99.786      -43.724        1.283       27.968       19.759       19.051      782.187      390.403      362.944        0.670        0.077      108.945       16.822        0.024      342.804       18.470      863.211
09/21/2014  23:36:00      -69.409      -44.497       -0.848       26.033       25.278       19.292      677.742      638.974      372.165        0.424        0.084       82.447       15.951        0.037      342.791       18.447      863.216
09/21/2014  23:37:00      -61.702        7.324       -8.145       30.656       46.093       17.010      939.820     2124.590      289.345        0.364        0.168       62.135       22.446        0.130      342.626       18.165      863.224
09/21/2014  23:38:00      -65.643       42.722      -15.075       14.268       28.992       12.140      203.575      840.527      147.371        0.378        0.060       78.322       15.470        0.039      342.618       18.152      863.224
09/21/2014  23:39:00      -87.347       31.882      -17.263       19.878       17.624       13.815      395.121      310.611      190.863        0.492        0.045       92.984       12.948        0.019      342.537       18.016      863.230
09/21/2014  23:40:00      -68.227       28.553      -16.179       21.231       24.492       15.931      450.770      599.864      253.792        0.352        0.065       73.961       15.041        0.041      342.453       17.872      863.239
09/21/2014  23:41:00      -35.960       37.479       -8.125       15.869       21.677        9.335      251.824      469.876       87.135        0.179        0.040       51.940        6.736        0.017      342.491       17.937      863.236
09/21/2014  23:42:00       -9.577       11.787        1.016       13.568       10.923        9.589      184.091      119.320       91.944        0.031        0.020       15.187        4.894        0.104      342.440       17.851      863.238
09/21/2014  23:43:00      -21.141       -6.400       -1.475       10.556        6.625        5.843      111.434       43.884       34.142        0.034        0.009       22.088        3.446        0.024      342.423       17.823      863.247
09/21/2014  23:44:00      -46.365      -17.417       -8.867       13.964        9.739        9.515      195.001       94.842       90.541        0.146        0.019       49.528        4.932        0.010      342.354       17.706      863.260
09/21/2014  23:45:00      -17.884      -12.198       -3.499       23.398       15.160        8.900      547.456      229.829       79.219        0.067        0.043       21.648        3.517        0.026      342.292       17.599      863.262
09/21/2014  23:46:00      -39.274      -29.250        0.620       28.780       18.569       13.658      828.265      344.819      186.545        0.188        0.068       48.970        9.211        0.035      342.229       17.492      863.268
09/21/2014  23:47:00     -103.617      -32.812       -5.119       21.028       14.249       10.013      442.187      203.043      100.251        0.629        0.037      108.688        6.034        0.003      342.203       17.447      863.274
09/21/2014  23:48:00     -102.062      -39.741      -12.117       22.825       15.888       10.667      520.995      252.434      113.783        0.651        0.044      109.526        4.297        0.002      342.174       17.400      863.283
09/21/2014  23:49:00      -96.920      -41.140       -4.537       15.182       15.990       12.370      230.494      255.675      153.007        0.587        0.032      105.290        8.031        0.006      342.081       17.241      863.304
09/21/2014  23:50:00      -57.191      -38.644        4.895       32.620       18.228       13.840     1064.035      332.278      191.539        0.319        0.079       69.023       12.352        0.032      342.128       17.320      863.303
09/21/2014  23:51:00     -105.261      -51.478       -4.754       22.118       15.929        9.977      489.205      253.728       99.545        0.730        0.042      117.175        8.426        0.005      342.099       17.271      863.298
09/21/2014  23:52:00      -90.050      -41.817       -1.625       20.587       16.156       10.403      423.804      261.012      108.224        0.533        0.040       99.286       10.374        0.011      342.130       17.324      863.292
09/21/2014  23:53:00     -106.631      -28.264       -5.158       14.371       13.526        9.976      206.536      182.960       99.516        0.634        0.024      110.314        7.585        0.005      342.189       17.426      863.284
09/21/2014  23:54:00      -70.834      -34.985        0.643       20.818       12.229        9.963      433.390      149.554       99.257        0.346        0.034       79.002        7.469        0.009      342.190       17.426      863.270
09/21/2014  23:55:00      -84.708      -40.288       -2.298       24.665       14.865       11.411      608.352      220.960      130.207        0.488        0.048       93.801       10.752        0.013      342.207       17.454      863.258
09/21/2014  23:56:00      -85.482      -51.167       -0.276       30.097       21.200       14.753      905.844      449.421      217.638        0.575        0.079       99.626       11.948        0.014      342.164       17.382      863.250
09/21/2014  23:57:00     -116.809      -53.554       -5.469       27.186       17.569       11.646      739.066      308.668      135.618        0.886        0.059      128.501       11.354        0.008      342.143       17.346      863.234
09/21/2014  23:58:00     -120.721      -52.903       -3.433       26.881       29.843       18.411      722.569      890.601      338.980        0.967        0.098      131.804       10.641        0.007      342.017       17.132      863.219
09/21/2014  23:59:00     -118.914      -23.769      -10.586       42.025       34.577       19.377     1766.106     1195.577      375.464        0.908        0.167      121.267       18.726        0.024      341.905       16.943      863.219
